| time (UTC) | temp F | wind direction | speed MPH | gust MPH | rain 1hr in | rain 24hr in | rain mn in | humidity % | barometer mb |
| 20260509152501 | 63 | 226 | 6.0 | 16.0 | 0.00 | 0.00 | 0.00 | 71 | 1004.2 |
| 20260509152412 | 63 | 289 | 6.0 | 16.0 | 0.00 | 0.00 | 0.00 | 71 | 1004.2 |
| 20260509152305 | 62 | 239 | 5.0 | 16.0 | 0.00 | 0.00 | 0.00 | 72 | 1004.2 |
| 20260509152158 | 62 | 242 | 5.0 | 16.0 | 0.00 | 0.00 | 0.00 | 71 | 1004.1 |
| 20260509152108 | 62 | 250 | 5.0 | 16.0 | 0.00 | 0.00 | 0.00 | 72 | 1004.2 |
| 20260509152018 | 62 | 279 | 7.0 | 16.0 | 0.00 | 0.00 | 0.00 | 71 | 1004.2 |
| 20260509151929 | 62 | 264 | 8.0 | 16.0 | 0.00 | 0.00 | 0.00 | 70 | 1004.1 |
| 20260509151757 | 63 | 259 | 7.0 | 16.0 | 0.00 | 0.00 | 0.00 | 72 | 1004.2 |
| 20260509151709 | 62 | 252 | 5.0 | 16.0 | 0.00 | 0.00 | 0.00 | 72 | 1004.2 |
| 20260509151619 | 62 | 216 | 5.0 | 16.0 | 0.00 | 0.00 | 0.00 | 73 | 1004.2 |
| 20260509151542 | 62 | 280 | 5.0 | 16.0 | 0.00 | 0.00 | 0.00 | 73 | 1004.1 |
| 20260509151410 | 62 | 274 | 6.0 | 16.0 | 0.00 | 0.00 | 0.00 | 72 | 1004.2 |
| 20260509151300 | 62 | 238 | 6.0 | 16.0 | 0.00 | 0.00 | 0.00 | 72 | 1004.2 |
| 20260509151209 | 62 | 247 | 7.0 | 16.0 | 0.00 | 0.00 | 0.00 | 72 | 1004.2 |
| 20260509151104 | 62 | 227 | 8.0 | 16.0 | 0.00 | 0.00 | 0.00 | 73 | 1004.2 |
| 20260509151014 | 62 | 234 | 7.0 | 14.0 | 0.00 | 0.00 | 0.00 | 73 | 1004.0 |
| 20260509150924 | 62 | 221 | 6.0 | 10.0 | 0.00 | 0.00 | 0.00 | 74 | 1004.1 |
| 20260509150813 | 62 | 233 | 5.0 | 10.0 | 0.00 | 0.00 | 0.00 | 74 | 1004.2 |
| 20260509150723 | 62 | 234 | 5.0 | 11.0 | 0.00 | 0.00 | 0.00 | 76 | 1004.2 |
| 20260509150635 | 62 | 259 | 5.0 | 11.0 | 0.00 | 0.00 | 0.00 | 75 | 1004.2 |
| 20260509150525 | 62 | 244 | 4.0 | 11.0 | 0.00 | 0.00 | 0.00 | 74 | 1004.1 |
| 20260509150436 | 62 | 239 | 4.0 | 11.0 | 0.00 | 0.00 | 0.00 | 74 | 1004.1 |
| 20260509150306 | 62 | 152 | 6.0 | 13.0 | 0.00 | 0.00 | 0.00 | 74 | 1004.2 |
| 20260509150214 | 62 | 244 | 7.0 | 13.0 | 0.00 | 0.00 | 0.00 | 75 | 1004.1 |
| 20260509150108 | 62 | 240 | 7.0 | 13.0 | 0.00 | 0.00 | 0.00 | 75 | 1004.0 |
| 20260509150029 | 62 | 246 | 6.0 | 13.0 | 0.00 | 0.00 | 0.00 | 75 | 1004.1 |
| 20260509145859 | 62 | 253 | 5.0 | 13.0 | 0.00 | 0.00 | 0.00 | 76 | 1004.1 |
| 20260509145811 | 62 | 229 | 6.0 | 13.0 | 0.00 | 0.00 | 0.00 | 76 | 1004.1 |
| 20260509145703 | 62 | 253 | 6.0 | 13.0 | 0.00 | 0.00 | 0.00 | 76 | 1004.1 |
| 20260509145613 | 62 | 255 | 6.0 | 13.0 | 0.00 | 0.00 | 0.00 | 76 | 1004.1 |
| 20260509145502 | 61 | 261 | 5.0 | 13.0 | 0.00 | 0.00 | 0.00 | 76 | 1004.0 |
| 20260509145413 | 61 | 247 | 4.0 | 11.0 | 0.00 | 0.00 | 0.00 | 76 | 1004.1 |
| 20260509145306 | 61 | 228 | 5.0 | 15.0 | 0.00 | 0.00 | 0.00 | 76 | 1004.1 |
| 20260509145219 | 61 | 246 | 6.0 | 15.0 | 0.00 | 0.00 | 0.00 | 76 | 1004.2 |
| 20260509145109 | 61 | 256 | 6.0 | 15.0 | 0.00 | 0.00 | 0.00 | 76 | 1004.2 |
| 20260509145019 | 61 | 238 | 6.0 | 15.0 | 0.00 | 0.00 | 0.00 | 76 | 1004.2 |
| 20260509144819 | 61 | 238 | 6.0 | 15.0 | 0.00 | 0.00 | 0.00 | 76 | 1004.1 |
| 20260509144714 | 61 | 188 | 5.0 | 15.0 | 0.00 | 0.00 | 0.00 | 76 | 1004.0 |
| 20260509144615 | 61 | 242 | 6.0 | 15.0 | 0.00 | 0.00 | 0.00 | 76 | 1004.1 |
| 20260509144517 | 61 | 224 | 5.0 | 15.0 | 0.00 | 0.00 | 0.00 | 76 | 1004.2 |
| 20260509144406 | 61 | 146 | 5.0 | 9.0 | 0.00 | 0.00 | 0.00 | 76 | 1004.2 |
| 20260509144209 | 61 | 240 | 5.0 | 9.0 | 0.00 | 0.00 | 0.00 | 77 | 1004.2 |
| 20260509144104 | 61 | 259 | 6.0 | 9.0 | 0.00 | 0.00 | 0.00 | 76 | 1004.3 |
| 20260509144014 | 61 | 206 | 6.0 | 8.0 | 0.00 | 0.00 | 0.00 | 76 | 1004.3 |
| 20260509143904 | 61 | 210 | 6.0 | 9.0 | 0.00 | 0.00 | 0.00 | 77 | 1004.4 |
| 20260509143815 | 61 | 246 | 6.0 | 10.0 | 0.00 | 0.00 | 0.00 | 77 | 1004.4 |
| 20260509143706 | 60 | 245 | 5.0 | 10.0 | 0.00 | 0.00 | 0.00 | 78 | 1004.4 |
| 20260509143616 | 60 | 256 | 4.0 | 10.0 | 0.00 | 0.00 | 0.00 | 78 | 1004.4 |
| 20260509143526 | 60 | 227 | 4.0 | 10.0 | 0.00 | 0.00 | 0.00 | 79 | 1004.4 |
| 20260509143355 | 60 | 241 | 4.0 | 10.0 | 0.00 | 0.00 | 0.00 | 78 | 1004.6 |
| 20260509143309 | 60 | 233 | 4.0 | 10.0 | 0.00 | 0.00 | 0.00 | 78 | 1004.5 |
| 20260509143222 | 60 | 248 | 4.0 | 10.0 | 0.00 | 0.00 | 0.00 | 77 | 1004.5 |
| 20260509143111 | 60 | 248 | 6.0 | 10.0 | 0.00 | 0.00 | 0.00 | 76 | 1004.6 |
| 20260509143032 | 60 | 232 | 7.0 | 10.0 | 0.00 | 0.00 | 0.00 | 76 | 1004.5 |
| 20260509142902 | 60 | 231 | 6.0 | 10.0 | 0.00 | 0.00 | 0.00 | 76 | 1004.5 |
| 20260509142813 | 60 | 227 | 6.0 | 13.0 | 0.00 | 0.00 | 0.00 | 76 | 1004.4 |
| 20260509142723 | 60 | 223 | 6.0 | 13.0 | 0.00 | 0.00 | 0.00 | 76 | 1004.4 |
| 20260509142634 | 60 | 290 | 5.0 | 13.0 | 0.00 | 0.00 | 0.00 | 77 | 1004.4 |
| 20260509142505 | 60 | 242 | 6.0 | 15.0 | 0.00 | 0.00 | 0.00 | 77 | 1004.5 |
| 20260509142414 | 60 | 223 | 6.0 | 15.0 | 0.00 | 0.00 | 0.00 | 77 | 1004.5 |
| 20260509142324 | 60 | 236 | 5.0 | 15.0 | 0.00 | 0.00 | 0.00 | 77 | 1004.4 |
| 20260509142235 | 60 | 223 | 6.0 | 15.0 | 0.00 | 0.00 | 0.00 | 77 | 1004.4 |
| 20260509142128 | 60 | 261 | 8.0 | 15.0 | 0.00 | 0.00 | 0.00 | 77 | 1004.4 |
| 20260509142018 | 60 | 249 | 8.0 | 15.0 | 0.00 | 0.00 | 0.00 | 77 | 1004.4 |
| 20260509141928 | 60 | 271 | 7.0 | 15.0 | 0.00 | 0.00 | 0.00 | 77 | 1004.3 |
| 20260509141800 | 60 | 283 | 7.0 | 15.0 | 0.00 | 0.00 | 0.00 | 77 | 1004.4 |
| 20260509141711 | 60 | 266 | 6.0 | 15.0 | 0.00 | 0.00 | 0.00 | 77 | 1004.4 |
| 20260509141602 | 60 | 250 | 6.0 | 13.0 | 0.00 | 0.00 | 0.00 | 77 | 1004.4 |
| 20260509141525 | 60 | 235 | 7.0 | 13.0 | 0.00 | 0.00 | 0.00 | 77 | 1004.3 |
| 20260509141414 | 60 | 211 | 6.0 | 13.0 | 0.00 | 0.00 | 0.00 | 78 | 1004.3 |
| 20260509141304 | 60 | 245 | 5.0 | 12.0 | 0.00 | 0.00 | 0.00 | 78 | 1004.3 |
| 20260509141159 | 60 | 247 | 6.0 | 12.0 | 0.00 | 0.00 | 0.00 | 78 | 1004.3 |
| 20260509141111 | 59 | 223 | 7.0 | 12.0 | 0.00 | 0.00 | 0.00 | 77 | 1004.3 |
| 20260509141000 | 60 | 233 | 8.0 | 12.0 | 0.00 | 0.00 | 0.00 | 76 | 1004.3 |
| 20260509140912 | 60 | 229 | 7.0 | 12.0 | 0.00 | 0.00 | 0.00 | 76 | 1004.3 |
| 20260509140802 | 60 | 234 | 7.0 | 14.0 | 0.00 | 0.00 | 0.00 | 77 | 1004.3 |
| 20260509140713 | 60 | 249 | 7.0 | 14.0 | 0.00 | 0.00 | 0.00 | 77 | 1004.3 |
| 20260509140604 | 60 | 298 | 6.0 | 14.0 | 0.00 | 0.00 | 0.00 | 78 | 1004.3 |
| 20260509140456 | 60 | 239 | 6.0 | 14.0 | 0.00 | 0.00 | 0.00 | 78 | 1004.3 |
| 20260509140407 | 60 | 265 | 7.0 | 14.0 | 0.00 | 0.00 | 0.00 | 78 | 1005.0 |
| 20260509140304 | 60 | 234 | 6.0 | 14.0 | 0.00 | 0.00 | 0.00 | 78 | 1004.3 |
| 20260509140214 | 60 | 260 | 7.0 | 14.0 | 0.00 | 0.00 | 0.00 | 79 | 1004.2 |
| 20260509140115 | 60 | 207 | 7.0 | 14.0 | 0.00 | 0.00 | 0.00 | 79 | 1004.2 |
| 20260509140017 | 59 | 220 | 7.0 | 14.0 | 0.00 | 0.00 | 0.00 | 79 | 1004.2 |
| 20260509135907 | 59 | 259 | 6.0 | 12.0 | 0.00 | 0.00 | 0.00 | 80 | 1004.2 |
| 20260509135758 | 59 | 224 | 6.0 | 10.0 | 0.00 | 0.00 | 0.00 | 80 | 1004.2 |
| 20260509135709 | 59 | 224 | 4.0 | 10.0 | 0.00 | 0.00 | 0.00 | 81 | 1004.2 |
| 20260509135600 | 59 | 138 | 4.0 | 10.0 | 0.00 | 0.00 | 0.00 | 81 | 1004.3 |
| 20260509135510 | 59 | 225 | 4.0 | 10.0 | 0.00 | 0.00 | 0.00 | 81 | 1004.3 |
| 20260509135404 | 59 | 157 | 4.0 | 10.0 | 0.00 | 0.00 | 0.00 | 81 | 1004.4 |
| 20260509135314 | 59 | 213 | 5.0 | 10.0 | 0.00 | 0.00 | 0.00 | 82 | 1004.3 |
| 20260509135205 | 59 | 253 | 5.0 | 10.0 | 0.00 | 0.00 | 0.00 | 82 | 1004.4 |
| 20260509135115 | 59 | 242 | 5.0 | 10.0 | 0.00 | 0.00 | 0.00 | 82 | 1004.4 |
| 20260509135026 | 58 | 233 | 5.0 | 12.0 | 0.00 | 0.00 | 0.00 | 82 | 1004.4 |
| 20260509134917 | 58 | 294 | 4.0 | 12.0 | 0.00 | 0.00 | 0.00 | 82 | 1004.4 |
| 20260509134806 | 58 | 159 | 3.0 | 12.0 | 0.00 | 0.00 | 0.00 | 82 | 1004.3 |
| 20260509134656 | 58 | 129 | 2.0 | 12.0 | 0.00 | 0.00 | 0.00 | 83 | 1004.4 |
| 20260509134606 | 58 | 96 | 2.0 | 12.0 | 0.00 | 0.00 | 0.00 | 83 | 1004.4 |
| 20260509134529 | 58 | 202 | 4.0 | 12.0 | 0.00 | 0.00 | 0.00 | 83 | 1004.5 |
| 20260509134401 | 58 | 217 | 6.0 | 12.0 | 0.00 | 0.00 | 0.00 | 83 | 1004.5 |
| 20260509134313 | 58 | 244 | 6.0 | 12.0 | 0.00 | 0.00 | 0.00 | 83 | 1004.4 |
| 20260509134204 | 58 | 225 | 6.0 | 12.0 | 0.00 | 0.00 | 0.00 | 83 | 1004.5 |
| 20260509134114 | 58 | 247 | 4.0 | 11.0 | 0.00 | 0.00 | 0.00 | 84 | 1004.5 |
| 20260509134026 | 58 | 257 | 4.0 | 11.0 | 0.00 | 0.00 | 0.00 | 84 | 1004.5 |
| 20260509133915 | 58 | 82 | 6.0 | 11.0 | 0.00 | 0.00 | 0.00 | 83 | 1004.5 |
| 20260509133806 | 57 | 234 | 5.0 | 12.0 | 0.00 | 0.00 | 0.00 | 84 | 1004.5 |
| 20260509133717 | 57 | 229 | 3.0 | 12.0 | 0.00 | 0.00 | 0.00 | 84 | 1004.3 |
| 20260509133628 | 57 | 186 | 4.0 | 12.0 | 0.00 | 0.00 | 0.00 | 84 | 1004.4 |
| 20260509133459 | 57 | 226 | 6.0 | 12.0 | 0.00 | 0.00 | 0.00 | 85 | 1004.6 |
| 20260509133413 | 57 | 240 | 6.0 | 12.0 | 0.00 | 0.00 | 0.00 | 85 | 1004.5 |
| 20260509133305 | 57 | 243 | 4.0 | 12.0 | 0.00 | 0.00 | 0.00 | 85 | 1004.5 |
| 20260509133214 | 57 | 290 | 3.0 | 12.0 | 0.00 | 0.00 | 0.00 | 85 | 1004.5 |
| 20260509133105 | 57 | 202 | 3.0 | 12.0 | 0.00 | 0.00 | 0.00 | 86 | 1004.4 |
| 20260509133028 | 57 | 300 | 5.0 | 12.0 | 0.00 | 0.00 | 0.00 | 86 | 1004.6 |
| 20260509132857 | 57 | 237 | 4.0 | 12.0 | 0.00 | 0.00 | 0.00 | 86 | 1004.7 |
| 20260509132808 | 56 | 225 | 4.0 | 9.0 | 0.00 | 0.00 | 0.00 | 86 | 1004.5 |
| 20260509132717 | 56 | 134 | 4.0 | 9.0 | 0.00 | 0.00 | 0.00 | 86 | 1004.6 |
| 20260509132628 | 56 | 213 | 4.0 | 9.0 | 0.00 | 0.00 | 0.00 | 86 | 1004.6 |
| 20260509132517 | 56 | 249 | 4.0 | 9.0 | 0.00 | 0.00 | 0.00 | 86 | 1004.6 |
| 20260509132411 | 56 | 230 | 4.0 | 9.0 | 0.00 | 0.00 | 0.00 | 86 | 1004.5 |
| 20260509132321 | 56 | 246 | 5.0 | 9.0 | 0.00 | 0.00 | 0.00 | 86 | 1004.6 |
| 20260509132212 | 56 | 202 | 5.0 | 9.0 | 0.00 | 0.00 | 0.00 | 86 | 1004.7 |
| 20260509132104 | 56 | 230 | 5.0 | 9.0 | 0.00 | 0.00 | 0.00 | 86 | 1004.6 |
| 20260509132014 | 56 | 216 | 4.0 | 9.0 | 0.00 | 0.00 | 0.00 | 86 | 1004.5 |
| 20260509131926 | 56 | 237 | 4.0 | 9.0 | 0.00 | 0.00 | 0.00 | 86 | 1004.6 |
| 20260509131836 | 56 | 232 | 4.0 | 9.0 | 0.00 | 0.00 | 0.00 | 86 | 1004.5 |
| 20260509131745 | 56 | 260 | 5.0 | 9.0 | 0.00 | 0.00 | 0.00 | 86 | 1004.6 |
| 20260509131634 | 56 | 200 | 3.0 | 8.0 | 0.00 | 0.00 | 0.00 | 87 | 1004.6 |
| 20260509131536 | 56 | 267 | 3.0 | 8.0 | 0.00 | 0.00 | 0.00 | 87 | 1004.6 |
| 20260509131405 | 56 | 293 | 4.0 | 8.0 | 0.00 | 0.00 | 0.00 | 87 | 1004.7 |
| 20260509131300 | 56 | 249 | 5.0 | 8.0 | 0.00 | 0.00 | 0.00 | 87 | 1004.6 |
| 20260509131210 | 56 | 251 | 5.0 | 7.0 | 0.00 | 0.00 | 0.00 | 87 | 1004.5 |
| 20260509131120 | 56 | 202 | 4.0 | 8.0 | 0.00 | 0.00 | 0.00 | 87 | 1004.5 |
| 20260509131032 | 56 | 229 | 3.0 | 8.0 | 0.00 | 0.00 | 0.00 | 87 | 1004.4 |
| 20260509130901 | 56 | 265 | 3.0 | 8.0 | 0.00 | 0.00 | 0.00 | 87 | 1004.4 |
| 20260509130814 | 56 | 263 | 4.0 | 8.0 | 0.00 | 0.00 | 0.00 | 87 | 1004.3 |
| 20260509130704 | 56 | 259 | 4.0 | 8.0 | 0.00 | 0.00 | 0.00 | 87 | 1004.3 |
| 20260509130614 | 56 | 225 | 3.0 | 8.0 | 0.00 | 0.00 | 0.00 | 88 | 1004.3 |
| 20260509130505 | 55 | 304 | 4.0 | 8.0 | 0.00 | 0.00 | 0.00 | 88 | 1004.3 |
| 20260509130400 | 55 | 241 | 5.0 | 8.0 | 0.00 | 0.00 | 0.00 | 88 | 1004.3 |
| 20260509130313 | 55 | 229 | 5.0 | 9.0 | 0.00 | 0.00 | 0.00 | 89 | 1004.3 |
| 20260509130203 | 56 | 165 | 5.0 | 8.0 | 0.00 | 0.00 | 0.00 | 89 | 1004.3 |
| 20260509130114 | 56 | 267 | 4.0 | 8.0 | 0.00 | 0.00 | 0.00 | 90 | 1004.3 |
| 20260509130035 | 55 | 295 | 4.0 | 8.0 | 0.00 | 0.00 | 0.00 | 90 | 1004.3 |
| 20260509125926 | 55 | 127 | 3.0 | 8.0 | 0.00 | 0.00 | 0.00 | 90 | 1004.3 |
| 20260509125835 | 55 | 214 | 3.0 | 8.0 | 0.00 | 0.00 | 0.00 | 91 | 1004.4 |
| 20260509125726 | 55 | 239 | 3.0 | 8.0 | 0.00 | 0.00 | 0.00 | 91 | 1004.3 |
| 20260509125637 | 55 | 224 | 4.0 | 8.0 | 0.00 | 0.00 | 0.00 | 91 | 1004.3 |
| 20260509125506 | 55 | 218 | 4.0 | 7.0 | 0.00 | 0.00 | 0.00 | 91 | 1004.4 |
| 20260509125400 | 55 | 212 | 3.0 | 7.0 | 0.00 | 0.00 | 0.00 | 92 | 1004.2 |
| 20260509125310 | 55 | 175 | 2.0 | 7.0 | 0.00 | 0.00 | 0.00 | 92 | 1004.3 |
| 20260509125202 | 55 | 296 | 2.0 | 7.0 | 0.00 | 0.00 | 0.00 | 92 | 1004.3 |
| 20260509125113 | 54 | 87 | 3.0 | 7.0 | 0.00 | 0.00 | 0.00 | 92 | 1004.3 |
| 20260509125003 | 54 | 234 | 3.0 | 7.0 | 0.00 | 0.00 | 0.00 | 93 | 1004.3 |
| 20260509124912 | 54 | 133 | 3.0 | 7.0 | 0.00 | 0.00 | 0.00 | 93 | 1004.3 |
| 20260509124804 | 54 | 61 | 3.0 | 7.0 | 0.00 | 0.00 | 0.00 | 93 | 1004.3 |
| 20260509124714 | 54 | 71 | 4.0 | 7.0 | 0.00 | 0.00 | 0.00 | 93 | 1004.3 |
| 20260509124604 | 54 | 280 | 4.0 | 7.0 | 0.00 | 0.00 | 0.00 | 93 | 1004.4 |
| 20260509124530 | 54 | 213 | 3.0 | 6.0 | 0.00 | 0.00 | 0.00 | 93 | 1004.3 |
| 20260509124400 | 54 | 212 | 3.0 | 6.0 | 0.00 | 0.00 | 0.00 | 93 | 1004.4 |
| 20260509124312 | 54 | 58 | 3.0 | 6.0 | 0.00 | 0.00 | 0.00 | 93 | 1004.4 |
| 20260509124202 | 54 | 219 | 3.0 | 6.0 | 0.00 | 0.00 | 0.00 | 94 | 1004.4 |
| 20260509124114 | 54 | 83 | 3.0 | 6.0 | 0.00 | 0.00 | 0.00 | 94 | 1004.4 |
| 20260509124025 | 53 | 208 | 4.0 | 6.0 | 0.00 | 0.00 | 0.00 | 94 | 1004.4 |
| 20260509123936 | 53 | 293 | 3.0 | 6.0 | 0.00 | 0.00 | 0.00 | 94 | 1004.4 |
| 20260509123846 | 53 | 200 | 2.0 | 7.0 | 0.00 | 0.00 | 0.00 | 94 | 1004.4 |
| 20260509123735 | 53 | 113 | 2.0 | 7.0 | 0.00 | 0.00 | 0.00 | 94 | 1004.3 |
| 20260509123605 | 53 | 147 | 2.0 | 7.0 | 0.00 | 0.00 | 0.00 | 94 | 1004.3 |
| 20260509123459 | 53 | 114 | 1.0 | 7.0 | 0.00 | 0.00 | 0.00 | 94 | 1004.4 |
| 20260509123409 | 53 | 122 | 1.0 | 7.0 | 0.00 | 0.00 | 0.00 | 94 | 1004.4 |
| 20260509123301 | 53 | 74 | 1.0 | 7.0 | 0.00 | 0.00 | 0.00 | 94 | 1004.4 |
| 20260509123212 | 53 | 142 | 2.0 | 7.0 | 0.00 | 0.00 | 0.00 | 94 | 1004.4 |
| 20260509123103 | 53 | 295 | 4.0 | 7.0 | 0.00 | 0.00 | 0.00 | 94 | 1004.4 |
| 20260509123024 | 53 | 225 | 4.0 | 7.0 | 0.00 | 0.00 | 0.00 | 94 | 1004.4 |
| 20260509122915 | 53 | 333 | 3.0 | 7.0 | 0.00 | 0.00 | 0.00 | 94 | 1004.4 |
| 20260509122805 | 53 | 178 | 3.0 | 7.0 | 0.00 | 0.00 | 0.00 | 94 | 1004.4 |
| 20260509122717 | 53 | 251 | 3.0 | 7.0 | 0.00 | 0.00 | 0.00 | 94 | 1004.4 |
| 20260509122611 | 53 | 136 | 3.0 | 7.0 | 0.00 | 0.00 | 0.00 | 94 | 1004.3 |
| 20260509122501 | 53 | 178 | 2.0 | 6.0 | 0.00 | 0.00 | 0.00 | 94 | 1004.4 |
| 20260509122413 | 53 | 194 | 2.0 | 7.0 | 0.00 | 0.00 | 0.00 | 94 | 1004.4 |
| 20260509122306 | 53 | 229 | 3.0 | 8.0 | 0.00 | 0.00 | 0.00 | 94 | 1004.6 |
| 20260509122215 | 53 | 144 | 3.0 | 8.0 | 0.00 | 0.00 | 0.00 | 95 | 1004.6 |
| 20260509122105 | 53 | 94 | 2.0 | 8.0 | 0.00 | 0.00 | 0.00 | 95 | 1004.6 |
| 20260509122014 | 53 | 288 | 2.0 | 8.0 | 0.00 | 0.00 | 0.00 | 95 | 1004.5 |
| 20260509121905 | 53 | 147 | 2.0 | 8.0 | 0.00 | 0.00 | 0.00 | 95 | 1004.5 |
| 20260509121801 | 53 | 129 | 2.0 | 8.0 | 0.00 | 0.00 | 0.00 | 95 | 1004.5 |
| 20260509121713 | 52 | 264 | 3.0 | 8.0 | 0.00 | 0.00 | 0.00 | 94 | 1004.6 |
| 20260509121615 | 52 | 241 | 4.0 | 8.0 | 0.00 | 0.00 | 0.00 | 95 | 1004.5 |
| 20260509121517 | 52 | 232 | 3.0 | 8.0 | 0.00 | 0.00 | 0.00 | 95 | 1004.5 |
| 20260509121408 | 52 | 109 | 2.0 | 7.0 | 0.00 | 0.00 | 0.00 | 95 | 1004.6 |
| 20260509121258 | 52 | 243 | 2.0 | 7.0 | 0.00 | 0.00 | 0.00 | 95 | 1004.5 |
| 20260509121210 | 52 | 171 | 2.0 | 7.0 | 0.00 | 0.00 | 0.00 | 95 | 1004.6 |
| 20260509121101 | 52 | 360 | 2.0 | 7.0 | 0.00 | 0.00 | 0.00 | 95 | 1004.6 |
| 20260509121013 | 52 | 95 | 2.0 | 7.0 | 0.00 | 0.00 | 0.00 | 95 | 1004.6 |
| 20260509120907 | 52 | 140 | 3.0 | 7.0 | 0.00 | 0.00 | 0.00 | 95 | 1004.5 |
| 20260509120820 | 52 | 168 | 3.0 | 7.0 | 0.00 | 0.00 | 0.00 | 95 | 1004.6 |
| 20260509120731 | 52 | 192 | 3.0 | 7.0 | 0.00 | 0.00 | 0.00 | 95 | 1004.6 |
| 20260509120642 | 52 | 162 | 2.0 | 7.0 | 0.00 | 0.00 | 0.00 | 95 | 1004.6 |
| 20260509120532 | 52 | 227 | 2.0 | 5.0 | 0.00 | 0.00 | 0.00 | 95 | 1004.7 |
| 20260509120402 | 52 | 259 | 3.0 | 5.0 | 0.00 | 0.00 | 0.00 | 95 | 1004.6 |
| 20260509120315 | 52 | 173 | 3.0 | 5.0 | 0.00 | 0.00 | 0.00 | 95 | 1004.6 |
| 20260509120205 | 52 | 271 | 2.0 | 5.0 | 0.00 | 0.00 | 0.00 | 95 | 1004.7 |
| 20260509120114 | 52 | 182 | 2.0 | 5.0 | 0.00 | 0.00 | 0.00 | 95 | 1004.7 |
| 20260509120036 | 52 | 241 | 2.0 | 6.0 | 0.00 | 0.00 | 0.00 | 95 | 1004.7 |
| 20260509115910 | 52 | 228 | 1.0 | 5.0 | 0.00 | 0.00 | 0.00 | 95 | 1004.7 |
| 20260509115712 | 52 | 208 | 0.0 | 5.0 | 0.00 | 0.00 | 0.00 | 95 | 1004.8 |
| 20260509115603 | 52 | 156 | 1.0 | 5.0 | 0.00 | 0.00 | 0.00 | 95 | 1004.8 |
| 20260509115515 | 52 | 157 | 2.0 | 5.0 | 0.00 | 0.00 | 0.00 | 95 | 1004.8 |
| 20260509115404 | 52 | 253 | 3.0 | 5.0 | 0.00 | 0.00 | 0.00 | 96 | 1004.8 |
| 20260509115315 | 52 | 269 | 2.0 | 5.0 | 0.00 | 0.00 | 0.00 | 95 | 1004.8 |
| 20260509115205 | 52 | 209 | 1.0 | 4.0 | 0.00 | 0.00 | 0.00 | 95 | 1004.8 |
| 20260509115100 | 52 | 290 | 1.0 | 4.0 | 0.00 | 0.00 | 0.00 | 95 | 1004.8 |
| 20260509115011 | 52 | 146 | 2.0 | 4.0 | 0.00 | 0.00 | 0.00 | 95 | 1004.7 |
| 20260509114923 | 52 | 173 | 1.0 | 4.0 | 0.00 | 0.00 | 0.00 | 95 | 1004.7 |
| 20260509114813 | 52 | 265 | 1.0 | 4.0 | 0.00 | 0.00 | 0.00 | 95 | 1004.7 |
| 20260509114704 | 52 | 59 | 1.0 | 4.0 | 0.00 | 0.00 | 0.00 | 96 | 1004.7 |
| 20260509114616 | 52 | 269 | 2.0 | 5.0 | 0.00 | 0.00 | 0.00 | 96 | 1004.7 |
| 20260509114539 | 52 | 142 | 2.0 | 5.0 | 0.00 | 0.00 | 0.00 | 96 | 1004.7 |
| 20260509114429 | 52 | 143 | 1.0 | 5.0 | 0.00 | 0.00 | 0.00 | 96 | 1004.7 |
| 20260509114320 | 52 | 303 | 1.0 | 5.0 | 0.00 | 0.00 | 0.00 | 96 | 1004.6 |
| 20260509114230 | 52 | 243 | 1.0 | 5.0 | 0.00 | 0.00 | 0.00 | 96 | 1004.6 |
| 20260509114059 | 52 | 249 | 2.0 | 5.0 | 0.00 | 0.00 | 0.00 | 96 | 1004.7 |
| 20260509114014 | 52 | 270 | 2.0 | 6.0 | 0.00 | 0.00 | 0.00 | 96 | 1004.6 |
| 20260509113926 | 52 | 298 | 2.0 | 6.0 | 0.00 | 0.00 | 0.00 | 96 | 1004.6 |
| 20260509113837 | 52 | 246 | 2.0 | 6.0 | 0.00 | 0.00 | 0.00 | 96 | 1004.6 |
| 20260509113705 | 52 | 212 | 2.0 | 6.0 | 0.00 | 0.00 | 0.00 | 96 | 1004.6 |
| 20260509113615 | 52 | 86 | 3.0 | 6.0 | 0.00 | 0.00 | 0.00 | 96 | 1004.6 |
| 20260509113506 | 52 | 252 | 3.0 | 6.0 | 0.00 | 0.00 | 0.00 | 96 | 1004.5 |
| 20260509113358 | 52 | 194 | 2.0 | 6.0 | 0.00 | 0.00 | 0.00 | 96 | 1004.5 |
| 20260509113312 | 52 | 281 | 2.0 | 6.0 | 0.00 | 0.00 | 0.00 | 96 | 1004.5 |
| 20260509113221 | 52 | 103 | 3.0 | 6.0 | 0.00 | 0.00 | 0.00 | 96 | 1004.6 |
| 20260509113131 | 52 | 261 | 2.0 | 8.0 | 0.00 | 0.00 | 0.00 | 96 | 1004.5 |
| 20260509113057 | 52 | 323 | 2.0 | 8.0 | 0.00 | 0.00 | 0.00 | 96 | 1004.5 |
| 20260509112907 | 52 | 159 | 2.0 | 8.0 | 0.00 | 0.00 | 0.00 | 96 | 1004.4 |
| 20260509112757 | 52 | 157 | 1.0 | 8.0 | 0.00 | 0.00 | 0.00 | 96 | 1004.5 |
| 20260509112710 | 52 | 246 | 1.0 | 8.0 | 0.00 | 0.00 | 0.00 | 96 | 1004.4 |
| 20260509112620 | 51 | 155 | 3.0 | 8.0 | 0.00 | 0.00 | 0.00 | 96 | 1004.4 |
| 20260509112508 | 51 | 190 | 2.0 | 8.0 | 0.00 | 0.00 | 0.00 | 96 | 1004.4 |
| 20260509112358 | 51 | 174 | 2.0 | 8.0 | 0.00 | 0.00 | 0.00 | 96 | 1004.4 |
| 20260509112309 | 51 | 55 | 3.0 | 8.0 | 0.00 | 0.00 | 0.00 | 96 | 1004.4 |
| 20260509112218 | 51 | 271 | 3.0 | 6.0 | 0.00 | 0.00 | 0.00 | 96 | 1004.4 |
| 20260509112108 | 51 | 252 | 3.0 | 6.0 | 0.00 | 0.00 | 0.00 | 96 | 1004.4 |
| 20260509112002 | 51 | 195 | 3.0 | 6.0 | 0.00 | 0.00 | 0.00 | 96 | 1004.5 |
| 20260509111912 | 51 | 196 | 2.0 | 6.0 | 0.00 | 0.00 | 0.00 | 96 | 1004.4 |
| 20260509111822 | 51 | 151 | 2.0 | 6.0 | 0.00 | 0.00 | 0.00 | 96 | 1004.5 |
| 20260509111714 | 51 | 254 | 2.0 | 6.0 | 0.00 | 0.00 | 0.00 | 96 | 1004.5 |
| 20260509111616 | 51 | 146 | 1.0 | 6.0 | 0.00 | 0.00 | 0.00 | 96 | 1004.5 |
| 20260509111517 | 51 | 85 | 2.0 | 6.0 | 0.00 | 0.00 | 0.00 | 96 | 1004.5 |
| 20260509111407 | 51 | 162 | 3.0 | 6.0 | 0.00 | 0.00 | 0.00 | 96 | 1004.5 |
| 20260509111257 | 51 | 241 | 2.0 | 5.0 | 0.00 | 0.00 | 0.00 | 96 | 1004.5 |
| 20260509111207 | 51 | 254 | 1.0 | 5.0 | 0.00 | 0.00 | 0.00 | 96 | 1004.6 |
| 20260509111102 | 51 | 238 | 0.0 | 5.0 | 0.00 | 0.00 | 0.00 | 96 | 1004.6 |
| 20260509111012 | 51 | 238 | 1.0 | 5.0 | 0.00 | 0.00 | 0.00 | 96 | 1004.6 |
| 20260509110904 | 51 | 213 | 2.0 | 5.0 | 0.00 | 0.00 | 0.00 | 96 | 1004.6 |
| 20260509110815 | 51 | 223 | 2.0 | 5.0 | 0.00 | 0.00 | 0.00 | 96 | 1004.7 |
| 20260509110726 | 51 | 302 | 2.0 | 5.0 | 0.00 | 0.00 | 0.00 | 96 | 1004.6 |
| 20260509110616 | 51 | 119 | 2.0 | 5.0 | 0.00 | 0.00 | 0.00 | 96 | 1004.7 |
| 20260509110527 | 51 | 200 | 3.0 | 5.0 | 0.00 | 0.00 | 0.00 | 96 | 1004.6 |
| 20260509110356 | 51 | 155 | 3.0 | 5.0 | 0.00 | 0.00 | 0.00 | 96 | 1004.5 |
| 20260509110308 | 51 | 157 | 2.0 | 5.0 | 0.00 | 0.00 | 0.00 | 96 | 1004.6 |
| 20260509110156 | 51 | 237 | 2.0 | 6.0 | 0.00 | 0.00 | 0.00 | 96 | 1004.6 |
| 20260509110112 | 51 | 202 | 2.0 | 6.0 | 0.00 | 0.00 | 0.00 | 96 | 1004.7 |
| 20260509110033 | 51 | 286 | 2.0 | 6.0 | 0.00 | 0.00 | 0.00 | 96 | 1004.7 |
| 20260509105921 | 51 | 180 | 2.0 | 7.0 | 0.00 | 0.00 | 0.00 | 96 | 1004.6 |
| 20260509105833 | 51 | 163 | 2.0 | 7.0 | 0.00 | 0.00 | 0.00 | 96 | 1004.7 |
| 20260509105703 | 51 | 232 | 1.0 | 7.0 | 0.00 | 0.00 | 0.00 | 96 | 1004.7 |
| 20260509105613 | 51 | 164 | 1.0 | 7.0 | 0.00 | 0.00 | 0.00 | 96 | 1004.7 |
| 20260509105504 | 51 | 211 | 2.0 | 7.0 | 0.00 | 0.00 | 0.00 | 96 | 1004.7 |
| 20260509105415 | 51 | 211 | 3.0 | 7.0 | 0.00 | 0.00 | 0.00 | 96 | 1004.7 |
| 20260509105306 | 51 | 237 | 3.0 | 7.0 | 0.00 | 0.00 | 0.00 | 96 | 1004.7 |
| 20260509105216 | 51 | 136 | 3.0 | 7.0 | 0.00 | 0.00 | 0.00 | 96 | 1004.6 |
| 20260509105131 | 51 | 172 | 3.0 | 6.0 | 0.00 | 0.00 | 0.00 | 96 | 1004.6 |
| 20260509105042 | 51 | 190 | 2.0 | 6.0 | 0.00 | 0.00 | 0.00 | 96 | 1004.7 |
| 20260509104931 | 51 | 207 | 2.0 | 5.0 | 0.00 | 0.00 | 0.00 | 96 | 1004.7 |
| 20260509104800 | 51 | 240 | 3.0 | 5.0 | 0.00 | 0.00 | 0.00 | 96 | 1004.7 |
| 20260509104712 | 51 | 196 | 2.0 | 5.0 | 0.00 | 0.00 | 0.00 | 96 | 1004.7 |
| 20260509104602 | 51 | 231 | 1.0 | 5.0 | 0.00 | 0.00 | 0.00 | 96 | 1004.7 |
| 20260509104524 | 51 | 108 | 2.0 | 5.0 | 0.00 | 0.00 | 0.00 | 96 | 1004.8 |
| 20260509104414 | 51 | 175 | 2.0 | 5.0 | 0.00 | 0.00 | 0.00 | 96 | 1004.8 |
| 20260509104305 | 51 | 136 | 1.0 | 5.0 | 0.00 | 0.00 | 0.00 | 96 | 1004.8 |
| 20260509104216 | 51 | 264 | 2.0 | 5.0 | 0.00 | 0.00 | 0.00 | 96 | 1004.9 |
| 20260509104111 | 51 | 155 | 2.0 | 5.0 | 0.00 | 0.00 | 0.00 | 96 | 1004.9 |
| 20260509104001 | 51 | 255 | 2.0 | 5.0 | 0.00 | 0.00 | 0.00 | 96 | 1004.9 |
| 20260509103911 | 51 | 240 | 2.0 | 5.0 | 0.00 | 0.00 | 0.00 | 96 | 1004.9 |
| 20260509103801 | 51 | 256 | 2.0 | 6.0 | 0.00 | 0.00 | 0.00 | 96 | 1004.9 |
| 20260509103711 | 51 | 315 | 2.0 | 6.0 | 0.00 | 0.00 | 0.00 | 96 | 1004.9 |
| 20260509103603 | 51 | 183 | 2.0 | 5.0 | 0.00 | 0.00 | 0.00 | 96 | 1004.9 |
| 20260509103514 | 51 | 154 | 2.0 | 5.0 | 0.00 | 0.00 | 0.00 | 96 | 1005.0 |
| 20260509103406 | 51 | 215 | 2.0 | 5.0 | 0.00 | 0.00 | 0.00 | 96 | 1005.0 |
| 20260509103302 | 51 | 225 | 2.0 | 5.0 | 0.00 | 0.00 | 0.00 | 96 | 1005.0 |
| 20260509103212 | 51 | 251 | 3.0 | 5.0 | 0.00 | 0.00 | 0.00 | 96 | 1004.9 |
| 20260509103104 | 51 | 95 | 2.0 | 5.0 | 0.00 | 0.00 | 0.00 | 96 | 1005.0 |
| 20260509103026 | 50 | 252 | 2.0 | 5.0 | 0.00 | 0.00 | 0.00 | 96 | 1004.9 |
| 20260509102856 | 50 | 105 | 1.0 | 5.0 | 0.00 | 0.00 | 0.00 | 96 | 1005.0 |
| 20260509102806 | 51 | 260 | 1.0 | 5.0 | 0.00 | 0.00 | 0.00 | 96 | 1005.0 |
| 20260509102717 | 50 | 120 | 2.0 | 5.0 | 0.00 | 0.00 | 0.00 | 96 | 1004.9 |
| 20260509102608 | 50 | 284 | 2.0 | 5.0 | 0.00 | 0.00 | 0.00 | 96 | 1004.9 |
| 20260509102518 | 50 | 246 | 2.0 | 6.0 | 0.00 | 0.00 | 0.00 | 96 | 1005.0 |
| 20260509102407 | 51 | 169 | 2.0 | 6.0 | 0.00 | 0.00 | 0.00 | 96 | 1004.9 |
| 20260509102301 | 50 | 239 | 2.0 | 5.0 | 0.00 | 0.00 | 0.00 | 96 | 1004.9 |
| 20260509102212 | 50 | 298 | 2.0 | 5.0 | 0.00 | 0.00 | 0.00 | 96 | 1004.9 |
| 20260509102123 | 50 | 250 | 2.0 | 5.0 | 0.00 | 0.00 | 0.00 | 95 | 1004.9 |
| 20260509102012 | 50 | 317 | 2.0 | 5.0 | 0.00 | 0.00 | 0.00 | 96 | 1004.9 |
| 20260509101903 | 50 | 254 | 2.0 | 5.0 | 0.00 | 0.00 | 0.00 | 96 | 1004.9 |
| 20260509101814 | 50 | 287 | 1.0 | 5.0 | 0.00 | 0.00 | 0.00 | 96 | 1004.9 |
| 20260509101706 | 50 | 113 | 1.0 | 4.0 | 0.00 | 0.00 | 0.00 | 96 | 1004.9 |
| 20260509101616 | 50 | 125 | 1.0 | 4.0 | 0.00 | 0.00 | 0.00 | 96 | 1004.9 |
| 20260509101539 | 50 | 255 | 1.0 | 5.0 | 0.00 | 0.00 | 0.00 | 95 | 1005.0 |
| 20260509101430 | 50 | 348 | 2.0 | 5.0 | 0.00 | 0.00 | 0.00 | 96 | 1005.0 |
| 20260509101319 | 50 | 136 | 2.0 | 5.0 | 0.00 | 0.00 | 0.00 | 95 | 1005.0 |
| 20260509101234 | 50 | 266 | 1.0 | 5.0 | 0.00 | 0.00 | 0.00 | 95 | 1005.0 |
| 20260509101123 | 50 | 249 | 1.0 | 5.0 | 0.00 | 0.00 | 0.00 | 95 | 1005.1 |
| 20260509101013 | 50 | 232 | 1.0 | 5.0 | 0.00 | 0.00 | 0.00 | 95 | 1005.0 |
| 20260509100923 | 50 | 156 | 2.0 | 5.0 | 0.00 | 0.00 | 0.00 | 95 | 1005.1 |
| 20260509100812 | 50 | 218 | 2.0 | 5.0 | 0.00 | 0.00 | 0.00 | 95 | 1005.1 |
| 20260509100722 | 50 | 227 | 1.0 | 5.0 | 0.00 | 0.00 | 0.00 | 95 | 1005.1 |
| 20260509100611 | 50 | 238 | 2.0 | 4.0 | 0.00 | 0.00 | 0.00 | 95 | 1005.2 |
| 20260509100522 | 50 | 164 | 1.0 | 4.0 | 0.00 | 0.00 | 0.00 | 95 | 1005.2 |
| 20260509100411 | 50 | 245 | 1.0 | 4.0 | 0.00 | 0.00 | 0.00 | 95 | 1005.2 |
| 20260509100304 | 50 | 177 | 2.0 | 4.0 | 0.00 | 0.00 | 0.00 | 95 | 1005.1 |
| 20260509100213 | 50 | 183 | 2.0 | 4.0 | 0.00 | 0.00 | 0.00 | 95 | 1005.3 |
| 20260509100107 | 50 | 202 | 2.0 | 4.0 | 0.00 | 0.00 | 0.00 | 95 | 1005.2 |
| 20260509100030 | 50 | 250 | 2.0 | 4.0 | 0.00 | 0.00 | 0.00 | 95 | 1005.2 |
| 20260509095900 | 50 | 236 | 2.0 | 5.0 | 0.00 | 0.00 | 0.00 | 95 | 1005.1 |
| 20260509095810 | 50 | 252 | 1.0 | 5.0 | 0.00 | 0.00 | 0.00 | 95 | 1005.2 |
| 20260509095701 | 50 | 269 | 2.0 | 5.0 | 0.00 | 0.00 | 0.00 | 95 | 1005.2 |
| 20260509095611 | 50 | 186 | 2.0 | 5.0 | 0.00 | 0.00 | 0.00 | 95 | 1005.2 |
| 20260509095503 | 50 | 259 | 2.0 | 5.0 | 0.00 | 0.00 | 0.00 | 95 | 1005.2 |
| 20260509095414 | 50 | 255 | 2.0 | 5.0 | 0.00 | 0.00 | 0.00 | 95 | 1005.2 |
| 20260509095306 | 50 | 129 | 2.0 | 5.0 | 0.00 | 0.00 | 0.00 | 95 | 1005.1 |
| 20260509095219 | 50 | 256 | 2.0 | 5.0 | 0.00 | 0.00 | 0.00 | 95 | 1005.1 |
| 20260509095109 | 50 | 211 | 2.0 | 5.0 | 0.00 | 0.00 | 0.00 | 95 | 1005.2 |
| 20260509095000 | 50 | 288 | 2.0 | 6.0 | 0.00 | 0.00 | 0.00 | 95 | 1005.1 |
| 20260509094909 | 50 | 203 | 2.0 | 6.0 | 0.00 | 0.00 | 0.00 | 95 | 1005.2 |
| 20260509094801 | 50 | 219 | 2.0 | 6.0 | 0.00 | 0.00 | 0.00 | 95 | 1005.3 |
| 20260509094712 | 50 | 246 | 2.0 | 6.0 | 0.00 | 0.00 | 0.00 | 95 | 1005.2 |
| 20260509094622 | 50 | 252 | 1.0 | 4.0 | 0.00 | 0.00 | 0.00 | 95 | 1005.3 |
| 20260509094522 | 50 | 173 | 1.0 | 4.0 | 0.00 | 0.00 | 0.00 | 95 | 1005.1 |
| 20260509094414 | 50 | 225 | 2.0 | 4.0 | 0.00 | 0.00 | 0.00 | 95 | 1005.2 |
| 20260509094304 | 50 | 274 | 2.0 | 5.0 | 0.00 | 0.00 | 0.00 | 95 | 1005.2 |
| 20260509094159 | 50 | 132 | 1.0 | 5.0 | 0.00 | 0.00 | 0.00 | 95 | 1005.2 |
| 20260509094109 | 50 | 297 | 1.0 | 5.0 | 0.00 | 0.00 | 0.00 | 95 | 1005.2 |
| 20260509094020 | 50 | 246 | 2.0 | 5.0 | 0.00 | 0.00 | 0.00 | 95 | 1005.2 |
| 20260509093931 | 50 | 292 | 1.0 | 5.0 | 0.00 | 0.00 | 0.00 | 95 | 1005.1 |
| 20260509093800 | 50 | 120 | 1.0 | 5.0 | 0.00 | 0.00 | 0.00 | 95 | 1005.2 |
| 20260509093711 | 50 | 161 | 1.0 | 5.0 | 0.00 | 0.00 | 0.00 | 95 | 1005.2 |
| 20260509093602 | 50 | 257 | 2.0 | 5.0 | 0.00 | 0.00 | 0.00 | 95 | 1005.2 |
| 20260509093513 | 50 | 99 | 2.0 | 5.0 | 0.00 | 0.00 | 0.00 | 95 | 1005.1 |
| 20260509093425 | 50 | 275 | 1.0 | 5.0 | 0.00 | 0.00 | 0.00 | 95 | 1005.2 |
| 20260509093301 | 50 | 80 | 1.0 | 5.0 | 0.00 | 0.00 | 0.00 | 95 | 1005.1 |
| 20260509093209 | 50 | 246 | 2.0 | 5.0 | 0.00 | 0.00 | 0.00 | 95 | 1005.1 |
| 20260509093101 | 50 | 229 | 2.0 | 5.0 | 0.00 | 0.00 | 0.00 | 95 | 1005.2 |
| 20260509093023 | 50 | 169 | 2.0 | 5.0 | 0.00 | 0.00 | 0.00 | 95 | 1005.0 |
| 20260509092912 | 50 | 156 | 1.0 | 5.0 | 0.00 | 0.00 | 0.00 | 94 | 1005.1 |
| 20260509092823 | 50 | 228 | 1.0 | 5.0 | 0.00 | 0.00 | 0.00 | 95 | 1005.0 |
| 20260509092733 | 50 | 50 | 1.0 | 4.0 | 0.00 | 0.00 | 0.00 | 95 | 1005.0 |
| 20260509092644 | 50 | 245 | 1.0 | 4.0 | 0.00 | 0.00 | 0.00 | 94 | 1005.0 |
| 20260509092535 | 50 | 262 | 2.0 | 4.0 | 0.00 | 0.00 | 0.00 | 95 | 1005.0 |
| 20260509092404 | 50 | 154 | 2.0 | 4.0 | 0.00 | 0.00 | 0.00 | 95 | 1005.0 |
| 20260509092258 | 50 | 308 | 2.0 | 4.0 | 0.00 | 0.00 | 0.00 | 94 | 1005.0 |
| 20260509092208 | 50 | 131 | 1.0 | 4.0 | 0.00 | 0.00 | 0.00 | 94 | 1005.0 |
| 20260509092100 | 50 | 192 | 1.0 | 4.0 | 0.00 | 0.00 | 0.00 | 94 | 1005.0 |
| 20260509092011 | 50 | 192 | 2.0 | 4.0 | 0.00 | 0.00 | 0.00 | 94 | 1005.0 |
| 20260509091902 | 50 | 146 | 1.0 | 4.0 | 0.00 | 0.00 | 0.00 | 94 | 1005.1 |
| 20260509091812 | 50 | 138 | 1.0 | 4.0 | 0.00 | 0.00 | 0.00 | 94 | 1005.2 |
| 20260509091703 | 50 | 165 | 1.0 | 4.0 | 0.00 | 0.00 | 0.00 | 94 | 1005.1 |
| 20260509091613 | 50 | 254 | 2.0 | 4.0 | 0.00 | 0.00 | 0.00 | 94 | 1005.0 |
| 20260509091535 | 50 | 147 | 2.0 | 4.0 | 0.00 | 0.00 | 0.00 | 94 | 1005.2 |
| 20260509091425 | 50 | 176 | 2.0 | 5.0 | 0.00 | 0.00 | 0.00 | 94 | 1005.1 |
| 20260509091258 | 50 | 150 | 2.0 | 5.0 | 0.00 | 0.00 | 0.00 | 94 | 1005.2 |
| 20260509091209 | 50 | 202 | 2.0 | 5.0 | 0.00 | 0.00 | 0.00 | 94 | 1005.2 |
| 20260509091100 | 50 | 232 | 2.0 | 5.0 | 0.00 | 0.00 | 0.00 | 94 | 1005.2 |
| 20260509091012 | 50 | 219 | 2.0 | 5.0 | 0.00 | 0.00 | 0.00 | 94 | 1005.2 |
| 20260509090903 | 50 | 171 | 2.0 | 5.0 | 0.00 | 0.00 | 0.00 | 94 | 1005.1 |
| 20260509090814 | 50 | 168 | 1.0 | 5.0 | 0.00 | 0.00 | 0.00 | 94 | 1005.1 |
| 20260509090704 | 50 | 163 | 1.0 | 5.0 | 0.00 | 0.00 | 0.00 | 94 | 1005.1 |
| 20260509090615 | 50 | 152 | 1.0 | 5.0 | 0.00 | 0.00 | 0.00 | 94 | 1005.2 |
| 20260509090527 | 50 | 190 | 2.0 | 5.0 | 0.00 | 0.00 | 0.00 | 94 | 1005.0 |
| 20260509090400 | 50 | 152 | 1.0 | 5.0 | 0.00 | 0.00 | 0.00 | 94 | 1005.0 |
| 20260509090312 | 50 | 162 | 1.0 | 4.0 | 0.00 | 0.00 | 0.00 | 94 | 1005.2 |
| 20260509090201 | 50 | 133 | 0.0 | 4.0 | 0.00 | 0.00 | 0.00 | 94 | 1005.2 |
| 20260509090113 | 50 | 232 | 0.0 | 4.0 | 0.00 | 0.00 | 0.00 | 94 | 1005.2 |
| 20260509090034 | 50 | 222 | 1.0 | 4.0 | 0.00 | 0.00 | 0.00 | 94 | 1005.1 |
| 20260509085924 | 50 | 153 | 2.0 | 4.0 | 0.00 | 0.00 | 0.00 | 94 | 1005.1 |
| 20260509085812 | 50 | 150 | 1.0 | 4.0 | 0.00 | 0.00 | 0.00 | 94 | 1005.0 |
| 20260509085703 | 50 | 164 | 1.0 | 5.0 | 0.00 | 0.00 | 0.00 | 94 | 1005.1 |
| 20260509085614 | 50 | 140 | 0.0 | 5.0 | 0.00 | 0.00 | 0.00 | 94 | 1005.1 |
| 20260509085525 | 50 | 211 | 1.0 | 5.0 | 0.00 | 0.00 | 0.00 | 94 | 1005.2 |
| 20260509085359 | 50 | 128 | 2.0 | 5.0 | 0.00 | 0.00 | 0.00 | 94 | 1005.2 |
| 20260509085309 | 50 | 252 | 2.0 | 5.0 | 0.00 | 0.00 | 0.00 | 94 | 1005.2 |
| 20260509085200 | 50 | 151 | 2.0 | 4.0 | 0.00 | 0.00 | 0.00 | 94 | 1005.2 |
| 20260509085112 | 50 | 160 | 1.0 | 4.0 | 0.00 | 0.00 | 0.00 | 93 | 1005.1 |
| 20260509085024 | 50 | 141 | 0.0 | 3.0 | 0.00 | 0.00 | 0.00 | 94 | 1005.2 |
| 20260509084913 | 50 | 165 | 1.0 | 3.0 | 0.00 | 0.00 | 0.00 | 94 | 1005.2 |
| 20260509084805 | 50 | 165 | 0.0 | 3.0 | 0.00 | 0.00 | 0.00 | 94 | 1005.2 |
| 20260509084717 | 50 | 146 | 0.0 | 3.0 | 0.00 | 0.00 | 0.00 | 94 | 1005.2 |
| 20260509084628 | 50 | 264 | 1.0 | 3.0 | 0.00 | 0.00 | 0.00 | 94 | 1005.2 |
| 20260509084529 | 50 | 275 | 1.0 | 3.0 | 0.00 | 0.00 | 0.00 | 94 | 1005.2 |
| 20260509084404 | 50 | 179 | 1.0 | 4.0 | 0.00 | 0.00 | 0.00 | 94 | 1005.2 |
| 20260509084314 | 50 | 144 | 1.0 | 4.0 | 0.00 | 0.00 | 0.00 | 94 | 1005.2 |
| 20260509084224 | 50 | 196 | 1.0 | 4.0 | 0.00 | 0.00 | 0.00 | 93 | 1005.3 |
| 20260509084135 | 50 | 163 | 1.0 | 4.0 | 0.00 | 0.00 | 0.00 | 93 | 1005.3 |
| 20260509084025 | 50 | 149 | 1.0 | 4.0 | 0.00 | 0.00 | 0.00 | 93 | 1005.2 |
| 20260509083936 | 50 | 172 | 1.0 | 4.0 | 0.00 | 0.00 | 0.00 | 93 | 1005.2 |
| 20260509083806 | 50 | 186 | 2.0 | 4.0 | 0.00 | 0.00 | 0.00 | 93 | 1005.3 |
| 20260509083717 | 50 | 164 | 2.0 | 4.0 | 0.00 | 0.00 | 0.00 | 93 | 1005.3 |
| 20260509083607 | 50 | 232 | 1.0 | 3.0 | 0.00 | 0.00 | 0.00 | 93 | 1005.4 |
| 20260509083518 | 50 | 241 | 1.0 | 3.0 | 0.00 | 0.00 | 0.00 | 93 | 1005.4 |
| 20260509083428 | 50 | 169 | 2.0 | 3.0 | 0.00 | 0.00 | 0.00 | 93 | 1005.3 |
| 20260509083303 | 50 | 157 | 1.0 | 3.0 | 0.00 | 0.00 | 0.00 | 93 | 1005.4 |
| 20260509083213 | 50 | 141 | 1.0 | 3.0 | 0.00 | 0.00 | 0.00 | 93 | 1005.4 |
| 20260509083124 | 50 | 172 | 1.0 | 3.0 | 0.00 | 0.00 | 0.00 | 93 | 1005.4 |
| 20260509083025 | 50 | 257 | 1.0 | 3.0 | 0.00 | 0.00 | 0.00 | 93 | 1005.3 |
| 20260509082856 | 50 | 157 | 1.0 | 3.0 | 0.00 | 0.00 | 0.00 | 93 | 1005.3 |
| 20260509082809 | 50 | 157 | 1.0 | 3.0 | 0.00 | 0.00 | 0.00 | 93 | 1005.3 |
| 20260509082700 | 50 | 184 | 2.0 | 3.0 | 0.00 | 0.00 | 0.00 | 93 | 1005.3 |
| 20260509082610 | 50 | 174 | 2.0 | 4.0 | 0.00 | 0.00 | 0.00 | 93 | 1005.3 |
| 20260509082520 | 51 | 128 | 1.0 | 3.0 | 0.00 | 0.00 | 0.00 | 93 | 1005.4 |
| 20260509082432 | 50 | 224 | 1.0 | 4.0 | 0.00 | 0.00 | 0.00 | 93 | 1005.3 |
| 20260509082326 | 51 | 163 | 0.0 | 5.0 | 0.00 | 0.00 | 0.00 | 93 | 1005.3 |
| 20260509082237 | 51 | 163 | 0.0 | 5.0 | 0.00 | 0.00 | 0.00 | 93 | 1005.3 |
| 20260509082106 | 51 | 163 | 0.0 | 5.0 | 0.00 | 0.00 | 0.00 | 93 | 1005.3 |
| 20260509081957 | 51 | 168 | 1.0 | 5.0 | 0.00 | 0.00 | 0.00 | 93 | 1005.4 |
| 20260509081907 | 51 | 168 | 1.0 | 5.0 | 0.00 | 0.00 | 0.00 | 93 | 1005.3 |
| 20260509081757 | 51 | 176 | 1.0 | 5.0 | 0.00 | 0.00 | 0.00 | 93 | 1005.4 |
| 20260509081708 | 51 | 176 | 2.0 | 5.0 | 0.00 | 0.00 | 0.00 | 93 | 1005.3 |
| 20260509081559 | 51 | 165 | 2.0 | 5.0 | 0.00 | 0.00 | 0.00 | 93 | 1005.2 |
| 20260509081522 | 51 | 156 | 1.0 | 5.0 | 0.00 | 0.00 | 0.00 | 93 | 1005.3 |
| 20260509081415 | 51 | 184 | 1.0 | 5.0 | 0.00 | 0.00 | 0.00 | 93 | 1005.3 |
| 20260509081306 | 51 | 186 | 1.0 | 5.0 | 0.00 | 0.00 | 0.00 | 93 | 1005.4 |
| 20260509081158 | 51 | 218 | 2.0 | 4.0 | 0.00 | 0.00 | 0.00 | 93 | 1005.3 |
| 20260509081107 | 51 | 159 | 1.0 | 4.0 | 0.00 | 0.00 | 0.00 | 93 | 1005.3 |
| 20260509080957 | 51 | 202 | 0.0 | 3.0 | 0.00 | 0.00 | 0.00 | 93 | 1005.4 |
| 20260509080909 | 51 | 202 | 1.0 | 3.0 | 0.00 | 0.00 | 0.00 | 93 | 1005.4 |
| 20260509080758 | 51 | 202 | 2.0 | 3.0 | 0.00 | 0.00 | 0.00 | 93 | 1005.4 |
| 20260509080710 | 51 | 178 | 2.0 | 3.0 | 0.00 | 0.00 | 0.00 | 93 | 1005.4 |
| 20260509080605 | 51 | 165 | 1.0 | 3.0 | 0.00 | 0.00 | 0.00 | 93 | 1005.4 |
| 20260509080456 | 51 | 163 | 1.0 | 3.0 | 0.00 | 0.00 | 0.00 | 93 | 1005.4 |
| 20260509080407 | 51 | 150 | 1.0 | 3.0 | 0.00 | 0.00 | 0.00 | 93 | 1005.4 |
| 20260509080320 | 51 | 169 | 1.0 | 3.0 | 0.00 | 0.00 | 0.00 | 93 | 1005.4 |
| 20260509080207 | 51 | 172 | 1.0 | 3.0 | 0.00 | 0.00 | 0.00 | 93 | 1005.4 |
| 20260509080058 | 51 | 196 | 1.0 | 3.0 | 0.00 | 0.00 | 0.00 | 93 | 1005.4 |
| 20260509080021 | 51 | 151 | 1.0 | 4.0 | 0.00 | 0.00 | 0.00 | 93 | 1005.5 |
| 20260509075911 | 51 | 154 | 2.0 | 4.0 | 0.00 | 0.00 | 0.00 | 93 | 1005.5 |
| 20260509075802 | 51 | 176 | 1.0 | 4.0 | 0.00 | 0.00 | 0.00 | 93 | 1005.4 |
| 20260509075656 | 51 | 139 | 1.0 | 4.0 | 0.00 | 0.00 | 0.00 | 93 | 1005.5 |
| 20260509075608 | 51 | 275 | 1.0 | 4.0 | 0.00 | 0.00 | 0.00 | 93 | 1005.5 |
| 20260509075519 | 51 | 169 | 2.0 | 4.0 | 0.00 | 0.00 | 0.00 | 92 | 1005.5 |
| 20260509075408 | 51 | 146 | 2.0 | 4.0 | 0.00 | 0.00 | 0.00 | 92 | 1005.4 |
| 20260509075259 | 51 | 148 | 1.0 | 4.0 | 0.00 | 0.00 | 0.00 | 92 | 1005.4 |
| 20260509075210 | 51 | 151 | 0.0 | 3.0 | 0.00 | 0.00 | 0.00 | 92 | 1005.5 |
| 20260509075100 | 51 | 201 | 0.0 | 3.0 | 0.00 | 0.00 | 0.00 | 92 | 1005.5 |
| 20260509075011 | 51 | 201 | 0.0 | 3.0 | 0.00 | 0.00 | 0.00 | 92 | 1005.5 |
| 20260509074901 | 51 | 201 | 0.0 | 3.0 | 0.00 | 0.00 | 0.00 | 92 | 1005.5 |
| 20260509074756 | 51 | 201 | 0.0 | 3.0 | 0.00 | 0.00 | 0.00 | 92 | 1005.5 |
| 20260509074707 | 51 | 201 | 0.0 | 3.0 | 0.00 | 0.00 | 0.00 | 92 | 1005.5 |
| 20260509074558 | 51 | 202 | 1.0 | 3.0 | 0.00 | 0.00 | 0.00 | 92 | 1005.6 |
| 20260509074520 | 51 | 202 | 1.0 | 3.0 | 0.00 | 0.00 | 0.00 | 92 | 1005.5 |
| 20260509074409 | 51 | 151 | 0.0 | 3.0 | 0.00 | 0.00 | 0.00 | 92 | 1005.5 |
| 20260509074259 | 51 | 148 | 0.0 | 3.0 | 0.00 | 0.00 | 0.00 | 92 | 1005.6 |
| 20260509074210 | 51 | 148 | 1.0 | 3.0 | 0.00 | 0.00 | 0.00 | 92 | 1005.4 |
| 20260509074101 | 51 | 148 | 1.0 | 3.0 | 0.00 | 0.00 | 0.00 | 92 | 1005.5 |
| 20260509074012 | 51 | 148 | 1.0 | 3.0 | 0.00 | 0.00 | 0.00 | 92 | 1005.6 |
| 20260509073922 | 51 | 148 | 1.0 | 3.0 | 0.00 | 0.00 | 0.00 | 92 | 1005.5 |
| 20260509073837 | 51 | 148 | 0.0 | 3.0 | 0.00 | 0.00 | 0.00 | 92 | 1005.5 |
| 20260509073727 | 51 | 207 | 0.0 | 3.0 | 0.00 | 0.00 | 0.00 | 92 | 1005.6 |
| 20260509073556 | 51 | 189 | 0.0 | 3.0 | 0.00 | 0.00 | 0.00 | 92 | 1005.5 |
| 20260509073508 | 51 | 232 | 0.0 | 3.0 | 0.00 | 0.00 | 0.00 | 92 | 1005.6 |
| 20260509073418 | 51 | 144 | 1.0 | 3.0 | 0.00 | 0.00 | 0.00 | 92 | 1005.5 |
| 20260509073309 | 51 | 144 | 1.0 | 3.0 | 0.00 | 0.00 | 0.00 | 92 | 1005.5 |
| 20260509073158 | 51 | 132 | 1.0 | 3.0 | 0.00 | 0.00 | 0.00 | 92 | 1005.6 |
| 20260509073109 | 51 | 132 | 2.0 | 3.0 | 0.00 | 0.00 | 0.00 | 92 | 1005.6 |
| 20260509073032 | 51 | 190 | 1.0 | 3.0 | 0.00 | 0.00 | 0.00 | 92 | 1005.6 |
| 20260509072902 | 51 | 155 | 1.0 | 3.0 | 0.00 | 0.00 | 0.00 | 92 | 1005.6 |
| 20260509072757 | 51 | 155 | 2.0 | 3.0 | 0.00 | 0.00 | 0.00 | 92 | 1005.5 |
| 20260509072708 | 51 | 157 | 1.0 | 3.0 | 0.00 | 0.00 | 0.00 | 92 | 1005.6 |
| 20260509072600 | 51 | 132 | 0.0 | 3.0 | 0.00 | 0.00 | 0.00 | 92 | 1005.6 |
| 20260509072510 | 51 | 181 | 0.0 | 3.0 | 0.00 | 0.00 | 0.00 | 92 | 1005.5 |
| 20260509072402 | 51 | 227 | 0.0 | 3.0 | 0.00 | 0.00 | 0.00 | 92 | 1005.6 |
| 20260509072313 | 51 | 236 | 1.0 | 3.0 | 0.00 | 0.00 | 0.00 | 92 | 1005.7 |
| 20260509072204 | 51 | 236 | 1.0 | 3.0 | 0.00 | 0.00 | 0.00 | 92 | 1005.6 |
| 20260509072114 | 51 | 153 | 1.0 | 3.0 | 0.00 | 0.00 | 0.00 | 92 | 1005.7 |
| 20260509072026 | 51 | 153 | 1.0 | 3.0 | 0.00 | 0.00 | 0.00 | 92 | 1005.6 |
| 20260509071940 | 51 | 141 | 0.0 | 2.0 | 0.00 | 0.00 | 0.00 | 91 | 1005.7 |
| 20260509071826 | 51 | 141 | 0.0 | 2.0 | 0.00 | 0.00 | 0.00 | 91 | 1005.7 |
| 20260509071736 | 51 | 141 | 0.0 | 2.0 | 0.00 | 0.00 | 0.00 | 91 | 1005.7 |
| 20260509071607 | 51 | 141 | 0.0 | 2.0 | 0.00 | 0.00 | 0.00 | 91 | 1005.7 |
| 20260509071529 | 51 | 185 | 0.0 | 2.0 | 0.00 | 0.00 | 0.00 | 91 | 1005.8 |
| 20260509071400 | 51 | 185 | 0.0 | 2.0 | 0.00 | 0.00 | 0.00 | 91 | 1005.8 |
| 20260509071311 | 51 | 185 | 0.0 | 2.0 | 0.00 | 0.00 | 0.00 | 91 | 1005.8 |
| 20260509071201 | 51 | 185 | 0.0 | 1.0 | 0.00 | 0.00 | 0.00 | 91 | 1005.8 |
| 20260509071111 | 51 | 186 | 0.0 | 1.0 | 0.00 | 0.00 | 0.00 | 91 | 1005.9 |
| 20260509071005 | 51 | 242 | 0.0 | 0.0 | 0.00 | 0.00 | 0.00 | 91 | 1005.9 |
| 20260509070916 | 51 | 242 | 0.0 | 0.0 | 0.00 | 0.00 | 0.00 | 91 | 1005.8 |
| 20260509070805 | 51 | 242 | 0.0 | 0.0 | 0.00 | 0.00 | 0.00 | 91 | 1005.9 |
| 20260509070656 | 51 | 242 | 0.0 | 0.0 | 0.00 | 0.00 | 0.00 | 91 | 1005.9 |
| 20260509070608 | 51 | 242 | 0.0 | 0.0 | 0.00 | 0.00 | 0.00 | 91 | 1005.9 |
| 20260509070500 | 51 | 242 | 0.0 | 0.0 | 0.00 | 0.00 | 0.00 | 91 | 1006.0 |
| 20260509070411 | 51 | 242 | 0.0 | 0.0 | 0.00 | 0.00 | 0.00 | 91 | 1005.9 |
| 20260509070304 | 51 | 123 | 0.0 | 0.0 | 0.00 | 0.00 | 0.00 | 91 | 1006.0 |
| 20260509070156 | 51 | 214 | 0.0 | 0.0 | 0.00 | 0.00 | 0.00 | 91 | 1006.0 |
| 20260509070107 | 51 | 214 | 0.0 | 0.0 | 0.00 | 0.00 | 0.00 | 90 | 1006.0 |
| 20260509070028 | 51 | 214 | 0.0 | 0.0 | 0.00 | 0.00 | 0.00 | 90 | 1006.0 |
| 20260509065857 | 51 | 214 | 0.0 | 0.0 | 0.00 | 0.00 | 0.00 | 90 | 1005.9 |
| 20260509065807 | 51 | 214 | 0.0 | 0.0 | 0.00 | 0.00 | 0.00 | 90 | 1005.9 |
| 20260509065657 | 51 | 214 | 0.0 | 0.0 | 0.00 | 0.00 | 0.00 | 90 | 1006.0 |
| 20260509065609 | 51 | 214 | 0.0 | 0.0 | 0.00 | 0.00 | 0.00 | 90 | 1005.9 |
| 20260509065500 | 51 | 214 | 0.0 | 0.0 | 0.00 | 0.00 | 0.00 | 90 | 1005.9 |
| 20260509065411 | 51 | 214 | 0.0 | 0.0 | 0.00 | 0.00 | 0.00 | 90 | 1006.0 |
| 20260509065307 | 51 | 214 | 0.0 | 0.0 | 0.00 | 0.00 | 0.00 | 90 | 1005.9 |
| 20260509065218 | 51 | 214 | 0.0 | 1.0 | 0.00 | 0.00 | 0.00 | 90 | 1006.0 |
| 20260509065107 | 51 | 214 | 0.0 | 3.0 | 0.00 | 0.00 | 0.00 | 90 | 1005.8 |
| 20260509064957 | 51 | 214 | 0.0 | 3.0 | 0.00 | 0.00 | 0.00 | 90 | 1005.9 |
| 20260509064909 | 51 | 214 | 0.0 | 3.0 | 0.00 | 0.00 | 0.00 | 90 | 1005.9 |
| 20260509064759 | 51 | 214 | 0.0 | 3.0 | 0.00 | 0.00 | 0.00 | 90 | 1006.0 |
| 20260509064712 | 51 | 214 | 0.0 | 3.0 | 0.00 | 0.00 | 0.00 | 90 | 1005.9 |
| 20260509064621 | 52 | 214 | 0.0 | 3.0 | 0.00 | 0.00 | 0.00 | 90 | 1005.9 |
| 20260509064542 | 52 | 214 | 0.0 | 3.0 | 0.00 | 0.00 | 0.00 | 90 | 1005.9 |
| 20260509064433 | 52 | 214 | 1.0 | 3.0 | 0.00 | 0.00 | 0.00 | 90 | 1005.9 |
| 20260509064307 | 52 | 214 | 1.0 | 3.0 | 0.00 | 0.00 | 0.00 | 90 | 1006.0 |
| 20260509064156 | 52 | 214 | 1.0 | 3.0 | 0.00 | 0.00 | 0.00 | 90 | 1005.9 |
| 20260509064108 | 52 | 146 | 0.0 | 3.0 | 0.00 | 0.00 | 0.00 | 90 | 1005.9 |
| 20260509063958 | 52 | 146 | 0.0 | 3.0 | 0.00 | 0.00 | 0.00 | 90 | 1005.8 |
| 20260509063909 | 52 | 146 | 0.0 | 3.0 | 0.00 | 0.00 | 0.00 | 90 | 1005.8 |
| 20260509063801 | 52 | 146 | 0.0 | 3.0 | 0.00 | 0.00 | 0.00 | 90 | 1005.8 |
| 20260509063714 | 52 | 146 | 1.0 | 3.0 | 0.00 | 0.00 | 0.00 | 90 | 1005.9 |
| 20260509063625 | 52 | 146 | 1.0 | 3.0 | 0.00 | 0.00 | 0.00 | 90 | 1005.8 |
| 20260509063515 | 52 | 146 | 0.0 | 3.0 | 0.00 | 0.00 | 0.00 | 90 | 1005.9 |
| 20260509063425 | 52 | 146 | 1.0 | 3.0 | 0.00 | 0.00 | 0.00 | 90 | 1005.9 |
| 20260509063300 | 52 | 146 | 1.0 | 3.0 | 0.00 | 0.00 | 0.00 | 90 | 1005.9 |
| 20260509063210 | 52 | 156 | 1.0 | 2.0 | 0.00 | 0.00 | 0.00 | 90 | 1005.8 |
| 20260509063056 | 52 | 156 | 1.0 | 2.0 | 0.00 | 0.00 | 0.00 | 90 | 1005.8 |
| 20260509063020 | 52 | 156 | 1.0 | 2.0 | 0.00 | 0.00 | 0.00 | 90 | 1005.9 |
| 20260509062911 | 52 | 176 | 1.0 | 2.0 | 0.00 | 0.00 | 0.00 | 89 | 1005.9 |
| 20260509062820 | 52 | 165 | 1.0 | 2.0 | 0.00 | 0.00 | 0.00 | 89 | 1005.9 |
| 20260509062731 | 52 | 165 | 0.0 | 2.0 | 0.00 | 0.00 | 0.00 | 89 | 1006.1 |
| 20260509062620 | 52 | 160 | 0.0 | 2.0 | 0.00 | 0.00 | 0.00 | 89 | 1006.0 |
| 20260509062509 | 52 | 160 | 0.0 | 2.0 | 0.00 | 0.00 | 0.00 | 89 | 1006.1 |
| 20260509062421 | 52 | 160 | 0.0 | 2.0 | 0.00 | 0.00 | 0.00 | 89 | 1006.0 |
| 20260509062332 | 52 | 160 | 0.0 | 3.0 | 0.00 | 0.00 | 0.00 | 89 | 1006.1 |
| 20260509062205 | 52 | 160 | 1.0 | 3.0 | 0.00 | 0.00 | 0.00 | 89 | 1006.1 |
| 20260509062056 | 52 | 160 | 0.0 | 3.0 | 0.00 | 0.00 | 0.00 | 89 | 1006.1 |
| 20260509062006 | 52 | 160 | 0.0 | 3.0 | 0.00 | 0.00 | 0.00 | 89 | 1006.0 |
| 20260509061858 | 52 | 160 | 0.0 | 3.0 | 0.00 | 0.00 | 0.00 | 89 | 1006.1 |
| 20260509061809 | 52 | 160 | 0.0 | 3.0 | 0.00 | 0.00 | 0.00 | 88 | 1006.1 |
| 20260509061700 | 52 | 160 | 1.0 | 3.0 | 0.00 | 0.00 | 0.00 | 88 | 1006.1 |
| 20260509061610 | 52 | 135 | 1.0 | 3.0 | 0.00 | 0.00 | 0.00 | 88 | 1006.1 |
| 20260509061533 | 52 | 135 | 1.0 | 3.0 | 0.00 | 0.00 | 0.00 | 88 | 1006.1 |
| 20260509061422 | 52 | 151 | 0.0 | 3.0 | 0.00 | 0.00 | 0.00 | 88 | 1006.1 |
| 20260509061336 | 52 | 151 | 0.0 | 3.0 | 0.00 | 0.00 | 0.00 | 88 | 1006.1 |
| 20260509061206 | 52 | 151 | 0.0 | 3.0 | 0.00 | 0.00 | 0.00 | 88 | 1006.1 |
| 20260509061118 | 52 | 151 | 1.0 | 3.0 | 0.00 | 0.00 | 0.00 | 88 | 1006.1 |
| 20260509061029 | 52 | 151 | 1.0 | 3.0 | 0.00 | 0.00 | 0.00 | 88 | 1006.0 |
| 20260509060918 | 53 | 151 | 1.0 | 3.0 | 0.00 | 0.00 | 0.00 | 89 | 1006.0 |
| 20260509060808 | 53 | 148 | 2.0 | 3.0 | 0.00 | 0.00 | 0.00 | 89 | 1006.0 |
| 20260509060714 | 53 | 225 | 2.0 | 3.0 | 0.00 | 0.00 | 0.00 | 89 | 1006.1 |
| 20260509060606 | 53 | 256 | 1.0 | 3.0 | 0.00 | 0.00 | 0.00 | 89 | 1006.1 |
| 20260509060457 | 53 | 190 | 1.0 | 3.0 | 0.00 | 0.00 | 0.00 | 89 | 1006.1 |
| 20260509060408 | 53 | 155 | 1.0 | 3.0 | 0.00 | 0.00 | 0.00 | 89 | 1006.1 |
| 20260509060303 | 53 | 194 | 1.0 | 3.0 | 0.00 | 0.00 | 0.00 | 89 | 1006.2 |
| 20260509060211 | 53 | 194 | 1.0 | 3.0 | 0.00 | 0.00 | 0.00 | 89 | 1006.2 |
| 20260509060101 | 53 | 209 | 1.0 | 3.0 | 0.00 | 0.00 | 0.00 | 89 | 1006.2 |
| 20260509060022 | 53 | 167 | 1.0 | 3.0 | 0.00 | 0.00 | 0.00 | 89 | 1006.2 |
| 20260509055912 | 53 | 157 | 1.0 | 3.0 | 0.00 | 0.00 | 0.00 | 89 | 1006.2 |
| 20260509055803 | 53 | 157 | 1.0 | 3.0 | 0.00 | 0.00 | 0.00 | 89 | 1006.2 |
| 20260509055714 | 53 | 157 | 1.0 | 3.0 | 0.00 | 0.00 | 0.00 | 89 | 1006.2 |
| 20260509055605 | 53 | 143 | 1.0 | 3.0 | 0.00 | 0.00 | 0.00 | 89 | 1006.3 |
| 20260509055500 | 53 | 143 | 1.0 | 3.0 | 0.00 | 0.00 | 0.00 | 89 | 1006.3 |
| 20260509055408 | 53 | 143 | 1.0 | 3.0 | 0.00 | 0.00 | 0.00 | 89 | 1006.3 |
| 20260509055257 | 53 | 143 | 1.0 | 3.0 | 0.00 | 0.00 | 0.00 | 89 | 1006.3 |
| 20260509055209 | 52 | 163 | 2.0 | 3.0 | 0.00 | 0.00 | 0.00 | 89 | 1006.3 |
| 20260509055100 | 53 | 192 | 1.0 | 3.0 | 0.00 | 0.00 | 0.00 | 88 | 1006.4 |
| 20260509055011 | 53 | 190 | 0.0 | 3.0 | 0.00 | 0.00 | 0.00 | 88 | 1006.4 |
| 20260509054922 | 53 | 138 | 0.0 | 3.0 | 0.00 | 0.00 | 0.00 | 88 | 1006.4 |
| 20260509054834 | 53 | 138 | 1.0 | 3.0 | 0.00 | 0.00 | 0.00 | 88 | 1006.5 |
| 20260509054703 | 53 | 150 | 1.0 | 3.0 | 0.00 | 0.00 | 0.00 | 88 | 1006.4 |
| 20260509054556 | 53 | 193 | 1.0 | 3.0 | 0.00 | 0.00 | 0.00 | 88 | 1006.4 |
| 20260509054518 | 52 | 145 | 1.0 | 3.0 | 0.00 | 0.00 | 0.00 | 88 | 1006.4 |
| 20260509054406 | 52 | 153 | 1.0 | 3.0 | 0.00 | 0.00 | 0.00 | 88 | 1006.4 |
| 20260509054318 | 52 | 207 | 1.0 | 3.0 | 0.00 | 0.00 | 0.00 | 88 | 1006.4 |
| 20260509054229 | 53 | 163 | 1.0 | 3.0 | 0.00 | 0.00 | 0.00 | 88 | 1006.4 |
| 20260509054119 | 53 | 175 | 1.0 | 3.0 | 0.00 | 0.00 | 0.00 | 88 | 1006.5 |
| 20260509054010 | 53 | 159 | 0.0 | 3.0 | 0.00 | 0.00 | 0.00 | 88 | 1006.5 |
| 20260509053902 | 53 | 159 | 0.0 | 3.0 | 0.00 | 0.00 | 0.00 | 88 | 1006.5 |
| 20260509053812 | 53 | 159 | 1.0 | 3.0 | 0.00 | 0.00 | 0.00 | 88 | 1006.6 |
| 20260509053702 | 53 | 161 | 1.0 | 3.0 | 0.00 | 0.00 | 0.00 | 88 | 1006.5 |
| 20260509053558 | 53 | 137 | 1.0 | 3.0 | 0.00 | 0.00 | 0.00 | 88 | 1006.5 |
| 20260509053510 | 53 | 137 | 1.0 | 3.0 | 0.00 | 0.00 | 0.00 | 88 | 1006.5 |
| 20260509053400 | 53 | 209 | 1.0 | 3.0 | 0.00 | 0.00 | 0.00 | 88 | 1006.5 |
| 20260509053313 | 53 | 169 | 1.0 | 3.0 | 0.00 | 0.00 | 0.00 | 88 | 1006.5 |
| 20260509053203 | 53 | 105 | 0.0 | 2.0 | 0.00 | 0.00 | 0.00 | 88 | 1006.5 |
| 20260509053036 | 53 | 105 | 0.0 | 2.0 | 0.00 | 0.00 | 0.00 | 88 | 1006.6 |
| 20260509052900 | 53 | 169 | 1.0 | 2.0 | 0.00 | 0.00 | 0.00 | 88 | 1006.6 |
| 20260509052810 | 53 | 169 | 1.0 | 2.0 | 0.00 | 0.00 | 0.00 | 88 | 1006.6 |
| 20260509052704 | 53 | 169 | 0.0 | 3.0 | 0.00 | 0.00 | 0.00 | 88 | 1006.6 |
| 20260509052614 | 53 | 172 | 0.0 | 3.0 | 0.00 | 0.00 | 0.00 | 88 | 1006.6 |
| 20260509052507 | 53 | 172 | 0.0 | 3.0 | 0.00 | 0.00 | 0.00 | 88 | 1006.6 |
| 20260509052356 | 53 | 172 | 0.0 | 3.0 | 0.00 | 0.00 | 0.00 | 88 | 1006.6 |
| 20260509052308 | 53 | 190 | 0.0 | 3.0 | 0.00 | 0.00 | 0.00 | 88 | 1006.7 |
| 20260509052220 | 53 | 155 | 0.0 | 3.0 | 0.00 | 0.00 | 0.00 | 88 | 1006.6 |
| 20260509052110 | 53 | 155 | 1.0 | 3.0 | 0.00 | 0.00 | 0.00 | 88 | 1006.6 |
| 20260509052001 | 53 | 155 | 1.0 | 4.0 | 0.00 | 0.00 | 0.00 | 88 | 1006.6 |
| 20260509051911 | 53 | 240 | 1.0 | 4.0 | 0.00 | 0.00 | 0.00 | 88 | 1006.7 |
| 20260509051804 | 53 | 159 | 1.0 | 4.0 | 0.00 | 0.00 | 0.00 | 88 | 1006.6 |
| 20260509051716 | 53 | 188 | 1.0 | 4.0 | 0.00 | 0.00 | 0.00 | 88 | 1006.6 |
| 20260509051627 | 53 | 121 | 1.0 | 4.0 | 0.00 | 0.00 | 0.00 | 88 | 1006.6 |
| 20260509051551 | 53 | 112 | 1.0 | 4.0 | 0.00 | 0.00 | 0.00 | 88 | 1006.6 |
| 20260509051359 | 53 | 255 | 1.0 | 4.0 | 0.00 | 0.00 | 0.00 | 88 | 1006.6 |
| 20260509051311 | 53 | 231 | 1.0 | 4.0 | 0.00 | 0.00 | 0.00 | 88 | 1006.6 |
| 20260509051201 | 53 | 121 | 1.0 | 4.0 | 0.00 | 0.00 | 0.00 | 88 | 1006.6 |
| 20260509051114 | 53 | 241 | 1.0 | 4.0 | 0.00 | 0.00 | 0.00 | 88 | 1006.6 |
| 20260509051005 | 53 | 220 | 1.0 | 4.0 | 0.00 | 0.00 | 0.00 | 88 | 1006.6 |
| 20260509050900 | 53 | 220 | 2.0 | 4.0 | 0.00 | 0.00 | 0.00 | 88 | 1006.6 |
| 20260509050810 | 53 | 227 | 1.0 | 4.0 | 0.00 | 0.00 | 0.00 | 88 | 1006.5 |
| 20260509050722 | 53 | 249 | 1.0 | 4.0 | 0.00 | 0.00 | 0.00 | 87 | 1006.5 |
| 20260509050632 | 53 | 221 | 2.0 | 4.0 | 0.00 | 0.00 | 0.00 | 87 | 1006.5 |
| 20260509050502 | 53 | 211 | 2.0 | 4.0 | 0.00 | 0.00 | 0.00 | 87 | 1006.5 |
| 20260509050411 | 53 | 229 | 1.0 | 4.0 | 0.00 | 0.00 | 0.00 | 87 | 1006.5 |
| 20260509050323 | 53 | 158 | 1.0 | 3.0 | 0.00 | 0.00 | 0.00 | 87 | 1006.5 |
| 20260509050211 | 53 | 127 | 1.0 | 5.0 | 0.00 | 0.00 | 0.00 | 87 | 1006.5 |
| 20260509050113 | 53 | 158 | 0.0 | 5.0 | 0.00 | 0.00 | 0.00 | 88 | 1006.5 |
| 20260509050004 | 53 | 186 | 1.0 | 5.0 | 0.00 | 0.00 | 0.00 | 88 | 1006.5 |
| 20260509045853 | 53 | 210 | 1.0 | 5.0 | 0.00 | 0.00 | 0.00 | 88 | 1006.5 |
| 20260509045746 | 53 | 133 | 1.0 | 5.0 | 0.00 | 0.00 | 0.00 | 88 | 1006.5 |
| 20260509045635 | 53 | 127 | 1.0 | 5.0 | 0.00 | 0.00 | 0.00 | 88 | 1006.5 |
| 20260509045505 | 53 | 160 | 2.0 | 5.0 | 0.00 | 0.00 | 0.00 | 88 | 1006.5 |
| 20260509045414 | 53 | 168 | 1.0 | 5.0 | 0.00 | 0.00 | 0.00 | 88 | 1006.5 |
| 20260509045306 | 53 | 152 | 1.0 | 5.0 | 0.00 | 0.00 | 0.00 | 88 | 1006.5 |
| 20260509045215 | 53 | 156 | 1.0 | 5.0 | 0.00 | 0.00 | 0.00 | 88 | 1006.5 |
| 20260509045125 | 53 | 151 | 1.0 | 5.0 | 0.00 | 0.00 | 0.00 | 88 | 1006.5 |
| 20260509045036 | 53 | 155 | 1.0 | 4.0 | 0.00 | 0.00 | 0.00 | 88 | 1006.5 |
| 20260509044905 | 53 | 155 | 1.0 | 3.0 | 0.00 | 0.00 | 0.00 | 88 | 1006.5 |
| 20260509044801 | 53 | 166 | 1.0 | 3.0 | 0.00 | 0.00 | 0.00 | 88 | 1006.6 |
| 20260509044712 | 53 | 151 | 1.0 | 3.0 | 0.00 | 0.00 | 0.00 | 88 | 1006.6 |
| 20260509044603 | 53 | 202 | 1.0 | 3.0 | 0.00 | 0.00 | 0.00 | 88 | 1006.6 |
| 20260509044524 | 53 | 254 | 0.0 | 2.0 | 0.00 | 0.00 | 0.00 | 87 | 1006.6 |
| 20260509044414 | 53 | 59 | 0.0 | 2.0 | 0.00 | 0.00 | 0.00 | 87 | 1006.6 |
| 20260509044305 | 53 | 43 | 1.0 | 2.0 | 0.00 | 0.00 | 0.00 | 87 | 1006.6 |
| 20260509044156 | 53 | 338 | 1.0 | 2.0 | 0.00 | 0.00 | 0.00 | 87 | 1006.6 |
| 20260509044107 | 53 | 42 | 1.0 | 2.0 | 0.00 | 0.00 | 0.00 | 87 | 1006.7 |
| 20260509043958 | 53 | 92 | 1.0 | 2.0 | 0.00 | 0.00 | 0.00 | 87 | 1006.7 |
| 20260509043912 | 53 | 92 | 1.0 | 2.0 | 0.00 | 0.00 | 0.00 | 87 | 1006.7 |
| 20260509043824 | 53 | 244 | 1.0 | 2.0 | 0.00 | 0.00 | 0.00 | 87 | 1006.7 |
| 20260509043735 | 53 | 225 | 1.0 | 2.0 | 0.00 | 0.00 | 0.00 | 87 | 1006.6 |
| 20260509043604 | 53 | 203 | 0.0 | 2.0 | 0.00 | 0.00 | 0.00 | 87 | 1006.7 |
| 20260509043515 | 53 | 117 | 0.0 | 2.0 | 0.00 | 0.00 | 0.00 | 87 | 1006.7 |
| 20260509043407 | 53 | 211 | 0.0 | 1.0 | 0.00 | 0.00 | 0.00 | 87 | 1006.7 |
| 20260509043259 | 53 | 201 | 0.0 | 1.0 | 0.00 | 0.00 | 0.00 | 87 | 1006.7 |
| 20260509043210 | 53 | 201 | 0.0 | 1.0 | 0.00 | 0.00 | 0.00 | 87 | 1006.9 |
| 20260509043113 | 53 | 170 | 0.0 | 0.0 | 0.00 | 0.00 | 0.00 | 87 | 1006.7 |
| 20260509043018 | 53 | 170 | 0.0 | 0.0 | 0.00 | 0.00 | 0.00 | 87 | 1006.7 |
| 20260509042907 | 53 | 170 | 0.0 | 0.0 | 0.00 | 0.00 | 0.00 | 87 | 1006.7 |
| 20260509042817 | 54 | 170 | 0.0 | 0.0 | 0.00 | 0.00 | 0.00 | 87 | 1006.8 |
| 20260509042727 | 54 | 170 | 0.0 | 1.0 | 0.00 | 0.00 | 0.00 | 87 | 1006.8 |
| 20260509042638 | 54 | 170 | 0.0 | 1.0 | 0.00 | 0.00 | 0.00 | 87 | 1006.7 |
| 20260509042529 | 54 | 170 | 0.0 | 1.0 | 0.00 | 0.00 | 0.00 | 87 | 1006.8 |
| 20260509042400 | 54 | 170 | 0.0 | 1.0 | 0.00 | 0.00 | 0.00 | 87 | 1006.8 |
| 20260509042311 | 54 | 170 | 0.0 | 2.0 | 0.00 | 0.00 | 0.00 | 87 | 1006.9 |
| 20260509042203 | 54 | 170 | 0.0 | 2.0 | 0.00 | 0.00 | 0.00 | 87 | 1006.9 |
| 20260509042114 | 54 | 170 | 0.0 | 2.0 | 0.00 | 0.00 | 0.00 | 87 | 1006.9 |
| 20260509042007 | 54 | 236 | 0.0 | 2.0 | 0.00 | 0.00 | 0.00 | 87 | 1006.8 |
| 20260509041858 | 54 | 134 | 0.0 | 2.0 | 0.00 | 0.00 | 0.00 | 87 | 1006.8 |
| 20260509041811 | 54 | 134 | 0.0 | 2.0 | 0.00 | 0.00 | 0.00 | 87 | 1006.8 |
| 20260509041722 | 54 | 135 | 0.0 | 2.0 | 0.00 | 0.00 | 0.00 | 87 | 1006.8 |
| 20260509041633 | 54 | 134 | 1.0 | 2.0 | 0.00 | 0.00 | 0.00 | 87 | 1006.8 |
| 20260509041535 | 54 | 241 | 1.0 | 2.0 | 0.00 | 0.00 | 0.00 | 87 | 1006.8 |
| 20260509041404 | 54 | 150 | 1.0 | 2.0 | 0.00 | 0.00 | 0.00 | 87 | 1006.8 |
| 20260509041315 | 54 | 216 | 1.0 | 2.0 | 0.00 | 0.00 | 0.00 | 87 | 1006.8 |
| 20260509041224 | 54 | 159 | 0.0 | 3.0 | 0.00 | 0.00 | 0.00 | 87 | 1006.8 |
| 20260509041115 | 54 | 136 | 0.0 | 3.0 | 0.00 | 0.00 | 0.00 | 87 | 1006.7 |
| 20260509041008 | 53 | 140 | 0.0 | 4.0 | 0.00 | 0.00 | 0.00 | 87 | 1006.7 |
| 20260509040858 | 54 | 140 | 0.0 | 4.0 | 0.00 | 0.00 | 0.00 | 87 | 1006.9 |
| 20260509040809 | 53 | 140 | 0.0 | 4.0 | 0.00 | 0.00 | 0.00 | 87 | 1006.9 |
| 20260509040722 | 53 | 140 | 0.0 | 4.0 | 0.00 | 0.00 | 0.00 | 87 | 1006.8 |
| 20260509040631 | 53 | 140 | 0.0 | 4.0 | 0.00 | 0.00 | 0.00 | 87 | 1006.9 |
| 20260509040501 | 53 | 150 | 0.0 | 4.0 | 0.00 | 0.00 | 0.00 | 87 | 1006.9 |
| 20260509040413 | 53 | 150 | 1.0 | 4.0 | 0.00 | 0.00 | 0.00 | 86 | 1006.9 |
| 20260509040304 | 53 | 236 | 1.0 | 4.0 | 0.00 | 0.00 | 0.00 | 86 | 1006.8 |
| 20260509040213 | 53 | 138 | 1.0 | 4.0 | 0.00 | 0.00 | 0.00 | 86 | 1006.9 |
| 20260509040107 | 53 | 186 | 0.0 | 3.0 | 0.00 | 0.00 | 0.00 | 86 | 1006.8 |
| 20260509040029 | 53 | 186 | 0.0 | 3.0 | 0.00 | 0.00 | 0.00 | 86 | 1006.9 |
| 20260509035919 | 53 | 253 | 0.0 | 3.0 | 0.00 | 0.00 | 0.00 | 86 | 1006.9 |
| 20260509035800 | 53 | 253 | 1.0 | 3.0 | 0.00 | 0.00 | 0.00 | 86 | 1006.9 |
| 20260509035712 | 53 | 221 | 1.0 | 3.0 | 0.00 | 0.00 | 0.00 | 86 | 1006.9 |
| 20260509035623 | 53 | 169 | 1.0 | 2.0 | 0.00 | 0.00 | 0.00 | 86 | 1006.9 |
| 20260509035534 | 53 | 158 | 0.0 | 2.0 | 0.00 | 0.00 | 0.00 | 86 | 1006.9 |
| 20260509035424 | 53 | 158 | 0.0 | 2.0 | 0.00 | 0.00 | 0.00 | 86 | 1006.8 |
| 20260509035335 | 53 | 158 | 1.0 | 3.0 | 0.00 | 0.00 | 0.00 | 86 | 1006.9 |
| 20260509035205 | 53 | 158 | 1.0 | 3.0 | 0.00 | 0.00 | 0.00 | 86 | 1006.9 |
| 20260509035058 | 53 | 158 | 0.0 | 3.0 | 0.00 | 0.00 | 0.00 | 86 | 1006.9 |
| 20260509035009 | 53 | 158 | 0.0 | 3.0 | 0.00 | 0.00 | 0.00 | 86 | 1006.9 |
| 20260509034919 | 53 | 158 | 0.0 | 3.0 | 0.00 | 0.00 | 0.00 | 86 | 1007.0 |
| 20260509034830 | 53 | 158 | 0.0 | 3.0 | 0.00 | 0.00 | 0.00 | 85 | 1007.1 |
| 20260509034721 | 53 | 158 | 1.0 | 3.0 | 0.00 | 0.00 | 0.00 | 85 | 1007.0 |
| 20260509034632 | 53 | 158 | 1.0 | 3.0 | 0.00 | 0.00 | 0.00 | 85 | 1007.0 |
| 20260509034555 | 53 | 171 | 1.0 | 3.0 | 0.00 | 0.00 | 0.00 | 85 | 1007.0 |
| 20260509034426 | 53 | 206 | 0.0 | 2.0 | 0.00 | 0.00 | 0.00 | 85 | 1007.0 |
| 20260509034315 | 53 | 206 | 0.0 | 2.0 | 0.00 | 0.00 | 0.00 | 85 | 1007.0 |
| 20260509034206 | 53 | 206 | 0.0 | 2.0 | 0.00 | 0.00 | 0.00 | 85 | 1007.0 |
| 20260509034056 | 52 | 206 | 0.0 | 2.0 | 0.00 | 0.00 | 0.00 | 85 | 1007.1 |
| 20260509034012 | 52 | 206 | 1.0 | 2.0 | 0.00 | 0.00 | 0.00 | 85 | 1007.1 |
| 20260509033923 | 52 | 198 | 0.0 | 2.0 | 0.00 | 0.00 | 0.00 | 85 | 1007.1 |
| 20260509033834 | 52 | 164 | 0.0 | 2.0 | 0.00 | 0.00 | 0.00 | 84 | 1007.1 |
| 20260509033705 | 52 | 164 | 0.0 | 2.0 | 0.00 | 0.00 | 0.00 | 84 | 1007.1 |
| 20260509033616 | 52 | 164 | 0.0 | 2.0 | 0.00 | 0.00 | 0.00 | 84 | 1007.1 |
| 20260509033507 | 52 | 164 | 0.0 | 2.0 | 0.00 | 0.00 | 0.00 | 84 | 1007.1 |
| 20260509033357 | 52 | 164 | 0.0 | 2.0 | 0.00 | 0.00 | 0.00 | 84 | 1007.1 |
| 20260509033309 | 52 | 164 | 0.0 | 2.0 | 0.00 | 0.00 | 0.00 | 84 | 1007.1 |
| 20260509033157 | 52 | 121 | 0.0 | 2.0 | 0.00 | 0.00 | 0.00 | 83 | 1007.1 |
| 20260509033111 | 52 | 121 | 1.0 | 2.0 | 0.00 | 0.00 | 0.00 | 83 | 1007.1 |
| 20260509033034 | 52 | 121 | 1.0 | 2.0 | 0.00 | 0.00 | 0.00 | 83 | 1007.1 |
| 20260509032904 | 52 | 167 | 0.0 | 3.0 | 0.00 | 0.00 | 0.00 | 83 | 1007.1 |
| 20260509032815 | 51 | 162 | 0.0 | 0.0 | 0.00 | 0.00 | 0.00 | 83 | 1007.2 |
| 20260509032706 | 51 | 162 | 0.0 | 0.0 | 0.00 | 0.00 | 0.00 | 82 | 1007.2 |
| 20260509032557 | 51 | 162 | 0.0 | 0.0 | 0.00 | 0.00 | 0.00 | 82 | 1007.2 |
| 20260509032506 | 51 | 162 | 0.0 | 0.0 | 0.00 | 0.00 | 0.00 | 82 | 1007.2 |
| 20260509032359 | 51 | 162 | 0.0 | 0.0 | 0.00 | 0.00 | 0.00 | 82 | 1007.3 |
| 20260509032310 | 51 | 162 | 0.0 | 0.0 | 0.00 | 0.00 | 0.00 | 82 | 1007.2 |
| 20260509032205 | 51 | 162 | 0.0 | 0.0 | 0.00 | 0.00 | 0.00 | 81 | 1007.2 |
| 20260509032115 | 51 | 162 | 0.0 | 0.0 | 0.00 | 0.00 | 0.00 | 81 | 1007.3 |
| 20260509032006 | 51 | 162 | 0.0 | 0.0 | 0.00 | 0.00 | 0.00 | 81 | 1007.3 |
| 20260509031856 | 51 | 162 | 0.0 | 0.0 | 0.00 | 0.00 | 0.00 | 81 | 1007.3 |
| 20260509031808 | 51 | 162 | 0.0 | 0.0 | 0.00 | 0.00 | 0.00 | 81 | 1007.3 |
| 20260509031657 | 51 | 162 | 0.0 | 0.0 | 0.00 | 0.00 | 0.00 | 81 | 1007.3 |
| 20260509031607 | 51 | 162 | 0.0 | 0.0 | 0.00 | 0.00 | 0.00 | 81 | 1007.3 |
| 20260509031527 | 51 | 162 | 0.0 | 0.0 | 0.00 | 0.00 | 0.00 | 81 | 1007.3 |
| 20260509031359 | 51 | 162 | 0.0 | 0.0 | 0.00 | 0.00 | 0.00 | 81 | 1007.3 |
| 20260509031314 | 51 | 162 | 0.0 | 0.0 | 0.00 | 0.00 | 0.00 | 81 | 1007.3 |
| 20260509031205 | 51 | 162 | 0.0 | 0.0 | 0.00 | 0.00 | 0.00 | 80 | 1007.2 |
| 20260509031056 | 51 | 162 | 0.0 | 0.0 | 0.00 | 0.00 | 0.00 | 80 | 1007.2 |
| 20260509031006 | 51 | 162 | 0.0 | 0.0 | 0.00 | 0.00 | 0.00 | 80 | 1007.2 |
| 20260509030856 | 51 | 162 | 0.0 | 0.0 | 0.00 | 0.00 | 0.00 | 80 | 1007.3 |
| 20260509030809 | 51 | 162 | 0.0 | 0.0 | 0.00 | 0.00 | 0.00 | 80 | 1007.3 |
| 20260509030659 | 51 | 162 | 0.0 | 0.0 | 0.00 | 0.00 | 0.00 | 79 | 1007.3 |
| 20260509030610 | 52 | 162 | 0.0 | 0.0 | 0.00 | 0.00 | 0.00 | 79 | 1007.3 |
| 20260509030505 | 52 | 162 | 0.0 | 0.0 | 0.00 | 0.00 | 0.00 | 80 | 1007.3 |
| 20260509030357 | 52 | 162 | 0.0 | 0.0 | 0.00 | 0.00 | 0.00 | 80 | 1007.3 |
| 20260509030309 | 52 | 162 | 0.0 | 0.0 | 0.00 | 0.00 | 0.00 | 80 | 1007.3 |
| 20260509030159 | 52 | 162 | 0.0 | 0.0 | 0.00 | 0.00 | 0.00 | 80 | 1007.3 |
| 20260509030111 | 52 | 162 | 0.0 | 0.0 | 0.00 | 0.00 | 0.00 | 80 | 1007.3 |
| 20260509030034 | 52 | 162 | 0.0 | 0.0 | 0.00 | 0.00 | 0.00 | 80 | 1007.4 |
| 20260509025904 | 52 | 162 | 0.0 | 0.0 | 0.00 | 0.00 | 0.00 | 80 | 1007.4 |
| 20260509025815 | 52 | 162 | 0.0 | 0.0 | 0.00 | 0.00 | 0.00 | 80 | 1007.4 |
| 20260509025706 | 52 | 162 | 0.0 | 0.0 | 0.00 | 0.00 | 0.00 | 80 | 1007.4 |
| 20260509025602 | 52 | 162 | 0.0 | 0.0 | 0.00 | 0.00 | 0.00 | 79 | 1007.4 |
| 20260509025512 | 52 | 162 | 0.0 | 0.0 | 0.00 | 0.00 | 0.00 | 79 | 1007.3 |
| 20260509025423 | 52 | 162 | 0.0 | 0.0 | 0.00 | 0.00 | 0.00 | 79 | 1007.4 |
| 20260509025334 | 52 | 162 | 0.0 | 0.0 | 0.00 | 0.00 | 0.00 | 79 | 1007.3 |
| 20260509025205 | 52 | 162 | 0.0 | 0.0 | 0.00 | 0.00 | 0.00 | 79 | 1007.4 |
| 20260509025055 | 52 | 162 | 0.0 | 0.0 | 0.00 | 0.00 | 0.00 | 79 | 1007.5 |
| 20260509025007 | 52 | 162 | 0.0 | 0.0 | 0.00 | 0.00 | 0.00 | 79 | 1007.3 |
| 20260509024859 | 52 | 162 | 0.0 | 0.0 | 0.00 | 0.00 | 0.00 | 79 | 1007.4 |
| 20260509024810 | 52 | 162 | 0.0 | 0.0 | 0.00 | 0.00 | 0.00 | 79 | 1007.4 |
| 20260509024725 | 52 | 162 | 0.0 | 0.0 | 0.00 | 0.00 | 0.00 | 79 | 1007.4 |
| 20260509024636 | 52 | 162 | 0.0 | 0.0 | 0.00 | 0.00 | 0.00 | 79 | 1007.3 |
| 20260509024536 | 52 | 162 | 0.0 | 0.0 | 0.00 | 0.00 | 0.00 | 79 | 1007.3 |
| 20260509024405 | 53 | 162 | 0.0 | 0.0 | 0.00 | 0.00 | 0.00 | 79 | 1007.3 |
| 20260509024257 | 53 | 162 | 0.0 | 0.0 | 0.00 | 0.00 | 0.00 | 78 | 1007.3 |
| 20260509024207 | 53 | 162 | 0.0 | 0.0 | 0.00 | 0.00 | 0.00 | 78 | 1007.3 |
| 20260509024118 | 53 | 162 | 0.0 | 0.0 | 0.00 | 0.00 | 0.00 | 78 | 1007.3 |
| 20260509024027 | 53 | 162 | 0.0 | 0.0 | 0.00 | 0.00 | 0.00 | 78 | 1007.4 |
| 20260509023856 | 53 | 162 | 0.0 | 0.0 | 0.00 | 0.00 | 0.00 | 77 | 1007.4 |
| 20260509023807 | 53 | 162 | 0.0 | 0.0 | 0.00 | 0.00 | 0.00 | 77 | 1007.4 |
| 20260509023701 | 53 | 162 | 0.0 | 0.0 | 0.00 | 0.00 | 0.00 | 77 | 1007.4 |
| 20260509023612 | 53 | 162 | 0.0 | 0.0 | 0.00 | 0.00 | 0.00 | 77 | 1007.4 |
| 20260509023502 | 53 | 162 | 0.0 | 0.0 | 0.00 | 0.00 | 0.00 | 77 | 1007.5 |
| 20260509023414 | 53 | 162 | 0.0 | 0.0 | 0.00 | 0.00 | 0.00 | 76 | 1007.4 |
| 20260509023306 | 53 | 162 | 0.0 | 0.0 | 0.00 | 0.00 | 0.00 | 76 | 1007.4 |
| 20260509023214 | 53 | 162 | 0.0 | 0.0 | 0.00 | 0.00 | 0.00 | 76 | 1007.4 |
| 20260509023104 | 53 | 162 | 0.0 | 0.0 | 0.00 | 0.00 | 0.00 | 75 | 1007.4 |
| 20260509023026 | 53 | 162 | 0.0 | 0.0 | 0.00 | 0.00 | 0.00 | 75 | 1007.5 |
| 20260509022900 | 54 | 162 | 0.0 | 0.0 | 0.00 | 0.00 | 0.00 | 75 | 1007.5 |
| 20260509022811 | 54 | 162 | 0.0 | 0.0 | 0.00 | 0.00 | 0.00 | 74 | 1007.5 |
| 20260509022702 | 54 | 162 | 0.0 | 0.0 | 0.00 | 0.00 | 0.00 | 74 | 1007.4 |
| 20260509022612 | 54 | 162 | 0.0 | 0.0 | 0.00 | 0.00 | 0.00 | 74 | 1007.5 |
| 20260509022502 | 54 | 162 | 0.0 | 0.0 | 0.00 | 0.00 | 0.00 | 74 | 1007.5 |
| 20260509022414 | 54 | 162 | 0.0 | 0.0 | 0.00 | 0.00 | 0.00 | 74 | 1007.5 |
| 20260509022324 | 54 | 162 | 0.0 | 0.0 | 0.00 | 0.00 | 0.00 | 74 | 1007.5 |
| 20260509022214 | 54 | 162 | 0.0 | 0.0 | 0.00 | 0.00 | 0.00 | 74 | 1007.5 |
| 20260509022104 | 54 | 162 | 0.0 | 0.0 | 0.00 | 0.00 | 0.00 | 74 | 1007.5 |
| 20260509022000 | 54 | 162 | 0.0 | 0.0 | 0.00 | 0.00 | 0.00 | 73 | 1007.6 |
| 20260509021911 | 54 | 162 | 0.0 | 1.0 | 0.00 | 0.00 | 0.00 | 73 | 1007.5 |
| 20260509021802 | 54 | 162 | 0.0 | 2.0 | 0.00 | 0.00 | 0.00 | 72 | 1007.5 |
| 20260509021714 | 54 | 162 | 0.0 | 2.0 | 0.00 | 0.00 | 0.00 | 72 | 1007.6 |
| 20260509021616 | 54 | 162 | 0.0 | 3.0 | 0.00 | 0.00 | 0.00 | 73 | 1007.6 |
| 20260509021517 | 54 | 162 | 0.0 | 4.0 | 0.00 | 0.00 | 0.00 | 73 | 1007.6 |
| 20260509021407 | 54 | 162 | 0.0 | 4.0 | 0.00 | 0.00 | 0.00 | 73 | 1007.7 |
| 20260509021300 | 54 | 162 | 0.0 | 4.0 | 0.00 | 0.00 | 0.00 | 73 | 1007.7 |
| 20260509021210 | 54 | 162 | 0.0 | 4.0 | 0.00 | 0.00 | 0.00 | 73 | 1007.7 |
| 20260509021104 | 54 | 162 | 1.0 | 4.0 | 0.00 | 0.00 | 0.00 | 73 | 1007.7 |
| 20260509021015 | 54 | 162 | 1.0 | 4.0 | 0.00 | 0.00 | 0.00 | 73 | 1007.7 |
| 20260509020927 | 54 | 162 | 2.0 | 4.0 | 0.00 | 0.00 | 0.00 | 73 | 1007.7 |
| 20260509020757 | 54 | 134 | 2.0 | 4.0 | 0.00 | 0.00 | 0.00 | 70 | 1007.7 |
| 20260509020706 | 54 | 134 | 2.0 | 4.0 | 0.00 | 0.00 | 0.00 | 71 | 1007.6 |
| 20260509020558 | 54 | 138 | 2.0 | 4.0 | 0.00 | 0.00 | 0.00 | 71 | 1007.7 |
| 20260509020508 | 54 | 157 | 1.0 | 4.0 | 0.00 | 0.00 | 0.00 | 72 | 1007.7 |
| 20260509020419 | 54 | 329 | 0.0 | 0.0 | 0.00 | 0.00 | 0.00 | 72 | 1007.7 |
| 20260509020312 | 54 | 329 | 0.0 | 0.0 | 0.00 | 0.00 | 0.00 | 72 | 1007.6 |
| 20260509020201 | 54 | 329 | 0.0 | 0.0 | 0.00 | 0.00 | 0.00 | 73 | 1007.7 |
| 20260509020111 | 54 | 329 | 0.0 | 0.0 | 0.00 | 0.00 | 0.00 | 74 | 1007.7 |
| 20260509020036 | 54 | 329 | 0.0 | 0.0 | 0.00 | 0.00 | 0.00 | 74 | 1007.7 |
| 20260509015926 | 54 | 329 | 0.0 | 0.0 | 0.00 | 0.00 | 0.00 | 73 | 1007.7 |
| 20260509015836 | 55 | 329 | 0.0 | 0.0 | 0.00 | 0.00 | 0.00 | 73 | 1007.6 |
| 20260509015726 | 55 | 329 | 0.0 | 0.0 | 0.00 | 0.00 | 0.00 | 73 | 1007.7 |
| 20260509015615 | 55 | 329 | 0.0 | 0.0 | 0.00 | 0.00 | 0.00 | 73 | 1007.6 |
| 20260509015507 | 55 | 329 | 0.0 | 0.0 | 0.00 | 0.00 | 0.00 | 72 | 1007.7 |
| 20260509015419 | 55 | 329 | 0.0 | 0.0 | 0.00 | 0.00 | 0.00 | 72 | 1007.6 |
| 20260509015308 | 55 | 329 | 0.0 | 0.0 | 0.00 | 0.00 | 0.00 | 72 | 1007.5 |
| 20260509015159 | 55 | 329 | 0.0 | 0.0 | 0.00 | 0.00 | 0.00 | 71 | 1007.6 |
| 20260509015111 | 55 | 329 | 0.0 | 0.0 | 0.00 | 0.00 | 0.00 | 71 | 1007.6 |
| 20260509015021 | 55 | 329 | 0.0 | 0.0 | 0.00 | 0.00 | 0.00 | 70 | 1007.6 |
| 20260509014935 | 55 | 329 | 0.0 | 0.0 | 0.00 | 0.00 | 0.00 | 70 | 1007.6 |
| 20260509014846 | 55 | 329 | 0.0 | 0.0 | 0.00 | 0.00 | 0.00 | 70 | 1007.6 |
| 20260509014736 | 55 | 329 | 0.0 | 0.0 | 0.00 | 0.00 | 0.00 | 70 | 1007.6 |
| 20260509014625 | 55 | 329 | 0.0 | 0.0 | 0.00 | 0.00 | 0.00 | 70 | 1007.6 |
| 20260509014527 | 55 | 329 | 0.0 | 0.0 | 0.00 | 0.00 | 0.00 | 71 | 1007.5 |
| 20260509014418 | 56 | 329 | 0.0 | 0.0 | 0.00 | 0.00 | 0.00 | 71 | 1007.5 |
| 20260509014329 | 56 | 329 | 0.0 | 0.0 | 0.00 | 0.00 | 0.00 | 71 | 1007.5 |
| 20260509014240 | 56 | 329 | 0.0 | 0.0 | 0.00 | 0.00 | 0.00 | 70 | 1007.5 |
| 20260509014131 | 56 | 329 | 0.0 | 0.0 | 0.00 | 0.00 | 0.00 | 70 | 1007.6 |
| 20260509014002 | 56 | 329 | 0.0 | 0.0 | 0.00 | 0.00 | 0.00 | 71 | 1007.5 |
| 20260509013912 | 56 | 329 | 0.0 | 0.0 | 0.00 | 0.00 | 0.00 | 71 | 1007.5 |
| 20260509013806 | 56 | 329 | 0.0 | 0.0 | 0.00 | 0.00 | 0.00 | 69 | 1007.6 |
| 20260509013716 | 56 | 329 | 0.0 | 0.0 | 0.00 | 0.00 | 0.00 | 69 | 1007.6 |
| 20260509013627 | 56 | 329 | 0.0 | 0.0 | 0.00 | 0.00 | 0.00 | 68 | 1007.5 |
| 20260509013458 | 56 | 329 | 0.0 | 0.0 | 0.00 | 0.00 | 0.00 | 68 | 1007.5 |
| 20260509013409 | 56 | 329 | 0.0 | 0.0 | 0.00 | 0.00 | 0.00 | 68 | 1007.6 |
| 20260509013322 | 56 | 329 | 0.0 | 0.0 | 0.00 | 0.00 | 0.00 | 68 | 1007.6 |
| 20260509013232 | 56 | 329 | 0.0 | 0.0 | 0.00 | 0.00 | 0.00 | 67 | 1007.6 |
| 20260509013142 | 56 | 329 | 0.0 | 0.0 | 0.00 | 0.00 | 0.00 | 67 | 1007.6 |
| 20260509013105 | 56 | 329 | 0.0 | 0.0 | 0.00 | 0.00 | 0.00 | 67 | 1007.5 |
| 20260509012935 | 56 | 329 | 0.0 | 0.0 | 0.00 | 0.00 | 0.00 | 66 | 1007.5 |
| 20260509012824 | 57 | 329 | 0.0 | 0.0 | 0.00 | 0.00 | 0.00 | 66 | 1007.5 |
| 20260509012715 | 57 | 329 | 0.0 | 0.0 | 0.00 | 0.00 | 0.00 | 66 | 1007.5 |
| 20260509012631 | 57 | 329 | 0.0 | 0.0 | 0.00 | 0.00 | 0.00 | 66 | 1007.4 |
| 20260509012520 | 57 | 329 | 0.0 | 0.0 | 0.00 | 0.00 | 0.00 | 65 | 1007.5 |
| 20260509012409 | 57 | 329 | 0.0 | 0.0 | 0.00 | 0.00 | 0.00 | 65 | 1007.4 |
| 20260509012301 | 57 | 329 | 0.0 | 0.0 | 0.00 | 0.00 | 0.00 | 65 | 1007.4 |
| 20260509012212 | 57 | 329 | 0.0 | 0.0 | 0.00 | 0.00 | 0.00 | 64 | 1007.5 |
| 20260509012124 | 57 | 329 | 0.0 | 0.0 | 0.00 | 0.00 | 0.00 | 64 | 1007.5 |
| 20260509012014 | 57 | 329 | 0.0 | 0.0 | 0.00 | 0.00 | 0.00 | 63 | 1007.5 |
| 20260509011906 | 57 | 329 | 0.0 | 0.0 | 0.00 | 0.00 | 0.00 | 63 | 1007.4 |
| 20260509011756 | 57 | 329 | 0.0 | 0.0 | 0.00 | 0.00 | 0.00 | 63 | 1007.5 |
| 20260509011706 | 58 | 329 | 0.0 | 0.0 | 0.00 | 0.00 | 0.00 | 62 | 1007.5 |
| 20260509011603 | 58 | 329 | 0.0 | 0.0 | 0.00 | 0.00 | 0.00 | 62 | 1007.5 |
| 20260509011524 | 58 | 329 | 0.0 | 0.0 | 0.00 | 0.00 | 0.00 | 62 | 1007.5 |
| 20260509011415 | 58 | 329 | 0.0 | 0.0 | 0.00 | 0.00 | 0.00 | 60 | 1007.4 |
| 20260509011326 | 58 | 329 | 0.0 | 0.0 | 0.00 | 0.00 | 0.00 | 60 | 1007.4 |
| 20260509011238 | 58 | 329 | 0.0 | 0.0 | 0.00 | 0.00 | 0.00 | 58 | 1007.5 |
| 20260509011128 | 58 | 329 | 0.0 | 0.0 | 0.00 | 0.00 | 0.00 | 57 | 1007.5 |
| 20260509010956 | 58 | 329 | 0.0 | 0.0 | 0.00 | 0.00 | 0.00 | 57 | 1007.5 |
| 20260509010907 | 58 | 329 | 0.0 | 0.0 | 0.00 | 0.00 | 0.00 | 58 | 1007.4 |
| 20260509010818 | 58 | 329 | 0.0 | 0.0 | 0.00 | 0.00 | 0.00 | 58 | 1007.5 |
| 20260509010709 | 58 | 329 | 0.0 | 0.0 | 0.00 | 0.00 | 0.00 | 58 | 1007.4 |
| 20260509010620 | 58 | 329 | 0.0 | 0.0 | 0.00 | 0.00 | 0.00 | 59 | 1007.4 |
| 20260509010511 | 59 | 329 | 0.0 | 0.0 | 0.00 | 0.00 | 0.00 | 57 | 1007.4 |
| 20260509010405 | 59 | 329 | 0.0 | 0.0 | 0.00 | 0.00 | 0.00 | 57 | 1007.3 |
| 20260509010317 | 59 | 329 | 0.0 | 0.0 | 0.00 | 0.00 | 0.00 | 57 | 1007.3 |
| 20260509010225 | 59 | 329 | 0.0 | 0.0 | 0.00 | 0.00 | 0.00 | 57 | 1007.4 |
| 20260509010116 | 59 | 329 | 0.0 | 0.0 | 0.00 | 0.00 | 0.00 | 57 | 1007.3 |
| 20260509010038 | 59 | 329 | 0.0 | 0.0 | 0.00 | 0.00 | 0.00 | 57 | 1007.3 |
| 20260509005930 | 59 | 329 | 0.0 | 0.0 | 0.00 | 0.00 | 0.00 | 56 | 1007.4 |
| 20260509005758 | 59 | 329 | 0.0 | 0.0 | 0.00 | 0.00 | 0.00 | 57 | 1007.3 |
| 20260509005709 | 59 | 329 | 0.0 | 0.0 | 0.00 | 0.00 | 0.00 | 57 | 1007.4 |
| 20260509005601 | 59 | 329 | 0.0 | 0.0 | 0.00 | 0.00 | 0.00 | 56 | 1007.2 |
| 20260509005511 | 59 | 329 | 0.0 | 0.0 | 0.00 | 0.00 | 0.00 | 55 | 1007.4 |
| 20260509005407 | 60 | 329 | 0.0 | 0.0 | 0.00 | 0.00 | 0.00 | 54 | 1007.4 |
| 20260509005259 | 60 | 329 | 0.0 | 0.0 | 0.00 | 0.00 | 0.00 | 55 | 1007.3 |
| 20260509005211 | 60 | 329 | 0.0 | 0.0 | 0.00 | 0.00 | 0.00 | 54 | 1007.3 |
| 20260509005122 | 60 | 329 | 0.0 | 0.0 | 0.00 | 0.00 | 0.00 | 54 | 1007.3 |
| 20260509005012 | 60 | 329 | 0.0 | 0.0 | 0.00 | 0.00 | 0.00 | 54 | 1007.3 |
| 20260509004902 | 60 | 329 | 0.0 | 0.0 | 0.00 | 0.00 | 0.00 | 54 | 1007.3 |
| 20260509004814 | 60 | 329 | 0.0 | 0.0 | 0.00 | 0.00 | 0.00 | 54 | 1007.3 |
| 20260509004704 | 60 | 329 | 0.0 | 0.0 | 0.00 | 0.00 | 0.00 | 54 | 1007.3 |
| 20260509004600 | 60 | 329 | 0.0 | 0.0 | 0.00 | 0.00 | 0.00 | 53 | 1007.4 |
| 20260509004524 | 60 | 329 | 0.0 | 0.0 | 0.00 | 0.00 | 0.00 | 53 | 1007.2 |
| 20260509004414 | 60 | 329 | 0.0 | 0.0 | 0.00 | 0.00 | 0.00 | 52 | 1007.3 |
| 20260509004304 | 60 | 329 | 0.0 | 0.0 | 0.00 | 0.00 | 0.00 | 52 | 1007.3 |
| 20260509004156 | 60 | 329 | 0.0 | 0.0 | 0.00 | 0.00 | 0.00 | 52 | 1007.3 |
| 20260509004107 | 61 | 329 | 0.0 | 0.0 | 0.00 | 0.00 | 0.00 | 51 | 1007.3 |
| 20260509004018 | 61 | 329 | 0.0 | 0.0 | 0.00 | 0.00 | 0.00 | 51 | 1007.2 |
| 20260509003928 | 61 | 329 | 0.0 | 0.0 | 0.00 | 0.00 | 0.00 | 52 | 1007.2 |
| 20260509003839 | 61 | 329 | 0.0 | 0.0 | 0.00 | 0.00 | 0.00 | 51 | 1007.3 |
| 20260509003729 | 61 | 329 | 0.0 | 0.0 | 0.00 | 0.00 | 0.00 | 51 | 1007.2 |
| 20260509003604 | 61 | 329 | 0.0 | 0.0 | 0.00 | 0.00 | 0.00 | 51 | 1007.2 |
| 20260509003516 | 61 | 329 | 0.0 | 0.0 | 0.00 | 0.00 | 0.00 | 50 | 1007.2 |
| 20260509003405 | 61 | 329 | 0.0 | 2.0 | 0.00 | 0.00 | 0.00 | 50 | 1007.2 |
| 20260509003319 | 61 | 329 | 0.0 | 2.0 | 0.00 | 0.00 | 0.00 | 50 | 1007.2 |
| 20260509003207 | 61 | 329 | 0.0 | 2.0 | 0.00 | 0.00 | 0.00 | 51 | 1007.1 |
| 20260509003118 | 61 | 329 | 0.0 | 2.0 | 0.00 | 0.00 | 0.00 | 50 | 1007.3 |
| 20260509003019 | 61 | 329 | 0.0 | 2.0 | 0.00 | 0.00 | 0.00 | 50 | 1007.3 |
| 20260509002910 | 61 | 329 | 0.0 | 2.0 | 0.00 | 0.00 | 0.00 | 50 | 1007.2 |
| 20260509002822 | 61 | 329 | 0.0 | 2.0 | 0.00 | 0.00 | 0.00 | 50 | 1007.3 |
| 20260509002713 | 61 | 329 | 0.0 | 3.0 | 0.00 | 0.00 | 0.00 | 50 | 1007.2 |
| 20260509002604 | 61 | 329 | 1.0 | 3.0 | 0.00 | 0.00 | 0.00 | 50 | 1007.3 |
| 20260509002458 | 61 | 329 | 0.0 | 3.0 | 0.00 | 0.00 | 0.00 | 50 | 1007.1 |
| 20260509002409 | 61 | 329 | 0.0 | 3.0 | 0.00 | 0.00 | 0.00 | 50 | 1007.2 |
| 20260509002320 | 61 | 329 | 0.0 | 3.0 | 0.00 | 0.00 | 0.00 | 50 | 1007.1 |
| 20260509002233 | 62 | 329 | 1.0 | 3.0 | 0.00 | 0.00 | 0.00 | 50 | 1007.3 |
| 20260509002143 | 62 | 329 | 1.0 | 3.0 | 0.00 | 0.00 | 0.00 | 50 | 1007.2 |
| 20260509002032 | 62 | 329 | 1.0 | 4.0 | 0.00 | 0.00 | 0.00 | 50 | 1007.1 |
| 20260509001903 | 62 | 329 | 1.0 | 4.0 | 0.00 | 0.00 | 0.00 | 50 | 1007.0 |
| 20260509001814 | 62 | 329 | 1.0 | 4.0 | 0.00 | 0.00 | 0.00 | 50 | 1007.1 |
| 20260509001705 | 62 | 329 | 1.0 | 4.0 | 0.00 | 0.00 | 0.00 | 50 | 1007.1 |
| 20260509001600 | 62 | 329 | 1.0 | 4.0 | 0.00 | 0.00 | 0.00 | 50 | 1007.0 |
| 20260509001522 | 62 | 329 | 1.0 | 4.0 | 0.00 | 0.00 | 0.00 | 50 | 1007.1 |
| 20260509001413 | 62 | 329 | 1.0 | 4.0 | 0.00 | 0.00 | 0.00 | 50 | 1007.1 |
| 20260509001323 | 62 | 329 | 2.0 | 4.0 | 0.00 | 0.00 | 0.00 | 50 | 1007.1 |
| 20260509001234 | 62 | 329 | 2.0 | 4.0 | 0.00 | 0.00 | 0.00 | 50 | 1007.1 |
| 20260509001103 | 62 | 328 | 2.0 | 3.0 | 0.00 | 0.00 | 0.00 | 50 | 1007.1 |
| 20260509001016 | 62 | 328 | 2.0 | 3.0 | 0.00 | 0.00 | 0.00 | 50 | 1007.1 |
| 20260509000926 | 63 | 328 | 2.0 | 3.0 | 0.00 | 0.00 | 0.00 | 49 | 1007.1 |
| 20260509000814 | 63 | 328 | 2.0 | 3.0 | 0.00 | 0.00 | 0.00 | 50 | 1007.1 |
| 20260509000725 | 63 | 328 | 2.0 | 3.0 | 0.00 | 0.00 | 0.00 | 49 | 1007.1 |
| 20260509000615 | 63 | 328 | 2.0 | 3.0 | 0.00 | 0.00 | 0.00 | 49 | 1007.1 |
| 20260509000509 | 63 | 328 | 2.0 | 3.0 | 0.00 | 0.00 | 0.00 | 48 | 1007.2 |
| 20260509000403 | 63 | 328 | 1.0 | 3.0 | 0.00 | 0.00 | 0.00 | 48 | 1007.1 |
| 20260509000313 | 63 | 328 | 1.0 | 2.0 | 0.00 | 0.00 | 0.00 | 49 | 1007.1 |
| 20260509000204 | 63 | 328 | 1.0 | 2.0 | 0.00 | 0.00 | 0.00 | 50 | 1007.2 |
| 20260509000113 | 63 | 328 | 1.0 | 2.0 | 0.00 | 0.00 | 0.00 | 49 | 1007.1 |
| 20260509000036 | 63 | 328 | 1.0 | 3.0 | 0.00 | 0.00 | 0.00 | 48 | 1007.2 |
| 20260508235907 | 63 | 328 | 1.0 | 3.0 | 0.00 | 0.00 | 0.00 | 49 | 1007.2 |
| 20260508235759 | 63 | 328 | 0.0 | 3.0 | 0.00 | 0.00 | 0.00 | 50 | 1007.1 |
| 20260508235709 | 63 | 328 | 0.0 | 3.0 | 0.00 | 0.00 | 0.00 | 49 | 1007.1 |
| 20260508235623 | 63 | 328 | 0.0 | 3.0 | 0.00 | 0.00 | 0.00 | 49 | 1007.2 |
| 20260508235534 | 63 | 328 | 1.0 | 3.0 | 0.00 | 0.00 | 0.00 | 50 | 1007.2 |
| 20260508235403 | 63 | 328 | 1.0 | 3.0 | 0.00 | 0.00 | 0.00 | 49 | 1007.1 |
| 20260508235313 | 63 | 328 | 1.0 | 3.0 | 0.00 | 0.00 | 0.00 | 49 | 1007.2 |
| 20260508235223 | 63 | 328 | 1.0 | 3.0 | 0.00 | 0.00 | 0.00 | 49 | 1007.1 |
| 20260508235133 | 63 | 328 | 1.0 | 3.0 | 0.00 | 0.00 | 0.00 | 49 | 1007.1 |
| 20260508235044 | 63 | 328 | 2.0 | 3.0 | 0.00 | 0.00 | 0.00 | 49 | 1007.1 |
| 20260508234933 | 63 | 328 | 1.0 | 2.0 | 0.00 | 0.00 | 0.00 | 48 | 1007.0 |
| 20260508234803 | 63 | 328 | 1.0 | 3.0 | 0.00 | 0.00 | 0.00 | 48 | 1007.1 |
| 20260508234714 | 63 | 328 | 1.0 | 3.0 | 0.00 | 0.00 | 0.00 | 47 | 1007.2 |
| 20260508234607 | 63 | 328 | 1.0 | 3.0 | 0.00 | 0.00 | 0.00 | 47 | 1007.1 |
| 20260508234530 | 63 | 328 | 1.0 | 3.0 | 0.00 | 0.00 | 0.00 | 48 | 1007.1 |
| 20260508234400 | 63 | 328 | 1.0 | 3.0 | 0.00 | 0.00 | 0.00 | 47 | 1007.2 |
| 20260508234311 | 63 | 328 | 1.0 | 3.0 | 0.00 | 0.00 | 0.00 | 48 | 1007.2 |
| 20260508234222 | 63 | 328 | 2.0 | 3.0 | 0.00 | 0.00 | 0.00 | 48 | 1007.2 |
| 20260508234134 | 63 | 328 | 2.0 | 3.0 | 0.00 | 0.00 | 0.00 | 47 | 1007.3 |
| 20260508234004 | 63 | 328 | 2.0 | 3.0 | 0.00 | 0.00 | 0.00 | 48 | 1007.3 |
| 20260508233915 | 63 | 328 | 2.0 | 3.0 | 0.00 | 0.00 | 0.00 | 48 | 1007.2 |
| 20260508233826 | 63 | 328 | 1.0 | 3.0 | 0.00 | 0.00 | 0.00 | 48 | 1007.1 |
| 20260508233737 | 63 | 328 | 1.0 | 4.0 | 0.00 | 0.00 | 0.00 | 48 | 1007.1 |
| 20260508233648 | 63 | 328 | 1.0 | 4.0 | 0.00 | 0.00 | 0.00 | 48 | 1007.1 |
| 20260508233602 | 63 | 328 | 2.0 | 4.0 | 0.00 | 0.00 | 0.00 | 48 | 1007.2 |
| 20260508233453 | 63 | 328 | 2.0 | 4.0 | 0.00 | 0.00 | 0.00 | 47 | 1007.1 |
| 20260508233345 | 63 | 328 | 2.0 | 4.0 | 0.00 | 0.00 | 0.00 | 47 | 1007.1 |
| 20260508233254 | 64 | 328 | 2.0 | 4.0 | 0.00 | 0.00 | 0.00 | 47 | 1007.2 |
| 20260508233143 | 64 | 328 | 2.0 | 4.0 | 0.00 | 0.00 | 0.00 | 47 | 1007.2 |
| 20260508233106 | 64 | 328 | 3.0 | 4.0 | 0.00 | 0.00 | 0.00 | 46 | 1007.3 |
| 20260508232935 | 64 | 328 | 3.0 | 4.0 | 0.00 | 0.00 | 0.00 | 45 | 1007.3 |
| 20260508232826 | 64 | 315 | 2.0 | 4.0 | 0.00 | 0.00 | 0.00 | 45 | 1007.3 |
| 20260508232657 | 64 | 301 | 2.0 | 4.0 | 0.00 | 0.00 | 0.00 | 45 | 1007.4 |
| 20260508232606 | 64 | 301 | 3.0 | 4.0 | 0.00 | 0.00 | 0.00 | 45 | 1007.3 |
| 20260508232457 | 64 | 309 | 2.0 | 5.0 | 0.00 | 0.00 | 0.00 | 46 | 1007.2 |
| 20260508232411 | 64 | 291 | 1.0 | 5.0 | 0.00 | 0.00 | 0.00 | 47 | 1007.2 |
| 20260508232306 | 64 | 335 | 2.0 | 5.0 | 0.00 | 0.00 | 0.00 | 46 | 1007.2 |
| 20260508232215 | 64 | 335 | 3.0 | 5.0 | 0.00 | 0.00 | 0.00 | 46 | 1007.2 |
| 20260508232108 | 64 | 302 | 2.0 | 5.0 | 0.00 | 0.00 | 0.00 | 46 | 1007.2 |
| 20260508232017 | 64 | 329 | 1.0 | 5.0 | 0.00 | 0.00 | 0.00 | 46 | 1007.2 |
| 20260508231928 | 64 | 350 | 2.0 | 5.0 | 0.00 | 0.00 | 0.00 | 46 | 1007.3 |
| 20260508231758 | 64 | 350 | 4.0 | 5.0 | 0.00 | 0.00 | 0.00 | 45 | 1007.3 |
| 20260508231709 | 64 | 9 | 3.0 | 5.0 | 0.00 | 0.00 | 0.00 | 46 | 1007.3 |
| 20260508231619 | 64 | 324 | 2.0 | 5.0 | 0.00 | 0.00 | 0.00 | 46 | 1007.3 |
| 20260508231541 | 64 | 311 | 1.0 | 5.0 | 0.00 | 0.00 | 0.00 | 46 | 1007.3 |
| 20260508231436 | 64 | 278 | 2.0 | 5.0 | 0.00 | 0.00 | 0.00 | 45 | 1007.3 |
| 20260508231305 | 64 | 278 | 2.0 | 5.0 | 0.00 | 0.00 | 0.00 | 45 | 1007.3 |
| 20260508231215 | 64 | 294 | 2.0 | 5.0 | 0.00 | 0.00 | 0.00 | 45 | 1007.3 |
| 20260508231106 | 64 | 301 | 2.0 | 5.0 | 0.00 | 0.00 | 0.00 | 46 | 1007.3 |
| 20260508231018 | 64 | 319 | 3.0 | 5.0 | 0.00 | 0.00 | 0.00 | 45 | 1007.3 |
| 20260508230928 | 64 | 300 | 3.0 | 5.0 | 0.00 | 0.00 | 0.00 | 46 | 1007.3 |
| 20260508230817 | 64 | 324 | 3.0 | 7.0 | 0.00 | 0.00 | 0.00 | 47 | 1007.3 |
| 20260508230727 | 64 | 309 | 3.0 | 7.0 | 0.00 | 0.00 | 0.00 | 46 | 1007.3 |
| 20260508230638 | 64 | 272 | 2.0 | 7.0 | 0.00 | 0.00 | 0.00 | 46 | 1007.2 |
| 20260508230529 | 64 | 291 | 3.0 | 7.0 | 0.00 | 0.00 | 0.00 | 46 | 1007.2 |
| 20260508230417 | 64 | 303 | 3.0 | 7.0 | 0.00 | 0.00 | 0.00 | 46 | 1007.3 |
| 20260508230312 | 64 | 328 | 3.0 | 8.0 | 0.00 | 0.00 | 0.00 | 46 | 1007.2 |
| 20260508230201 | 64 | 316 | 4.0 | 8.0 | 0.00 | 0.00 | 0.00 | 45 | 1007.3 |
| 20260508230112 | 64 | 315 | 4.0 | 8.0 | 0.00 | 0.00 | 0.00 | 45 | 1007.3 |
| 20260508230035 | 64 | 326 | 4.0 | 8.0 | 0.00 | 0.00 | 0.00 | 46 | 1007.3 |
| 20260508225925 | 64 | 306 | 4.0 | 8.0 | 0.00 | 0.00 | 0.00 | 45 | 1007.3 |
| 20260508225814 | 64 | 315 | 5.0 | 8.0 | 0.00 | 0.00 | 0.00 | 44 | 1007.3 |
| 20260508225704 | 64 | 296 | 5.0 | 8.0 | 0.00 | 0.00 | 0.00 | 43 | 1007.3 |
| 20260508225615 | 64 | 299 | 5.0 | 8.0 | 0.00 | 0.00 | 0.00 | 44 | 1007.2 |
| 20260508225507 | 64 | 275 | 4.0 | 8.0 | 0.00 | 0.00 | 0.00 | 45 | 1007.2 |
| 20260508225402 | 64 | 301 | 4.0 | 6.0 | 0.00 | 0.00 | 0.00 | 44 | 1007.3 |
| 20260508225312 | 64 | 346 | 5.0 | 6.0 | 0.00 | 0.00 | 0.00 | 44 | 1007.3 |
| 20260508225204 | 64 | 300 | 4.0 | 6.0 | 0.00 | 0.00 | 0.00 | 44 | 1007.3 |
| 20260508225116 | 64 | 306 | 4.0 | 7.0 | 0.00 | 0.00 | 0.00 | 44 | 1007.3 |
| 20260508225007 | 64 | 299 | 3.0 | 8.0 | 0.00 | 0.00 | 0.00 | 45 | 1007.3 |
| 20260508224918 | 64 | 319 | 3.0 | 8.0 | 0.00 | 0.00 | 0.00 | 45 | 1007.3 |
| 20260508224828 | 64 | 314 | 2.0 | 9.0 | 0.00 | 0.00 | 0.00 | 45 | 1007.3 |
| 20260508224717 | 64 | 293 | 3.0 | 9.0 | 0.00 | 0.00 | 0.00 | 44 | 1007.3 |
| 20260508224627 | 64 | 275 | 4.0 | 9.0 | 0.00 | 0.00 | 0.00 | 43 | 1007.3 |
| 20260508224549 | 65 | 294 | 4.0 | 9.0 | 0.00 | 0.00 | 0.00 | 43 | 1007.3 |
| 20260508224440 | 65 | 298 | 3.0 | 9.0 | 0.00 | 0.00 | 0.00 | 46 | 1007.3 |
| 20260508224333 | 65 | 269 | 4.0 | 9.0 | 0.00 | 0.00 | 0.00 | 44 | 1007.3 |
| 20260508224203 | 65 | 298 | 5.0 | 9.0 | 0.00 | 0.00 | 0.00 | 44 | 1007.2 |
| 20260508224113 | 65 | 293 | 5.0 | 9.0 | 0.00 | 0.00 | 0.00 | 44 | 1007.3 |
| 20260508224005 | 65 | 292 | 6.0 | 10.0 | 0.00 | 0.00 | 0.00 | 43 | 1007.3 |
| 20260508223856 | 65 | 288 | 5.0 | 12.0 | 0.00 | 0.00 | 0.00 | 44 | 1007.3 |
| 20260508223807 | 65 | 286 | 4.0 | 12.0 | 0.00 | 0.00 | 0.00 | 44 | 1007.3 |
| 20260508223658 | 65 | 288 | 3.0 | 12.0 | 0.00 | 0.00 | 0.00 | 45 | 1007.4 |
| 20260508223609 | 65 | 269 | 3.0 | 12.0 | 0.00 | 0.00 | 0.00 | 44 | 1007.4 |
| 20260508223504 | 65 | 277 | 4.0 | 12.0 | 0.00 | 0.00 | 0.00 | 46 | 1007.4 |
| 20260508223415 | 65 | 309 | 4.0 | 12.0 | 0.00 | 0.00 | 0.00 | 45 | 1007.3 |
| 20260508223307 | 65 | 297 | 6.0 | 12.0 | 0.00 | 0.00 | 0.00 | 44 | 1007.4 |
| 20260508223215 | 65 | 271 | 8.0 | 12.0 | 0.00 | 0.00 | 0.00 | 44 | 1007.3 |
| 20260508223116 | 66 | 296 | 7.0 | 12.0 | 0.00 | 0.00 | 0.00 | 44 | 1007.3 |
| 20260508223017 | 66 | 285 | 2.0 | 10.0 | 0.00 | 0.00 | 0.00 | 50 | 1007.4 |
| 20260508222907 | 66 | 169 | 1.0 | 4.0 | 0.00 | 0.00 | 0.00 | 48 | 1007.4 |
| 20260508222818 | 66 | 163 | 1.0 | 4.0 | 0.00 | 0.00 | 0.00 | 48 | 1007.4 |
| 20260508222729 | 66 | 195 | 2.0 | 3.0 | 0.00 | 0.00 | 0.00 | 48 | 1007.3 |
| 20260508222619 | 66 | 130 | 1.0 | 3.0 | 0.00 | 0.00 | 0.00 | 49 | 1007.4 |
| 20260508222530 | 66 | 169 | 1.0 | 3.0 | 0.00 | 0.00 | 0.00 | 50 | 1007.4 |
| 20260508222445 | 66 | 198 | 0.0 | 3.0 | 0.00 | 0.00 | 0.00 | 55 | 1007.4 |
| 20260508222356 | 66 | 200 | 1.0 | 3.0 | 0.00 | 0.00 | 0.00 | 54 | 1007.4 |
| 20260508222247 | 66 | 178 | 1.0 | 3.0 | 0.00 | 0.00 | 0.00 | 54 | 1007.4 |
| 20260508222136 | 65 | 210 | 1.0 | 3.0 | 0.00 | 0.00 | 0.00 | 54 | 1007.3 |
| 20260508222005 | 65 | 186 | 1.0 | 3.0 | 0.00 | 0.00 | 0.00 | 55 | 1007.3 |
| 20260508221916 | 65 | 189 | 0.0 | 2.0 | 0.00 | 0.00 | 0.00 | 54 | 1007.3 |
| 20260508221806 | 66 | 189 | 1.0 | 3.0 | 0.00 | 0.00 | 0.00 | 56 | 1007.4 |
| 20260508221656 | 66 | 170 | 1.0 | 4.0 | 0.00 | 0.00 | 0.00 | 54 | 1007.3 |
| 20260508221608 | 66 | 178 | 0.0 | 5.0 | 0.00 | 0.00 | 0.00 | 54 | 1007.3 |
| 20260508221530 | 66 | 178 | 0.0 | 5.0 | 0.00 | 0.00 | 0.00 | 54 | 1007.4 |
| 20260508221404 | 66 | 178 | 0.0 | 5.0 | 0.00 | 0.00 | 0.00 | 55 | 1007.4 |
| 20260508221315 | 66 | 178 | 1.0 | 5.0 | 0.00 | 0.00 | 0.00 | 56 | 1007.4 |
| 20260508221225 | 66 | 180 | 1.0 | 5.0 | 0.00 | 0.00 | 0.00 | 55 | 1007.5 |
| 20260508221135 | 66 | 194 | 1.0 | 5.0 | 0.00 | 0.00 | 0.00 | 57 | 1007.5 |
| 20260508221004 | 66 | 236 | 2.0 | 5.0 | 0.00 | 0.00 | 0.00 | 56 | 1007.5 |
| 20260508220913 | 66 | 236 | 3.0 | 5.0 | 0.00 | 0.00 | 0.00 | 56 | 1007.5 |
| 20260508220805 | 66 | 234 | 1.0 | 5.0 | 0.00 | 0.00 | 0.00 | 56 | 1007.4 |
| 20260508220656 | 66 | 231 | 0.0 | 5.0 | 0.00 | 0.00 | 0.00 | 55 | 1007.5 |
| 20260508220607 | 66 | 156 | 0.0 | 5.0 | 0.00 | 0.00 | 0.00 | 55 | 1007.5 |
| 20260508220502 | 66 | 179 | 1.0 | 5.0 | 0.00 | 0.00 | 0.00 | 55 | 1007.4 |
| 20260508220412 | 66 | 154 | 2.0 | 5.0 | 0.00 | 0.00 | 0.00 | 55 | 1007.5 |
| 20260508220303 | 66 | 271 | 3.0 | 5.0 | 0.00 | 0.00 | 0.00 | 53 | 1007.5 |
| 20260508220213 | 66 | 283 | 2.0 | 5.0 | 0.00 | 0.00 | 0.00 | 53 | 1007.5 |
| 20260508220103 | 66 | 276 | 1.0 | 5.0 | 0.00 | 0.00 | 0.00 | 52 | 1007.5 |
| 20260508220025 | 66 | 276 | 2.0 | 5.0 | 0.00 | 0.00 | 0.00 | 51 | 1007.5 |
| 20260508215914 | 66 | 247 | 2.0 | 5.0 | 0.00 | 0.00 | 0.00 | 51 | 1007.5 |
| 20260508215804 | 66 | 236 | 2.0 | 5.0 | 0.00 | 0.00 | 0.00 | 52 | 1007.6 |
| 20260508215714 | 66 | 263 | 1.0 | 5.0 | 0.00 | 0.00 | 0.00 | 53 | 1007.4 |
| 20260508215609 | 66 | 263 | 1.0 | 5.0 | 0.00 | 0.00 | 0.00 | 52 | 1007.5 |
| 20260508215459 | 66 | 263 | 2.0 | 5.0 | 0.00 | 0.00 | 0.00 | 54 | 1007.5 |
| 20260508215411 | 66 | 278 | 2.0 | 5.0 | 0.00 | 0.00 | 0.00 | 53 | 1007.5 |
| 20260508215321 | 66 | 258 | 3.0 | 5.0 | 0.00 | 0.00 | 0.00 | 53 | 1007.5 |
| 20260508215211 | 66 | 216 | 2.0 | 5.0 | 0.00 | 0.00 | 0.00 | 53 | 1007.5 |
| 20260508215101 | 66 | 254 | 2.0 | 8.0 | 0.00 | 0.00 | 0.00 | 53 | 1007.5 |
| 20260508215013 | 65 | 254 | 3.0 | 8.0 | 0.00 | 0.00 | 0.00 | 54 | 1007.4 |
| 20260508214924 | 65 | 265 | 2.0 | 8.0 | 0.00 | 0.00 | 0.00 | 52 | 1007.5 |
| 20260508214815 | 65 | 240 | 2.0 | 8.0 | 0.00 | 0.00 | 0.00 | 55 | 1007.4 |
| 20260508214706 | 65 | 232 | 1.0 | 8.0 | 0.00 | 0.00 | 0.00 | 55 | 1007.4 |
| 20260508214601 | 65 | 187 | 1.0 | 8.0 | 0.00 | 0.00 | 0.00 | 56 | 1007.5 |
| 20260508214523 | 65 | 245 | 2.0 | 8.0 | 0.00 | 0.00 | 0.00 | 56 | 1007.5 |
| 20260508214413 | 65 | 245 | 4.0 | 8.0 | 0.00 | 0.00 | 0.00 | 56 | 1007.5 |
| 20260508214303 | 65 | 234 | 3.0 | 8.0 | 0.00 | 0.00 | 0.00 | 58 | 1007.4 |
| 20260508214213 | 65 | 248 | 2.0 | 5.0 | 0.00 | 0.00 | 0.00 | 57 | 1007.5 |
| 20260508214124 | 65 | 242 | 3.0 | 5.0 | 0.00 | 0.00 | 0.00 | 55 | 1007.5 |
| 20260508214012 | 65 | 251 | 3.0 | 5.0 | 0.00 | 0.00 | 0.00 | 54 | 1007.4 |
| 20260508213903 | 65 | 225 | 2.0 | 5.0 | 0.00 | 0.00 | 0.00 | 55 | 1007.4 |
| 20260508213812 | 65 | 281 | 2.0 | 5.0 | 0.00 | 0.00 | 0.00 | 56 | 1007.5 |
| 20260508213707 | 65 | 252 | 2.0 | 5.0 | 0.00 | 0.00 | 0.00 | 57 | 1007.5 |
| 20260508213618 | 64 | 214 | 2.0 | 4.0 | 0.00 | 0.00 | 0.00 | 58 | 1007.6 |
| 20260508213529 | 64 | 251 | 2.0 | 4.0 | 0.00 | 0.00 | 0.00 | 59 | 1007.5 |
| 20260508213440 | 64 | 257 | 2.0 | 4.0 | 0.00 | 0.00 | 0.00 | 58 | 1007.5 |
| 20260508213333 | 64 | 227 | 2.0 | 4.0 | 0.00 | 0.00 | 0.00 | 57 | 1007.5 |
| 20260508213221 | 64 | 216 | 2.0 | 4.0 | 0.00 | 0.00 | 0.00 | 57 | 1007.5 |
| 20260508213131 | 64 | 186 | 2.0 | 4.0 | 0.00 | 0.00 | 0.00 | 57 | 1007.5 |
| 20260508213033 | 64 | 234 | 2.0 | 4.0 | 0.00 | 0.00 | 0.00 | 56 | 1007.5 |
| 20260508212902 | 64 | 236 | 2.0 | 3.0 | 0.00 | 0.00 | 0.00 | 57 | 1007.5 |
| 20260508212814 | 64 | 236 | 2.0 | 3.0 | 0.00 | 0.00 | 0.00 | 56 | 1007.4 |
| 20260508212726 | 64 | 202 | 1.0 | 3.0 | 0.00 | 0.00 | 0.00 | 56 | 1007.4 |
| 20260508212617 | 64 | 202 | 2.0 | 5.0 | 0.00 | 0.00 | 0.00 | 55 | 1007.5 |
| 20260508212510 | 64 | 163 | 2.0 | 5.0 | 0.00 | 0.00 | 0.00 | 57 | 1007.5 |
| 20260508212359 | 64 | 223 | 0.0 | 5.0 | 0.00 | 0.00 | 0.00 | 56 | 1007.4 |
| 20260508212311 | 64 | 169 | 0.0 | 5.0 | 0.00 | 0.00 | 0.00 | 55 | 1007.5 |
| 20260508212222 | 64 | 235 | 0.0 | 5.0 | 0.00 | 0.00 | 0.00 | 54 | 1007.5 |
| 20260508212133 | 64 | 235 | 0.0 | 5.0 | 0.00 | 0.00 | 0.00 | 56 | 1007.5 |
| 20260508212023 | 64 | 235 | 1.0 | 5.0 | 0.00 | 0.00 | 0.00 | 54 | 1007.5 |
| 20260508211933 | 64 | 235 | 2.0 | 5.0 | 0.00 | 0.00 | 0.00 | 54 | 1007.5 |
| 20260508211803 | 64 | 242 | 2.0 | 5.0 | 0.00 | 0.00 | 0.00 | 55 | 1007.6 |
| 20260508211714 | 64 | 185 | 2.0 | 5.0 | 0.00 | 0.00 | 0.00 | 55 | 1007.6 |
| 20260508211615 | 64 | 211 | 3.0 | 5.0 | 0.00 | 0.00 | 0.00 | 54 | 1007.6 |
| 20260508211519 | 64 | 237 | 2.0 | 5.0 | 0.00 | 0.00 | 0.00 | 53 | 1007.5 |
| 20260508211408 | 64 | 239 | 2.0 | 5.0 | 0.00 | 0.00 | 0.00 | 52 | 1007.6 |
| 20260508211320 | 64 | 230 | 3.0 | 5.0 | 0.00 | 0.00 | 0.00 | 51 | 1007.6 |
| 20260508211210 | 64 | 213 | 3.0 | 5.0 | 0.00 | 0.00 | 0.00 | 50 | 1007.6 |
| 20260508211122 | 64 | 234 | 3.0 | 5.0 | 0.00 | 0.00 | 0.00 | 51 | 1007.6 |
| 20260508211033 | 64 | 252 | 2.0 | 5.0 | 0.00 | 0.00 | 0.00 | 51 | 1007.6 |
| 20260508210903 | 64 | 227 | 2.0 | 5.0 | 0.00 | 0.00 | 0.00 | 49 | 1007.7 |
| 20260508210814 | 64 | 228 | 2.0 | 5.0 | 0.00 | 0.00 | 0.00 | 49 | 1007.6 |
| 20260508210725 | 64 | 229 | 2.0 | 5.0 | 0.00 | 0.00 | 0.00 | 51 | 1007.6 |
| 20260508210637 | 64 | 267 | 3.0 | 5.0 | 0.00 | 0.00 | 0.00 | 49 | 1007.6 |
| 20260508210505 | 64 | 232 | 2.0 | 6.0 | 0.00 | 0.00 | 0.00 | 48 | 1007.7 |
| 20260508210420 | 64 | 154 | 1.0 | 5.0 | 0.00 | 0.00 | 0.00 | 43 | 1007.6 |
| 20260508210312 | 64 | 158 | 0.0 | 2.0 | 0.00 | 0.00 | 0.00 | 44 | 1007.7 |
| 20260508210221 | 64 | 195 | 1.0 | 3.0 | 0.00 | 0.00 | 0.00 | 45 | 1007.7 |
| 20260508210132 | 64 | 195 | 1.0 | 4.0 | 0.00 | 0.00 | 0.00 | 44 | 1007.7 |
| 20260508210033 | 64 | 195 | 1.0 | 5.0 | 0.00 | 0.00 | 0.00 | 45 | 1007.7 |
| 20260508205904 | 64 | 195 | 0.0 | 5.0 | 0.00 | 0.00 | 0.00 | 43 | 1007.7 |
| 20260508205814 | 64 | 181 | 0.0 | 5.0 | 0.00 | 0.00 | 0.00 | 41 | 1007.7 |
| 20260508205705 | 64 | 223 | 1.0 | 7.0 | 0.00 | 0.00 | 0.00 | 41 | 1007.8 |
| 20260508205616 | 64 | 223 | 1.0 | 8.0 | 0.00 | 0.00 | 0.00 | 42 | 1007.7 |
| 20260508205527 | 64 | 192 | 2.0 | 10.0 | 0.00 | 0.00 | 0.00 | 41 | 1007.7 |
| 20260508205437 | 65 | 236 | 2.0 | 10.0 | 0.00 | 0.00 | 0.00 | 39 | 1007.9 |
| 20260508205331 | 65 | 242 | 2.0 | 10.0 | 0.00 | 0.00 | 0.00 | 40 | 1007.9 |
| 20260508205220 | 65 | 337 | 2.0 | 10.0 | 0.00 | 0.00 | 0.00 | 40 | 1007.8 |
| 20260508205130 | 65 | 348 | 2.0 | 10.0 | 0.00 | 0.00 | 0.00 | 38 | 1007.8 |
| 20260508205019 | 65 | 318 | 3.0 | 10.0 | 0.00 | 0.00 | 0.00 | 42 | 1007.8 |
| 20260508204930 | 65 | 296 | 5.0 | 10.0 | 0.00 | 0.00 | 0.00 | 40 | 1007.8 |
| 20260508204759 | 65 | 249 | 6.0 | 10.0 | 0.00 | 0.00 | 0.00 | 38 | 1007.8 |
| 20260508204708 | 65 | 281 | 6.0 | 10.0 | 0.00 | 0.00 | 0.00 | 38 | 1007.8 |
| 20260508204558 | 65 | 281 | 4.0 | 9.0 | 0.00 | 0.00 | 0.00 | 42 | 1007.8 |
| 20260508204521 | 65 | 298 | 3.0 | 9.0 | 0.00 | 0.00 | 0.00 | 41 | 1007.8 |
| 20260508204410 | 65 | 253 | 2.0 | 9.0 | 0.00 | 0.00 | 0.00 | 43 | 1007.9 |
| 20260508204304 | 65 | 283 | 2.0 | 9.0 | 0.00 | 0.00 | 0.00 | 43 | 1007.8 |
| 20260508204216 | 65 | 261 | 3.0 | 9.0 | 0.00 | 0.00 | 0.00 | 41 | 1007.9 |
| 20260508204105 | 65 | 255 | 4.0 | 9.0 | 0.00 | 0.00 | 0.00 | 41 | 1007.9 |
| 20260508204015 | 65 | 269 | 5.0 | 9.0 | 0.00 | 0.00 | 0.00 | 41 | 1007.9 |
| 20260508203906 | 65 | 296 | 5.0 | 10.0 | 0.00 | 0.00 | 0.00 | 38 | 1008.0 |
| 20260508203817 | 65 | 290 | 4.0 | 10.0 | 0.00 | 0.00 | 0.00 | 39 | 1007.9 |
| 20260508203728 | 65 | 322 | 3.0 | 10.0 | 0.00 | 0.00 | 0.00 | 36 | 1007.9 |
| 20260508203556 | 65 | 301 | 3.0 | 10.0 | 0.00 | 0.00 | 0.00 | 41 | 1008.0 |
| 20260508203508 | 65 | 276 | 4.0 | 10.0 | 0.00 | 0.00 | 0.00 | 41 | 1008.0 |
| 20260508203402 | 65 | 297 | 4.0 | 10.0 | 0.00 | 0.00 | 0.00 | 40 | 1008.0 |
| 20260508203315 | 65 | 215 | 4.0 | 10.0 | 0.00 | 0.00 | 0.00 | 37 | 1008.0 |
| 20260508203204 | 65 | 242 | 4.0 | 10.0 | 0.00 | 0.00 | 0.00 | 39 | 1007.9 |
| 20260508203113 | 65 | 255 | 4.0 | 10.0 | 0.00 | 0.00 | 0.00 | 40 | 1008.0 |
| 20260508203034 | 65 | 284 | 5.0 | 9.0 | 0.00 | 0.00 | 0.00 | 43 | 1008.0 |
| 20260508202923 | 65 | 288 | 4.0 | 9.0 | 0.00 | 0.00 | 0.00 | 42 | 1008.0 |
| 20260508202834 | 65 | 254 | 2.0 | 9.0 | 0.00 | 0.00 | 0.00 | 47 | 1008.0 |
| 20260508202722 | 65 | 315 | 3.0 | 9.0 | 0.00 | 0.00 | 0.00 | 44 | 1008.0 |
| 20260508202612 | 65 | 324 | 5.0 | 9.0 | 0.00 | 0.00 | 0.00 | 44 | 1008.0 |
| 20260508202502 | 65 | 255 | 5.0 | 9.0 | 0.00 | 0.00 | 0.00 | 44 | 1008.0 |
| 20260508202413 | 65 | 300 | 5.0 | 9.0 | 0.00 | 0.00 | 0.00 | 45 | 1008.1 |
| 20260508202329 | 64 | 250 | 4.0 | 9.0 | 0.00 | 0.00 | 0.00 | 44 | 1008.1 |
| 20260508202239 | 64 | 251 | 2.0 | 6.0 | 0.00 | 0.00 | 0.00 | 53 | 1008.0 |
| 20260508202130 | 64 | 252 | 2.0 | 4.0 | 0.00 | 0.00 | 0.00 | 51 | 1008.0 |
| 20260508202040 | 64 | 158 | 2.0 | 4.0 | 0.00 | 0.00 | 0.00 | 53 | 1008.1 |
| 20260508201930 | 64 | 154 | 1.0 | 4.0 | 0.00 | 0.00 | 0.00 | 51 | 1008.0 |
| 20260508201820 | 64 | 153 | 1.0 | 4.0 | 0.00 | 0.00 | 0.00 | 52 | 1008.1 |
| 20260508201730 | 64 | 208 | 1.0 | 4.0 | 0.00 | 0.00 | 0.00 | 54 | 1008.1 |
| 20260508201600 | 64 | 300 | 1.0 | 5.0 | 0.00 | 0.00 | 0.00 | 53 | 1008.1 |
| 20260508201521 | 64 | 178 | 1.0 | 5.0 | 0.00 | 0.00 | 0.00 | 51 | 1008.2 |
| 20260508201412 | 64 | 276 | 2.0 | 8.0 | 0.00 | 0.00 | 0.00 | 51 | 1008.1 |
| 20260508201302 | 63 | 300 | 2.0 | 8.0 | 0.00 | 0.00 | 0.00 | 51 | 1008.2 |
| 20260508201156 | 63 | 236 | 1.0 | 8.0 | 0.00 | 0.00 | 0.00 | 52 | 1008.2 |
| 20260508201108 | 63 | 327 | 1.0 | 8.0 | 0.00 | 0.00 | 0.00 | 52 | 1008.2 |
| 20260508200958 | 63 | 327 | 2.0 | 8.0 | 0.00 | 0.00 | 0.00 | 53 | 1008.2 |
| 20260508200906 | 63 | 327 | 3.0 | 8.0 | 0.00 | 0.00 | 0.00 | 50 | 1008.2 |
| 20260508200757 | 64 | 329 | 4.0 | 8.0 | 0.00 | 0.00 | 0.00 | 51 | 1008.3 |
| 20260508200708 | 64 | 321 | 4.0 | 8.0 | 0.00 | 0.00 | 0.00 | 50 | 1008.3 |
| 20260508200559 | 64 | 320 | 3.0 | 7.0 | 0.00 | 0.00 | 0.00 | 49 | 1008.3 |
| 20260508200509 | 64 | 297 | 3.0 | 8.0 | 0.00 | 0.00 | 0.00 | 51 | 1008.3 |
| 20260508200405 | 64 | 311 | 3.0 | 9.0 | 0.00 | 0.00 | 0.00 | 51 | 1008.3 |
| 20260508200259 | 64 | 284 | 4.0 | 9.0 | 0.00 | 0.00 | 0.00 | 51 | 1008.4 |
| 20260508200209 | 64 | 316 | 3.0 | 9.0 | 0.00 | 0.00 | 0.00 | 52 | 1008.3 |
| 20260508200119 | 64 | 271 | 2.0 | 9.0 | 0.00 | 0.00 | 0.00 | 52 | 1008.4 |
| 20260508200017 | 64 | 265 | 3.0 | 9.0 | 0.00 | 0.00 | 0.00 | 52 | 1008.3 |
| 20260508195908 | 64 | 229 | 4.0 | 9.0 | 0.00 | 0.00 | 0.00 | 52 | 1008.3 |
| 20260508195758 | 64 | 230 | 5.0 | 9.0 | 0.00 | 0.00 | 0.00 | 52 | 1008.4 |
| 20260508195710 | 64 | 266 | 6.0 | 9.0 | 0.00 | 0.00 | 0.00 | 49 | 1008.5 |
| 20260508195601 | 64 | 265 | 4.0 | 8.0 | 0.00 | 0.00 | 0.00 | 50 | 1008.4 |
| 20260508195512 | 64 | 299 | 3.0 | 7.0 | 0.00 | 0.00 | 0.00 | 54 | 1008.4 |
| 20260508195405 | 64 | 267 | 3.0 | 7.0 | 0.00 | 0.00 | 0.00 | 50 | 1008.5 |
| 20260508195258 | 64 | 285 | 4.0 | 7.0 | 0.00 | 0.00 | 0.00 | 51 | 1008.5 |
| 20260508195209 | 64 | 252 | 3.0 | 6.0 | 0.00 | 0.00 | 0.00 | 54 | 1008.4 |
| 20260508195100 | 64 | 263 | 3.0 | 6.0 | 0.00 | 0.00 | 0.00 | 53 | 1008.5 |
| 20260508195011 | 64 | 278 | 3.0 | 7.0 | 0.00 | 0.00 | 0.00 | 51 | 1008.5 |
| 20260508194903 | 64 | 256 | 1.0 | 7.0 | 0.00 | 0.00 | 0.00 | 51 | 1008.5 |
| 20260508194814 | 64 | 309 | 1.0 | 7.0 | 0.00 | 0.00 | 0.00 | 51 | 1008.5 |
| 20260508194705 | 64 | 252 | 2.0 | 7.0 | 0.00 | 0.00 | 0.00 | 51 | 1008.6 |
| 20260508194601 | 63 | 252 | 2.0 | 8.0 | 0.00 | 0.00 | 0.00 | 51 | 1008.5 |
| 20260508194522 | 63 | 252 | 2.0 | 8.0 | 0.00 | 0.00 | 0.00 | 54 | 1008.6 |
| 20260508194413 | 63 | 232 | 3.0 | 9.0 | 0.00 | 0.00 | 0.00 | 50 | 1008.6 |
| 20260508194303 | 63 | 261 | 5.0 | 9.0 | 0.00 | 0.00 | 0.00 | 48 | 1008.5 |
| 20260508194214 | 63 | 294 | 4.0 | 9.0 | 0.00 | 0.00 | 0.00 | 48 | 1008.6 |
| 20260508194106 | 64 | 273 | 3.0 | 9.0 | 0.00 | 0.00 | 0.00 | 50 | 1008.6 |
| 20260508193956 | 64 | 300 | 3.0 | 9.0 | 0.00 | 0.00 | 0.00 | 49 | 1008.6 |
| 20260508193907 | 64 | 272 | 4.0 | 9.0 | 0.00 | 0.00 | 0.00 | 49 | 1008.6 |
| 20260508193801 | 64 | 277 | 5.0 | 9.0 | 0.00 | 0.00 | 0.00 | 48 | 1008.7 |
| 20260508193712 | 64 | 269 | 5.0 | 9.0 | 0.00 | 0.00 | 0.00 | 49 | 1008.7 |
| 20260508193602 | 64 | 231 | 3.0 | 9.0 | 0.00 | 0.00 | 0.00 | 49 | 1008.7 |
| 20260508193512 | 64 | 232 | 3.0 | 8.0 | 0.00 | 0.00 | 0.00 | 48 | 1008.7 |
| 20260508193404 | 64 | 254 | 4.0 | 8.0 | 0.00 | 0.00 | 0.00 | 48 | 1008.7 |
| 20260508193318 | 64 | 278 | 3.0 | 6.0 | 0.00 | 0.00 | 0.00 | 47 | 1008.7 |
| 20260508193206 | 64 | 254 | 2.0 | 5.0 | 0.00 | 0.00 | 0.00 | 46 | 1008.7 |
| 20260508193057 | 64 | 269 | 2.0 | 5.0 | 0.00 | 0.00 | 0.00 | 48 | 1008.7 |
| 20260508193019 | 64 | 186 | 2.0 | 5.0 | 0.00 | 0.00 | 0.00 | 48 | 1008.7 |
| 20260508192913 | 64 | 263 | 1.0 | 5.0 | 0.00 | 0.00 | 0.00 | 48 | 1008.7 |
| 20260508192805 | 64 | 155 | 0.0 | 5.0 | 0.00 | 0.00 | 0.00 | 47 | 1008.7 |
| 20260508192657 | 64 | 254 | 0.0 | 5.0 | 0.00 | 0.00 | 0.00 | 46 | 1008.7 |
| 20260508192607 | 64 | 46 | 1.0 | 5.0 | 0.00 | 0.00 | 0.00 | 45 | 1008.6 |
| 20260508192518 | 64 | 31 | 3.0 | 5.0 | 0.00 | 0.00 | 0.00 | 47 | 1008.6 |
| 20260508192406 | 64 | 302 | 3.0 | 5.0 | 0.00 | 0.00 | 0.00 | 48 | 1008.7 |
| 20260508192257 | 64 | 326 | 2.0 | 5.0 | 0.00 | 0.00 | 0.00 | 47 | 1008.7 |
| 20260508192208 | 64 | 328 | 2.0 | 5.0 | 0.00 | 0.00 | 0.00 | 46 | 1008.7 |
| 20260508192118 | 64 | 303 | 2.0 | 5.0 | 0.00 | 0.00 | 0.00 | 45 | 1008.8 |
| 20260508192030 | 65 | 279 | 3.0 | 5.0 | 0.00 | 0.00 | 0.00 | 45 | 1008.7 |
| 20260508191904 | 65 | 255 | 2.0 | 7.0 | 0.00 | 0.00 | 0.00 | 46 | 1008.7 |
| 20260508191815 | 65 | 241 | 1.0 | 7.0 | 0.00 | 0.00 | 0.00 | 46 | 1008.8 |
| 20260508191726 | 65 | 149 | 0.0 | 7.0 | 0.00 | 0.00 | 0.00 | 46 | 1008.8 |
| 20260508191615 | 64 | 76 | 1.0 | 7.0 | 0.00 | 0.00 | 0.00 | 46 | 1008.7 |
| 20260508191537 | 64 | 76 | 1.0 | 7.0 | 0.00 | 0.00 | 0.00 | 46 | 1008.8 |
| 20260508191426 | 64 | 207 | 2.0 | 7.0 | 0.00 | 0.00 | 0.00 | 47 | 1008.9 |
| 20260508191338 | 64 | 288 | 2.0 | 7.0 | 0.00 | 0.00 | 0.00 | 46 | 1008.8 |
| 20260508191227 | 64 | 242 | 3.0 | 12.0 | 0.00 | 0.00 | 0.00 | 50 | 1008.9 |
| 20260508191116 | 64 | 257 | 3.0 | 12.0 | 0.00 | 0.00 | 0.00 | 51 | 1008.8 |
| 20260508191007 | 64 | 244 | 4.0 | 12.0 | 0.00 | 0.00 | 0.00 | 50 | 1009.0 |
| 20260508190901 | 64 | 250 | 3.0 | 12.0 | 0.00 | 0.00 | 0.00 | 50 | 1009.0 |
| 20260508190814 | 64 | 288 | 3.0 | 12.0 | 0.00 | 0.00 | 0.00 | 50 | 1009.0 |
| 20260508190723 | 64 | 153 | 3.0 | 12.0 | 0.00 | 0.00 | 0.00 | 47 | 1008.9 |
| 20260508190634 | 64 | 322 | 3.0 | 12.0 | 0.00 | 0.00 | 0.00 | 49 | 1009.0 |
| 20260508190503 | 64 | 182 | 6.0 | 12.0 | 0.00 | 0.00 | 0.00 | 48 | 1009.0 |
| 20260508190414 | 64 | 228 | 7.0 | 12.0 | 0.00 | 0.00 | 0.00 | 49 | 1009.0 |
| 20260508190307 | 64 | 137 | 4.0 | 12.0 | 0.00 | 0.00 | 0.00 | 46 | 1009.0 |
| 20260508190216 | 64 | 135 | 2.0 | 9.0 | 0.00 | 0.00 | 0.00 | 48 | 1009.0 |
| 20260508190107 | 64 | 242 | 3.0 | 9.0 | 0.00 | 0.00 | 0.00 | 47 | 1009.1 |
| 20260508190030 | 64 | 255 | 5.0 | 9.0 | 0.00 | 0.00 | 0.00 | 47 | 1009.1 |
| 20260508185924 | 64 | 288 | 4.0 | 9.0 | 0.00 | 0.00 | 0.00 | 51 | 1009.2 |
| 20260508185836 | 64 | 234 | 3.0 | 6.0 | 0.00 | 0.00 | 0.00 | 48 | 1009.2 |
| 20260508185706 | 64 | 121 | 3.0 | 6.0 | 0.00 | 0.00 | 0.00 | 48 | 1009.2 |
| 20260508185616 | 64 | 135 | 2.0 | 6.0 | 0.00 | 0.00 | 0.00 | 47 | 1009.2 |
| 20260508185507 | 64 | 153 | 2.0 | 6.0 | 0.00 | 0.00 | 0.00 | 48 | 1009.3 |
| 20260508185357 | 64 | 172 | 1.0 | 6.0 | 0.00 | 0.00 | 0.00 | 51 | 1009.4 |
| 20260508185307 | 64 | 196 | 1.0 | 6.0 | 0.00 | 0.00 | 0.00 | 49 | 1009.2 |
| 20260508185218 | 64 | 207 | 2.0 | 8.0 | 0.00 | 0.00 | 0.00 | 50 | 1009.4 |
| 20260508185108 | 63 | 246 | 3.0 | 8.0 | 0.00 | 0.00 | 0.00 | 49 | 1009.4 |
| 20260508185018 | 63 | 212 | 3.0 | 8.0 | 0.00 | 0.00 | 0.00 | 52 | 1009.4 |
| 20260508184913 | 63 | 227 | 4.0 | 8.0 | 0.00 | 0.00 | 0.00 | 52 | 1009.4 |
| 20260508184824 | 63 | 249 | 4.0 | 8.0 | 0.00 | 0.00 | 0.00 | 51 | 1009.3 |
| 20260508184736 | 63 | 260 | 4.0 | 8.0 | 0.00 | 0.00 | 0.00 | 53 | 1009.4 |
| 20260508184605 | 63 | 291 | 3.0 | 8.0 | 0.00 | 0.00 | 0.00 | 51 | 1009.4 |
| 20260508184526 | 63 | 241 | 3.0 | 8.0 | 0.00 | 0.00 | 0.00 | 52 | 1009.4 |
| 20260508184416 | 63 | 290 | 5.0 | 8.0 | 0.00 | 0.00 | 0.00 | 49 | 1009.4 |
| 20260508184328 | 63 | 268 | 5.0 | 8.0 | 0.00 | 0.00 | 0.00 | 49 | 1009.4 |
| 20260508184238 | 63 | 309 | 3.0 | 8.0 | 0.00 | 0.00 | 0.00 | 50 | 1009.4 |
| 20260508184127 | 63 | 147 | 3.0 | 8.0 | 0.00 | 0.00 | 0.00 | 47 | 1009.2 |
| 20260508184038 | 63 | 173 | 5.0 | 8.0 | 0.00 | 0.00 | 0.00 | 47 | 1009.4 |
| 20260508183928 | 63 | 140 | 4.0 | 8.0 | 0.00 | 0.00 | 0.00 | 45 | 1009.4 |
| 20260508183803 | 63 | 146 | 2.0 | 8.0 | 0.00 | 0.00 | 0.00 | 47 | 1009.4 |
| 20260508183712 | 63 | 264 | 2.0 | 8.0 | 0.00 | 0.00 | 0.00 | 45 | 1009.4 |
| 20260508183602 | 63 | 153 | 3.0 | 8.0 | 0.00 | 0.00 | 0.00 | 46 | 1009.4 |
| 20260508183514 | 63 | 161 | 4.0 | 8.0 | 0.00 | 0.00 | 0.00 | 47 | 1009.5 |
| 20260508183404 | 63 | 130 | 4.0 | 8.0 | 0.00 | 0.00 | 0.00 | 44 | 1009.5 |
| 20260508183318 | 63 | 143 | 3.0 | 8.0 | 0.00 | 0.00 | 0.00 | 46 | 1009.5 |
| 20260508183227 | 63 | 183 | 3.0 | 7.0 | 0.00 | 0.00 | 0.00 | 46 | 1009.5 |
| 20260508183115 | 63 | 175 | 3.0 | 7.0 | 0.00 | 0.00 | 0.00 | 46 | 1009.5 |
| 20260508183036 | 63 | 193 | 2.0 | 7.0 | 0.00 | 0.00 | 0.00 | 46 | 1009.7 |
| 20260508182905 | 63 | 138 | 1.0 | 7.0 | 0.00 | 0.00 | 0.00 | 44 | 1009.6 |
| 20260508182801 | 63 | 173 | 2.0 | 7.0 | 0.00 | 0.00 | 0.00 | 45 | 1009.6 |
| 20260508182713 | 63 | 148 | 2.0 | 7.0 | 0.00 | 0.00 | 0.00 | 45 | 1009.7 |
| 20260508182603 | 63 | 190 | 2.0 | 6.0 | 0.00 | 0.00 | 0.00 | 45 | 1009.7 |
| 20260508182515 | 63 | 180 | 2.0 | 6.0 | 0.00 | 0.00 | 0.00 | 48 | 1009.7 |
| 20260508182427 | 63 | 145 | 2.0 | 6.0 | 0.00 | 0.00 | 0.00 | 44 | 1009.7 |
| 20260508182256 | 63 | 145 | 3.0 | 6.0 | 0.00 | 0.00 | 0.00 | 44 | 1009.7 |
| 20260508182206 | 63 | 152 | 2.0 | 6.0 | 0.00 | 0.00 | 0.00 | 45 | 1009.7 |
| 20260508182057 | 63 | 168 | 1.0 | 6.0 | 0.00 | 0.00 | 0.00 | 47 | 1009.7 |
| 20260508182008 | 63 | 105 | 1.0 | 6.0 | 0.00 | 0.00 | 0.00 | 47 | 1009.7 |
| 20260508181902 | 63 | 213 | 3.0 | 6.0 | 0.00 | 0.00 | 0.00 | 46 | 1009.7 |
| 20260508181814 | 63 | 226 | 3.0 | 6.0 | 0.00 | 0.00 | 0.00 | 45 | 1009.7 |
| 20260508181705 | 63 | 222 | 2.0 | 6.0 | 0.00 | 0.00 | 0.00 | 47 | 1009.6 |
| 20260508181557 | 63 | 209 | 2.0 | 6.0 | 0.00 | 0.00 | 0.00 | 44 | 1009.6 |
| 20260508181518 | 63 | 190 | 2.0 | 6.0 | 0.00 | 0.00 | 0.00 | 44 | 1009.6 |
| 20260508181410 | 63 | 158 | 3.0 | 8.0 | 0.00 | 0.00 | 0.00 | 43 | 1009.7 |
| 20260508181320 | 63 | 195 | 4.0 | 8.0 | 0.00 | 0.00 | 0.00 | 43 | 1009.7 |
| 20260508181209 | 63 | 276 | 2.0 | 8.0 | 0.00 | 0.00 | 0.00 | 45 | 1009.7 |
| 20260508181100 | 63 | 235 | 2.0 | 8.0 | 0.00 | 0.00 | 0.00 | 44 | 1009.7 |
| 20260508181014 | 63 | 235 | 3.0 | 8.0 | 0.00 | 0.00 | 0.00 | 43 | 1009.8 |
| 20260508180925 | 63 | 251 | 3.0 | 8.0 | 0.00 | 0.00 | 0.00 | 45 | 1009.8 |
| 20260508180836 | 63 | 153 | 3.0 | 8.0 | 0.00 | 0.00 | 0.00 | 45 | 1009.8 |
| 20260508180706 | 63 | 126 | 3.0 | 8.0 | 0.00 | 0.00 | 0.00 | 45 | 1009.8 |
| 20260508180616 | 63 | 150 | 4.0 | 8.0 | 0.00 | 0.00 | 0.00 | 47 | 1009.8 |
| 20260508180527 | 63 | 201 | 2.0 | 6.0 | 0.00 | 0.00 | 0.00 | 45 | 1009.8 |
| 20260508180358 | 63 | 113 | 2.0 | 6.0 | 0.00 | 0.00 | 0.00 | 46 | 1009.8 |
| 20260508180310 | 63 | 164 | 1.0 | 6.0 | 0.00 | 0.00 | 0.00 | 45 | 1009.9 |
| 20260508180158 | 63 | 184 | 1.0 | 11.0 | 0.00 | 0.00 | 0.00 | 48 | 1009.8 |
| 20260508180109 | 63 | 211 | 1.0 | 11.0 | 0.00 | 0.00 | 0.00 | 48 | 1009.9 |
| 20260508180034 | 63 | 235 | 2.0 | 11.0 | 0.00 | 0.00 | 0.00 | 48 | 1009.9 |
| 20260508175924 | 63 | 176 | 3.0 | 11.0 | 0.00 | 0.00 | 0.00 | 49 | 1009.9 |
| 20260508175834 | 63 | 247 | 4.0 | 11.0 | 0.00 | 0.00 | 0.00 | 48 | 1010.0 |
| 20260508175703 | 63 | 249 | 4.0 | 11.0 | 0.00 | 0.00 | 0.00 | 44 | 1009.9 |
| 20260508175613 | 63 | 240 | 4.0 | 11.0 | 0.00 | 0.00 | 0.00 | 43 | 1009.9 |
| 20260508175505 | 63 | 222 | 5.0 | 11.0 | 0.00 | 0.00 | 0.00 | 43 | 1009.9 |
| 20260508175417 | 63 | 229 | 4.0 | 11.0 | 0.00 | 0.00 | 0.00 | 44 | 1010.0 |
| 20260508175327 | 63 | 245 | 3.0 | 7.0 | 0.00 | 0.00 | 0.00 | 44 | 1009.9 |
| 20260508175157 | 63 | 157 | 4.0 | 7.0 | 0.00 | 0.00 | 0.00 | 45 | 1010.0 |
| 20260508175107 | 63 | 202 | 3.0 | 8.0 | 0.00 | 0.00 | 0.00 | 47 | 1010.0 |
| 20260508175003 | 63 | 142 | 2.0 | 5.0 | 0.00 | 0.00 | 0.00 | 44 | 1010.1 |
| 20260508174914 | 63 | 162 | 1.0 | 5.0 | 0.00 | 0.00 | 0.00 | 45 | 1010.0 |
| 20260508174805 | 63 | 164 | 1.0 | 5.0 | 0.00 | 0.00 | 0.00 | 48 | 1010.1 |
| 20260508174716 | 63 | 215 | 0.0 | 5.0 | 0.00 | 0.00 | 0.00 | 45 | 1010.1 |
| 20260508174607 | 63 | 257 | 0.0 | 5.0 | 0.00 | 0.00 | 0.00 | 44 | 1010.1 |
| 20260508174528 | 63 | 257 | 1.0 | 5.0 | 0.00 | 0.00 | 0.00 | 44 | 1010.1 |
| 20260508174359 | 63 | 257 | 2.0 | 5.0 | 0.00 | 0.00 | 0.00 | 45 | 1010.0 |
| 20260508174309 | 63 | 257 | 3.0 | 6.0 | 0.00 | 0.00 | 0.00 | 45 | 1010.1 |
| 20260508174220 | 63 | 269 | 2.0 | 6.0 | 0.00 | 0.00 | 0.00 | 47 | 1010.1 |
| 20260508174115 | 63 | 267 | 1.0 | 6.0 | 0.00 | 0.00 | 0.00 | 46 | 1010.1 |
| 20260508174005 | 63 | 136 | 1.0 | 6.0 | 0.00 | 0.00 | 0.00 | 45 | 1010.1 |
| 20260508173916 | 63 | 146 | 2.0 | 6.0 | 0.00 | 0.00 | 0.00 | 43 | 1010.2 |
| 20260508173827 | 63 | 169 | 2.0 | 6.0 | 0.00 | 0.00 | 0.00 | 42 | 1010.2 |
| 20260508173736 | 63 | 167 | 2.0 | 6.0 | 0.00 | 0.00 | 0.00 | 44 | 1010.2 |
| 20260508173625 | 63 | 155 | 3.0 | 6.0 | 0.00 | 0.00 | 0.00 | 45 | 1010.3 |
| 20260508173535 | 63 | 242 | 3.0 | 6.0 | 0.00 | 0.00 | 0.00 | 44 | 1010.3 |
| 20260508173426 | 63 | 228 | 2.0 | 6.0 | 0.00 | 0.00 | 0.00 | 48 | 1010.3 |
| 20260508173338 | 63 | 160 | 2.0 | 6.0 | 0.00 | 0.00 | 0.00 | 48 | 1010.2 |
| 20260508173246 | 62 | 232 | 3.0 | 6.0 | 0.00 | 0.00 | 0.00 | 48 | 1010.3 |
| 20260508173136 | 62 | 173 | 3.0 | 6.0 | 0.00 | 0.00 | 0.00 | 47 | 1010.3 |
| 20260508173056 | 62 | 122 | 2.0 | 6.0 | 0.00 | 0.00 | 0.00 | 47 | 1010.3 |
| 20260508172930 | 62 | 217 | 1.0 | 7.0 | 0.00 | 0.00 | 0.00 | 51 | 1010.4 |
| 20260508172759 | 62 | 104 | 2.0 | 7.0 | 0.00 | 0.00 | 0.00 | 45 | 1010.3 |
| 20260508172710 | 62 | 198 | 2.0 | 7.0 | 0.00 | 0.00 | 0.00 | 48 | 1010.4 |
| 20260508172600 | 62 | 202 | 2.0 | 6.0 | 0.00 | 0.00 | 0.00 | 47 | 1010.4 |
| 20260508172512 | 62 | 219 | 3.0 | 6.0 | 0.00 | 0.00 | 0.00 | 47 | 1010.5 |
| 20260508172422 | 62 | 211 | 2.0 | 7.0 | 0.00 | 0.00 | 0.00 | 48 | 1010.5 |
| 20260508172311 | 62 | 219 | 2.0 | 7.0 | 0.00 | 0.00 | 0.00 | 47 | 1010.5 |
| 20260508172221 | 62 | 132 | 2.0 | 7.0 | 0.00 | 0.00 | 0.00 | 46 | 1010.5 |
| 20260508172132 | 62 | 229 | 2.0 | 7.0 | 0.00 | 0.00 | 0.00 | 49 | 1010.6 |
| 20260508172002 | 62 | 249 | 1.0 | 7.0 | 0.00 | 0.00 | 0.00 | 48 | 1010.6 |
| 20260508171858 | 62 | 169 | 2.0 | 7.0 | 0.00 | 0.00 | 0.00 | 48 | 1010.5 |
| 20260508171808 | 62 | 117 | 2.0 | 7.0 | 0.00 | 0.00 | 0.00 | 46 | 1010.6 |
| 20260508171658 | 62 | 309 | 3.0 | 7.0 | 0.00 | 0.00 | 0.00 | 47 | 1010.7 |
| 20260508171609 | 62 | 242 | 4.0 | 7.0 | 0.00 | 0.00 | 0.00 | 46 | 1010.7 |
| 20260508171530 | 62 | 246 | 4.0 | 8.0 | 0.00 | 0.00 | 0.00 | 48 | 1010.7 |
| 20260508171419 | 62 | 248 | 3.0 | 7.0 | 0.00 | 0.00 | 0.00 | 48 | 1010.6 |
| 20260508171310 | 62 | 265 | 3.0 | 7.0 | 0.00 | 0.00 | 0.00 | 52 | 1010.7 |
| 20260508171220 | 61 | 254 | 3.0 | 7.0 | 0.00 | 0.00 | 0.00 | 53 | 1010.7 |
| 20260508171131 | 61 | 234 | 3.0 | 7.0 | 0.00 | 0.00 | 0.00 | 52 | 1010.7 |
| 20260508171001 | 61 | 256 | 3.0 | 5.0 | 0.00 | 0.00 | 0.00 | 51 | 1010.6 |
| 20260508170857 | 61 | 225 | 2.0 | 5.0 | 0.00 | 0.00 | 0.00 | 52 | 1010.7 |
| 20260508170807 | 61 | 219 | 2.0 | 5.0 | 0.00 | 0.00 | 0.00 | 53 | 1010.6 |
| 20260508170658 | 61 | 161 | 2.0 | 5.0 | 0.00 | 0.00 | 0.00 | 51 | 1010.7 |
| 20260508170608 | 61 | 157 | 3.0 | 6.0 | 0.00 | 0.00 | 0.00 | 50 | 1010.7 |
| 20260508170458 | 61 | 235 | 3.0 | 6.0 | 0.00 | 0.00 | 0.00 | 51 | 1010.6 |
| 20260508170409 | 61 | 242 | 3.0 | 6.0 | 0.00 | 0.00 | 0.00 | 51 | 1010.7 |
| 20260508170301 | 61 | 248 | 3.0 | 6.0 | 0.00 | 0.00 | 0.00 | 54 | 1010.6 |
| 20260508170210 | 61 | 240 | 2.0 | 6.0 | 0.00 | 0.00 | 0.00 | 55 | 1010.7 |
| 20260508170117 | 61 | 217 | 2.0 | 6.0 | 0.00 | 0.00 | 0.00 | 53 | 1010.6 |
| 20260508170019 | 61 | 121 | 2.0 | 6.0 | 0.00 | 0.00 | 0.00 | 52 | 1010.6 |
| 20260508165908 | 61 | 139 | 2.0 | 6.0 | 0.00 | 0.00 | 0.00 | 51 | 1010.7 |
| 20260508165800 | 61 | 156 | 3.0 | 7.0 | 0.00 | 0.00 | 0.00 | 53 | 1010.7 |
| 20260508165710 | 61 | 196 | 4.0 | 7.0 | 0.00 | 0.00 | 0.00 | 54 | 1010.8 |
| 20260508165620 | 61 | 277 | 2.0 | 6.0 | 0.00 | 0.00 | 0.00 | 54 | 1010.8 |
| 20260508165511 | 61 | 243 | 2.0 | 6.0 | 0.00 | 0.00 | 0.00 | 54 | 1010.8 |
| 20260508165402 | 61 | 252 | 3.0 | 6.0 | 0.00 | 0.00 | 0.00 | 54 | 1010.8 |
| 20260508165312 | 60 | 269 | 3.0 | 9.0 | 0.00 | 0.00 | 0.00 | 54 | 1010.8 |
| 20260508165203 | 60 | 263 | 3.0 | 9.0 | 0.00 | 0.00 | 0.00 | 54 | 1010.9 |
| 20260508165057 | 60 | 257 | 1.0 | 10.0 | 0.00 | 0.00 | 0.00 | 57 | 1010.8 |
| 20260508165007 | 60 | 226 | 0.0 | 10.0 | 0.00 | 0.00 | 0.00 | 55 | 1010.8 |
| 20260508164858 | 60 | 140 | 0.0 | 10.0 | 0.00 | 0.00 | 0.00 | 56 | 1010.9 |
| 20260508164809 | 60 | 140 | 1.0 | 10.0 | 0.00 | 0.00 | 0.00 | 54 | 1010.8 |
| 20260508164720 | 60 | 140 | 3.0 | 10.0 | 0.00 | 0.00 | 0.00 | 52 | 1010.9 |
| 20260508164610 | 60 | 140 | 4.0 | 10.0 | 0.00 | 0.00 | 0.00 | 52 | 1010.9 |
| 20260508164533 | 60 | 135 | 6.0 | 10.0 | 0.00 | 0.00 | 0.00 | 52 | 1010.9 |
| 20260508164424 | 61 | 152 | 8.0 | 10.0 | 0.00 | 0.00 | 0.00 | 51 | 1010.9 |
| 20260508164315 | 61 | 138 | 8.0 | 10.0 | 0.00 | 0.00 | 0.00 | 53 | 1010.9 |
| 20260508164204 | 61 | 144 | 4.0 | 10.0 | 0.00 | 0.00 | 0.00 | 53 | 1010.9 |
| 20260508164059 | 62 | 155 | 2.0 | 6.0 | 0.00 | 0.00 | 0.00 | 53 | 1010.9 |
| 20260508164010 | 62 | 180 | 3.0 | 6.0 | 0.00 | 0.00 | 0.00 | 54 | 1010.9 |
| 20260508163900 | 62 | 205 | 2.0 | 6.0 | 0.00 | 0.00 | 0.00 | 57 | 1011.0 |
| 20260508163811 | 61 | 138 | 2.0 | 8.0 | 0.00 | 0.00 | 0.00 | 56 | 1011.0 |
| 20260508163721 | 61 | 277 | 2.0 | 8.0 | 0.00 | 0.00 | 0.00 | 54 | 1010.9 |
| 20260508163611 | 61 | 205 | 2.0 | 8.0 | 0.00 | 0.00 | 0.00 | 56 | 1011.0 |
| 20260508163521 | 61 | 237 | 2.0 | 8.0 | 0.00 | 0.00 | 0.00 | 55 | 1011.0 |
| 20260508163433 | 61 | 250 | 2.0 | 8.0 | 0.00 | 0.00 | 0.00 | 55 | 1011.0 |
| 20260508163303 | 61 | 252 | 3.0 | 8.0 | 0.00 | 0.00 | 0.00 | 56 | 1011.0 |
| 20260508163212 | 61 | 272 | 3.0 | 8.0 | 0.00 | 0.00 | 0.00 | 54 | 1011.1 |
| 20260508163107 | 61 | 285 | 4.0 | 8.0 | 0.00 | 0.00 | 0.00 | 53 | 1011.1 |
| 20260508163030 | 61 | 280 | 5.0 | 8.0 | 0.00 | 0.00 | 0.00 | 53 | 1011.1 |
| 20260508162859 | 61 | 292 | 4.0 | 8.0 | 0.00 | 0.00 | 0.00 | 51 | 1011.1 |
| 20260508162810 | 61 | 305 | 3.0 | 7.0 | 0.00 | 0.00 | 0.00 | 53 | 1011.1 |
| 20260508162701 | 61 | 288 | 2.0 | 6.0 | 0.00 | 0.00 | 0.00 | 51 | 1011.2 |
| 20260508162612 | 61 | 227 | 2.0 | 5.0 | 0.00 | 0.00 | 0.00 | 52 | 1011.2 |
| 20260508162522 | 61 | 300 | 2.0 | 5.0 | 0.00 | 0.00 | 0.00 | 49 | 1011.2 |
| 20260508162412 | 61 | 300 | 2.0 | 5.0 | 0.00 | 0.00 | 0.00 | 50 | 1011.2 |
| 20260508162306 | 61 | 303 | 1.0 | 5.0 | 0.00 | 0.00 | 0.00 | 55 | 1011.2 |
| 20260508162157 | 60 | 167 | 1.0 | 8.0 | 0.00 | 0.00 | 0.00 | 55 | 1011.1 |
| 20260508162107 | 60 | 167 | 1.0 | 8.0 | 0.00 | 0.00 | 0.00 | 53 | 1011.3 |
| 20260508161959 | 60 | 150 | 1.0 | 8.0 | 0.00 | 0.00 | 0.00 | 53 | 1011.2 |
| 20260508161909 | 60 | 150 | 2.0 | 8.0 | 0.00 | 0.00 | 0.00 | 54 | 1011.3 |
| 20260508161800 | 60 | 159 | 2.0 | 8.0 | 0.00 | 0.00 | 0.00 | 53 | 1011.3 |
| 20260508161711 | 60 | 161 | 2.0 | 8.0 | 0.00 | 0.00 | 0.00 | 53 | 1011.3 |
| 20260508161602 | 60 | 266 | 4.0 | 8.0 | 0.00 | 0.00 | 0.00 | 49 | 1011.3 |
| 20260508161523 | 60 | 232 | 5.0 | 8.0 | 0.00 | 0.00 | 0.00 | 49 | 1011.3 |
| 20260508161356 | 60 | 275 | 5.0 | 8.0 | 0.00 | 0.00 | 0.00 | 47 | 1011.3 |
| 20260508161306 | 60 | 298 | 4.0 | 7.0 | 0.00 | 0.00 | 0.00 | 48 | 1011.3 |
| 20260508161157 | 60 | 296 | 3.0 | 7.0 | 0.00 | 0.00 | 0.00 | 49 | 1011.3 |
| 20260508161107 | 60 | 238 | 4.0 | 7.0 | 0.00 | 0.00 | 0.00 | 55 | 1011.2 |
| 20260508160959 | 60 | 244 | 4.0 | 7.0 | 0.00 | 0.00 | 0.00 | 50 | 1011.2 |
| 20260508160909 | 60 | 286 | 3.0 | 7.0 | 0.00 | 0.00 | 0.00 | 54 | 1011.3 |
| 20260508160800 | 60 | 223 | 3.0 | 5.0 | 0.00 | 0.00 | 0.00 | 54 | 1011.2 |
| 20260508160711 | 60 | 243 | 2.0 | 5.0 | 0.00 | 0.00 | 0.00 | 55 | 1011.3 |
| 20260508160601 | 60 | 157 | 3.0 | 5.0 | 0.00 | 0.00 | 0.00 | 56 | 1011.3 |
| 20260508160457 | 60 | 222 | 3.0 | 5.0 | 0.00 | 0.00 | 0.00 | 58 | 1011.3 |
| 20260508160406 | 60 | 262 | 2.0 | 5.0 | 0.00 | 0.00 | 0.00 | 59 | 1011.3 |
| 20260508160320 | 60 | 227 | 2.0 | 5.0 | 0.00 | 0.00 | 0.00 | 59 | 1011.3 |
| 20260508160228 | 60 | 167 | 2.0 | 5.0 | 0.00 | 0.00 | 0.00 | 58 | 1011.4 |
| 20260508160117 | 60 | 159 | 1.0 | 5.0 | 0.00 | 0.00 | 0.00 | 59 | 1011.3 |
| 20260508160037 | 60 | 251 | 1.0 | 5.0 | 0.00 | 0.00 | 0.00 | 59 | 1011.4 |
| 20260508155926 | 60 | 244 | 2.0 | 5.0 | 0.00 | 0.00 | 0.00 | 61 | 1011.4 |
| 20260508155836 | 60 | 311 | 2.0 | 5.0 | 0.00 | 0.00 | 0.00 | 60 | 1011.3 |
| 20260508155705 | 60 | 319 | 1.0 | 3.0 | 0.00 | 0.00 | 0.00 | 61 | 1011.4 |
| 20260508155615 | 59 | 74 | 1.0 | 3.0 | 0.00 | 0.00 | 0.00 | 60 | 1011.3 |
| 20260508155510 | 59 | 121 | 1.0 | 3.0 | 0.00 | 0.00 | 0.00 | 60 | 1011.3 |
| 20260508155421 | 59 | 121 | 2.0 | 3.0 | 0.00 | 0.00 | 0.00 | 59 | 1011.4 |
| 20260508155311 | 59 | 220 | 2.0 | 3.0 | 0.00 | 0.00 | 0.00 | 58 | 1011.5 |
| 20260508155203 | 59 | 220 | 1.0 | 4.0 | 0.00 | 0.00 | 0.00 | 61 | 1011.3 |
| 20260508155113 | 59 | 196 | 1.0 | 4.0 | 0.00 | 0.00 | 0.00 | 61 | 1011.5 |
| 20260508155005 | 59 | 157 | 2.0 | 4.0 | 0.00 | 0.00 | 0.00 | 62 | 1011.5 |
| 20260508154914 | 59 | 191 | 2.0 | 4.0 | 0.00 | 0.00 | 0.00 | 62 | 1011.6 |
| 20260508154824 | 59 | 201 | 2.0 | 5.0 | 0.00 | 0.00 | 0.00 | 62 | 1011.5 |
| 20260508154715 | 59 | 281 | 1.0 | 7.0 | 0.00 | 0.00 | 0.00 | 61 | 1011.5 |
| 20260508154606 | 59 | 244 | 2.0 | 7.0 | 0.00 | 0.00 | 0.00 | 60 | 1011.6 |
| 20260508154541 | 59 | 319 | 2.0 | 7.0 | 0.00 | 0.00 | 0.00 | 60 | 1011.6 |
| 20260508154433 | 59 | 248 | 1.0 | 7.0 | 0.00 | 0.00 | 0.00 | 60 | 1011.5 |
| 20260508154302 | 59 | 23 | 1.0 | 7.0 | 0.00 | 0.00 | 0.00 | 60 | 1011.5 |
| 20260508154212 | 59 | 225 | 2.0 | 7.0 | 0.00 | 0.00 | 0.00 | 62 | 1011.5 |
| 20260508154123 | 59 | 230 | 3.0 | 7.0 | 0.00 | 0.00 | 0.00 | 63 | 1011.5 |
| 20260508154012 | 59 | 265 | 3.0 | 7.0 | 0.00 | 0.00 | 0.00 | 63 | 1011.5 |
| 20260508153922 | 59 | 236 | 2.0 | 7.0 | 0.00 | 0.00 | 0.00 | 63 | 1011.4 |
| 20260508153833 | 59 | 143 | 1.0 | 4.0 | 0.00 | 0.00 | 0.00 | 60 | 1011.4 |
| 20260508153744 | 58 | 165 | 1.0 | 4.0 | 0.00 | 0.00 | 0.00 | 61 | 1011.4 |
| 20260508153634 | 58 | 219 | 1.0 | 4.0 | 0.00 | 0.00 | 0.00 | 61 | 1011.4 |
| 20260508153502 | 58 | 200 | 1.0 | 5.0 | 0.00 | 0.00 | 0.00 | 64 | 1011.6 |
| 20260508153416 | 58 | 155 | 2.0 | 5.0 | 0.00 | 0.00 | 0.00 | 64 | 1011.4 |
| 20260508153330 | 58 | 240 | 2.0 | 5.0 | 0.00 | 0.00 | 0.00 | 63 | 1011.4 |
| 20260508153239 | 58 | 201 | 1.0 | 5.0 | 0.00 | 0.00 | 0.00 | 64 | 1011.4 |
| 20260508153128 | 58 | 183 | 1.0 | 5.0 | 0.00 | 0.00 | 0.00 | 65 | 1011.3 |
| 20260508153030 | 58 | 198 | 2.0 | 5.0 | 0.00 | 0.00 | 0.00 | 66 | 1011.3 |
| 20260508152859 | 58 | 221 | 3.0 | 5.0 | 0.00 | 0.00 | 0.00 | 68 | 1011.4 |
| 20260508152809 | 58 | 157 | 3.0 | 5.0 | 0.00 | 0.00 | 0.00 | 69 | 1011.3 |
| 20260508152700 | 57 | 128 | 1.0 | 5.0 | 0.00 | 0.00 | 0.00 | 69 | 1011.3 |
| 20260508152610 | 57 | 253 | 1.0 | 5.0 | 0.00 | 0.00 | 0.00 | 71 | 1011.3 |